<?xml version="1.0" encoding="UTF-8" standalone="no" ?>
<gpx xmlns="http://www.topografix.com/GPX/1/1" xmlns:xsi="http://www.w3.org/2001/XMLSchema-instance" xsi:schemaLocation="http://www.topografix.com/GPX/1/1 http://www.topografix.com/GPX/1/1/gpx.xsd" version="1.1" creator="VisuGPX - https://www.visugpx.com">
  <metadata>
    <name>2018-05-05 boucle autour de SIVENS (81)</name>
    <desc><![CDATA[Le GRP de l'Isle à Sivens est interrompu au passage du ruisseau le Tescou, là oû se sont déroulés les évènements de la ZAD du barrage de SIVENS. de même pour la route D132 coupée à la circulation. ]]></desc>
  </metadata>
  <trk>
    <name><![CDATA[2018-05-05 16:54:16]]></name>
    <trkseg>
      <trkpt lat="43.92566" lon="1.76983">
        <ele>285.17</ele>
        <time>2018-05-05T07:20:27Z</time>
      </trkpt>
      <trkpt lat="43.92594" lon="1.76969">
        <ele>283.25</ele>
        <time>2018-05-05T07:24:32Z</time>
      </trkpt>
      <trkpt lat="43.92596" lon="1.7697">
        <ele>282.77</ele>
        <time>2018-05-05T07:24:34Z</time>
      </trkpt>
      <trkpt lat="43.92613" lon="1.76976">
        <ele>282.28</ele>
        <time>2018-05-05T07:24:50Z</time>
      </trkpt>
      <trkpt lat="43.9263" lon="1.76982">
        <ele>281.32</ele>
        <time>2018-05-05T07:25:07Z</time>
      </trkpt>
      <trkpt lat="43.92649" lon="1.76986">
        <ele>280.84</ele>
        <time>2018-05-05T07:25:23Z</time>
      </trkpt>
      <trkpt lat="43.92671" lon="1.76995">
        <ele>280.36</ele>
        <time>2018-05-05T07:25:42Z</time>
      </trkpt>
      <trkpt lat="43.9269" lon="1.76998">
        <ele>280.36</ele>
        <time>2018-05-05T07:25:59Z</time>
      </trkpt>
      <trkpt lat="43.927" lon="1.7699">
        <ele>279.88</ele>
        <time>2018-05-05T07:26:13Z</time>
      </trkpt>
      <trkpt lat="43.92713" lon="1.7698">
        <ele>280.36</ele>
        <time>2018-05-05T07:26:30Z</time>
      </trkpt>
      <trkpt lat="43.92725" lon="1.7697">
        <ele>280.36</ele>
        <time>2018-05-05T07:26:42Z</time>
      </trkpt>
      <trkpt lat="43.92733" lon="1.76965">
        <ele>280.84</ele>
        <time>2018-05-05T07:26:48Z</time>
      </trkpt>
      <trkpt lat="43.92741" lon="1.76957">
        <ele>280.84</ele>
        <time>2018-05-05T07:27:01Z</time>
      </trkpt>
      <trkpt lat="43.92753" lon="1.76942">
        <ele>280.84</ele>
        <time>2018-05-05T07:27:16Z</time>
      </trkpt>
      <trkpt lat="43.92768" lon="1.76927">
        <ele>280.84</ele>
        <time>2018-05-05T07:27:31Z</time>
      </trkpt>
      <trkpt lat="43.92781" lon="1.76911">
        <ele>280.36</ele>
        <time>2018-05-05T07:28:02Z</time>
      </trkpt>
      <trkpt lat="43.9279" lon="1.76903">
        <ele>279.4</ele>
        <time>2018-05-05T07:29:09Z</time>
      </trkpt>
      <trkpt lat="43.92805" lon="1.76889">
        <ele>278.44</ele>
        <time>2018-05-05T07:29:27Z</time>
      </trkpt>
      <trkpt lat="43.92815" lon="1.76888">
        <ele>278.44</ele>
        <time>2018-05-05T07:29:41Z</time>
      </trkpt>
      <trkpt lat="43.92832" lon="1.7688">
        <ele>278.44</ele>
        <time>2018-05-05T07:29:54Z</time>
      </trkpt>
      <trkpt lat="43.92845" lon="1.76864">
        <ele>278.44</ele>
        <time>2018-05-05T07:30:10Z</time>
      </trkpt>
      <trkpt lat="43.92858" lon="1.76846">
        <ele>278.44</ele>
        <time>2018-05-05T07:30:27Z</time>
      </trkpt>
      <trkpt lat="43.92873" lon="1.76832">
        <ele>277.96</ele>
        <time>2018-05-05T07:30:45Z</time>
      </trkpt>
      <trkpt lat="43.92888" lon="1.76816">
        <ele>277.96</ele>
        <time>2018-05-05T07:30:58Z</time>
      </trkpt>
      <trkpt lat="43.92899" lon="1.76802">
        <ele>277.96</ele>
        <time>2018-05-05T07:31:15Z</time>
      </trkpt>
      <trkpt lat="43.92913" lon="1.7679">
        <ele>278.44</ele>
        <time>2018-05-05T07:31:30Z</time>
      </trkpt>
      <trkpt lat="43.92924" lon="1.76781">
        <ele>278.92</ele>
        <time>2018-05-05T07:31:44Z</time>
      </trkpt>
      <trkpt lat="43.92938" lon="1.7677">
        <ele>278.92</ele>
        <time>2018-05-05T07:32:02Z</time>
      </trkpt>
      <trkpt lat="43.9295" lon="1.76758">
        <ele>278.92</ele>
        <time>2018-05-05T07:32:17Z</time>
      </trkpt>
      <trkpt lat="43.92965" lon="1.76741">
        <ele>278.44</ele>
        <time>2018-05-05T07:32:34Z</time>
      </trkpt>
      <trkpt lat="43.92979" lon="1.7673">
        <ele>277.96</ele>
        <time>2018-05-05T07:32:49Z</time>
      </trkpt>
      <trkpt lat="43.92993" lon="1.7672">
        <ele>278.92</ele>
        <time>2018-05-05T07:33:03Z</time>
      </trkpt>
      <trkpt lat="43.93007" lon="1.76709">
        <ele>279.4</ele>
        <time>2018-05-05T07:33:18Z</time>
      </trkpt>
      <trkpt lat="43.9302" lon="1.76696">
        <ele>278.92</ele>
        <time>2018-05-05T07:33:33Z</time>
      </trkpt>
      <trkpt lat="43.93035" lon="1.76681">
        <ele>278.92</ele>
        <time>2018-05-05T07:33:51Z</time>
      </trkpt>
      <trkpt lat="43.93052" lon="1.76665">
        <ele>278.92</ele>
        <time>2018-05-05T07:34:09Z</time>
      </trkpt>
      <trkpt lat="43.93064" lon="1.76651">
        <ele>278.92</ele>
        <time>2018-05-05T07:34:24Z</time>
      </trkpt>
      <trkpt lat="43.93079" lon="1.76652">
        <ele>279.4</ele>
        <time>2018-05-05T07:34:40Z</time>
      </trkpt>
      <trkpt lat="43.93099" lon="1.76661">
        <ele>281.32</ele>
        <time>2018-05-05T07:34:57Z</time>
      </trkpt>
      <trkpt lat="43.93117" lon="1.76654">
        <ele>281.8</ele>
        <time>2018-05-05T07:35:15Z</time>
      </trkpt>
      <trkpt lat="43.93128" lon="1.76644">
        <ele>281.8</ele>
        <time>2018-05-05T07:35:30Z</time>
      </trkpt>
      <trkpt lat="43.93143" lon="1.76632">
        <ele>281.8</ele>
        <time>2018-05-05T07:35:47Z</time>
      </trkpt>
      <trkpt lat="43.9316" lon="1.7662">
        <ele>282.28</ele>
        <time>2018-05-05T07:36:04Z</time>
      </trkpt>
      <trkpt lat="43.93173" lon="1.76614">
        <ele>282.28</ele>
        <time>2018-05-05T07:36:21Z</time>
      </trkpt>
      <trkpt lat="43.93176" lon="1.76609">
        <ele>282.28</ele>
        <time>2018-05-05T07:36:43Z</time>
      </trkpt>
      <trkpt lat="43.93184" lon="1.76589">
        <ele>281.8</ele>
        <time>2018-05-05T07:36:59Z</time>
      </trkpt>
      <trkpt lat="43.9317" lon="1.76562">
        <ele>280.84</ele>
        <time>2018-05-05T07:37:20Z</time>
      </trkpt>
      <trkpt lat="43.93161" lon="1.76535">
        <ele>279.88</ele>
        <time>2018-05-05T07:37:38Z</time>
      </trkpt>
      <trkpt lat="43.93158" lon="1.76523">
        <ele>279.4</ele>
        <time>2018-05-05T07:37:46Z</time>
      </trkpt>
      <trkpt lat="43.93149" lon="1.76495">
        <ele>277.96</ele>
        <time>2018-05-05T07:38:06Z</time>
      </trkpt>
      <trkpt lat="43.9314" lon="1.76471">
        <ele>277</ele>
        <time>2018-05-05T07:38:24Z</time>
      </trkpt>
      <trkpt lat="43.93129" lon="1.76446">
        <ele>276.04</ele>
        <time>2018-05-05T07:38:43Z</time>
      </trkpt>
      <trkpt lat="43.93125" lon="1.76436">
        <ele>276.04</ele>
        <time>2018-05-05T07:38:59Z</time>
      </trkpt>
      <trkpt lat="43.93132" lon="1.76428">
        <ele>275.56</ele>
        <time>2018-05-05T07:39:13Z</time>
      </trkpt>
      <trkpt lat="43.93135" lon="1.76427">
        <ele>275.56</ele>
        <time>2018-05-05T07:39:17Z</time>
      </trkpt>
      <trkpt lat="43.93149" lon="1.76414">
        <ele>275.07</ele>
        <time>2018-05-05T07:39:33Z</time>
      </trkpt>
      <trkpt lat="43.93164" lon="1.76414">
        <ele>275.56</ele>
        <time>2018-05-05T07:39:48Z</time>
      </trkpt>
      <trkpt lat="43.93179" lon="1.764">
        <ele>276.04</ele>
        <time>2018-05-05T07:40:04Z</time>
      </trkpt>
      <trkpt lat="43.93188" lon="1.76388">
        <ele>277</ele>
        <time>2018-05-05T07:40:20Z</time>
      </trkpt>
      <trkpt lat="43.93202" lon="1.76373">
        <ele>277.48</ele>
        <time>2018-05-05T07:40:37Z</time>
      </trkpt>
      <trkpt lat="43.93218" lon="1.76356">
        <ele>277.96</ele>
        <time>2018-05-05T07:40:57Z</time>
      </trkpt>
      <trkpt lat="43.93235" lon="1.76339">
        <ele>277.96</ele>
        <time>2018-05-05T07:41:15Z</time>
      </trkpt>
      <trkpt lat="43.93253" lon="1.76326">
        <ele>277.48</ele>
        <time>2018-05-05T07:41:32Z</time>
      </trkpt>
      <trkpt lat="43.93272" lon="1.76312">
        <ele>277.48</ele>
        <time>2018-05-05T07:41:49Z</time>
      </trkpt>
      <trkpt lat="43.93285" lon="1.76304">
        <ele>277</ele>
        <time>2018-05-05T07:42:08Z</time>
      </trkpt>
      <trkpt lat="43.93303" lon="1.76287">
        <ele>275.56</ele>
        <time>2018-05-05T07:42:25Z</time>
      </trkpt>
      <trkpt lat="43.93316" lon="1.76265">
        <ele>275.07</ele>
        <time>2018-05-05T07:42:43Z</time>
      </trkpt>
      <trkpt lat="43.93333" lon="1.76243">
        <ele>274.11</ele>
        <time>2018-05-05T07:43:02Z</time>
      </trkpt>
      <trkpt lat="43.93345" lon="1.76223">
        <ele>273.15</ele>
        <time>2018-05-05T07:43:20Z</time>
      </trkpt>
      <trkpt lat="43.93356" lon="1.76202">
        <ele>272.19</ele>
        <time>2018-05-05T07:43:36Z</time>
      </trkpt>
      <trkpt lat="43.93369" lon="1.76181">
        <ele>270.75</ele>
        <time>2018-05-05T07:43:55Z</time>
      </trkpt>
      <trkpt lat="43.9338" lon="1.76155">
        <ele>268.83</ele>
        <time>2018-05-05T07:44:13Z</time>
      </trkpt>
      <trkpt lat="43.93388" lon="1.76134">
        <ele>266.9</ele>
        <time>2018-05-05T07:44:31Z</time>
      </trkpt>
      <trkpt lat="43.93398" lon="1.76113">
        <ele>265.94</ele>
        <time>2018-05-05T07:44:46Z</time>
      </trkpt>
      <trkpt lat="43.93409" lon="1.76094">
        <ele>265.94</ele>
        <time>2018-05-05T07:45:01Z</time>
      </trkpt>
      <trkpt lat="43.93421" lon="1.76078">
        <ele>265.94</ele>
        <time>2018-05-05T07:45:20Z</time>
      </trkpt>
      <trkpt lat="43.93439" lon="1.7606">
        <ele>264.98</ele>
        <time>2018-05-05T07:45:39Z</time>
      </trkpt>
      <trkpt lat="43.93456" lon="1.76037">
        <ele>263.54</ele>
        <time>2018-05-05T07:45:59Z</time>
      </trkpt>
      <trkpt lat="43.93469" lon="1.76019">
        <ele>262.1</ele>
        <time>2018-05-05T07:46:15Z</time>
      </trkpt>
      <trkpt lat="43.93479" lon="1.76006">
        <ele>261.14</ele>
        <time>2018-05-05T07:46:28Z</time>
      </trkpt>
      <trkpt lat="43.93492" lon="1.75982">
        <ele>259.69</ele>
        <time>2018-05-05T07:46:47Z</time>
      </trkpt>
      <trkpt lat="43.93507" lon="1.75963">
        <ele>257.29</ele>
        <time>2018-05-05T07:47:07Z</time>
      </trkpt>
      <trkpt lat="43.93516" lon="1.75946">
        <ele>254.41</ele>
        <time>2018-05-05T07:47:22Z</time>
      </trkpt>
      <trkpt lat="43.93523" lon="1.75926">
        <ele>252</ele>
        <time>2018-05-05T07:47:40Z</time>
      </trkpt>
      <trkpt lat="43.93517" lon="1.75913">
        <ele>249.6</ele>
        <time>2018-05-05T07:48:00Z</time>
      </trkpt>
      <trkpt lat="43.9351" lon="1.75903">
        <ele>246.72</ele>
        <time>2018-05-05T07:48:14Z</time>
      </trkpt>
      <trkpt lat="43.935" lon="1.7589">
        <ele>243.35</ele>
        <time>2018-05-05T07:48:31Z</time>
      </trkpt>
      <trkpt lat="43.9351" lon="1.75876">
        <ele>240.47</ele>
        <time>2018-05-05T07:48:48Z</time>
      </trkpt>
      <trkpt lat="43.93518" lon="1.75863">
        <ele>237.1</ele>
        <time>2018-05-05T07:49:07Z</time>
      </trkpt>
      <trkpt lat="43.93515" lon="1.75843">
        <ele>234.22</ele>
        <time>2018-05-05T07:49:21Z</time>
      </trkpt>
      <trkpt lat="43.93513" lon="1.75816">
        <ele>232.78</ele>
        <time>2018-05-05T07:49:39Z</time>
      </trkpt>
      <trkpt lat="43.93523" lon="1.75804">
        <ele>233.26</ele>
        <time>2018-05-05T07:49:57Z</time>
      </trkpt>
      <trkpt lat="43.93534" lon="1.75807">
        <ele>233.26</ele>
        <time>2018-05-05T07:50:11Z</time>
      </trkpt>
      <trkpt lat="43.93539" lon="1.7581">
        <ele>233.74</ele>
        <time>2018-05-05T07:50:30Z</time>
      </trkpt>
      <trkpt lat="43.93551" lon="1.7582">
        <ele>233.74</ele>
        <time>2018-05-05T07:50:46Z</time>
      </trkpt>
      <trkpt lat="43.93559" lon="1.75837">
        <ele>233.74</ele>
        <time>2018-05-05T07:51:01Z</time>
      </trkpt>
      <trkpt lat="43.93564" lon="1.75849">
        <ele>233.26</ele>
        <time>2018-05-05T07:51:21Z</time>
      </trkpt>
      <trkpt lat="43.93563" lon="1.75885">
        <ele>234.22</ele>
        <time>2018-05-05T07:51:43Z</time>
      </trkpt>
      <trkpt lat="43.93575" lon="1.75908">
        <ele>234.22</ele>
        <time>2018-05-05T07:52:02Z</time>
      </trkpt>
      <trkpt lat="43.9358" lon="1.75924">
        <ele>234.7</ele>
        <time>2018-05-05T07:52:19Z</time>
      </trkpt>
      <trkpt lat="43.9359" lon="1.75944">
        <ele>235.66</ele>
        <time>2018-05-05T07:52:37Z</time>
      </trkpt>
      <trkpt lat="43.93589" lon="1.75965">
        <ele>236.14</ele>
        <time>2018-05-05T07:52:53Z</time>
      </trkpt>
      <trkpt lat="43.93583" lon="1.75984">
        <ele>237.1</ele>
        <time>2018-05-05T07:53:12Z</time>
      </trkpt>
      <trkpt lat="43.93586" lon="1.76012">
        <ele>239.02</ele>
        <time>2018-05-05T07:53:32Z</time>
      </trkpt>
      <trkpt lat="43.9359" lon="1.76024">
        <ele>241.91</ele>
        <time>2018-05-05T07:53:50Z</time>
      </trkpt>
      <trkpt lat="43.93598" lon="1.76041">
        <ele>244.79</ele>
        <time>2018-05-05T07:54:10Z</time>
      </trkpt>
      <trkpt lat="43.93604" lon="1.76058">
        <ele>246.72</ele>
        <time>2018-05-05T07:54:31Z</time>
      </trkpt>
      <trkpt lat="43.93613" lon="1.76073">
        <ele>249.12</ele>
        <time>2018-05-05T07:54:51Z</time>
      </trkpt>
      <trkpt lat="43.93627" lon="1.76088">
        <ele>251.52</ele>
        <time>2018-05-05T07:55:10Z</time>
      </trkpt>
      <trkpt lat="43.93633" lon="1.76109">
        <ele>253.93</ele>
        <time>2018-05-05T07:55:34Z</time>
      </trkpt>
      <trkpt lat="43.93635" lon="1.76133">
        <ele>256.33</ele>
        <time>2018-05-05T07:55:54Z</time>
      </trkpt>
      <trkpt lat="43.93636" lon="1.7616">
        <ele>258.25</ele>
        <time>2018-05-05T07:56:18Z</time>
      </trkpt>
      <trkpt lat="43.93634" lon="1.7618">
        <ele>260.17</ele>
        <time>2018-05-05T07:56:37Z</time>
      </trkpt>
      <trkpt lat="43.93639" lon="1.76189">
        <ele>262.58</ele>
        <time>2018-05-05T07:56:54Z</time>
      </trkpt>
      <trkpt lat="43.93652" lon="1.76188">
        <ele>265.46</ele>
        <time>2018-05-05T07:57:13Z</time>
      </trkpt>
      <trkpt lat="43.93662" lon="1.76191">
        <ele>267.86</ele>
        <time>2018-05-05T07:57:28Z</time>
      </trkpt>
      <trkpt lat="43.93666" lon="1.76195">
        <ele>268.83</ele>
        <time>2018-05-05T07:59:05Z</time>
      </trkpt>
      <trkpt lat="43.93672" lon="1.76189">
        <ele>268.83</ele>
        <time>2018-05-05T07:59:25Z</time>
      </trkpt>
      <trkpt lat="43.93676" lon="1.76173">
        <ele>269.31</ele>
        <time>2018-05-05T07:59:43Z</time>
      </trkpt>
      <trkpt lat="43.93683" lon="1.76154">
        <ele>269.79</ele>
        <time>2018-05-05T07:59:58Z</time>
      </trkpt>
      <trkpt lat="43.93683" lon="1.76153">
        <ele>269.79</ele>
        <time>2018-05-05T07:59:59Z</time>
      </trkpt>
      <trkpt lat="43.93691" lon="1.76134">
        <ele>270.27</ele>
        <time>2018-05-05T08:00:15Z</time>
      </trkpt>
      <trkpt lat="43.93699" lon="1.76119">
        <ele>269.79</ele>
        <time>2018-05-05T08:00:32Z</time>
      </trkpt>
      <trkpt lat="43.9371" lon="1.76097">
        <ele>269.31</ele>
        <time>2018-05-05T08:00:50Z</time>
      </trkpt>
      <trkpt lat="43.93718" lon="1.76077">
        <ele>268.83</ele>
        <time>2018-05-05T08:01:07Z</time>
      </trkpt>
      <trkpt lat="43.93728" lon="1.76058">
        <ele>268.83</ele>
        <time>2018-05-05T08:01:23Z</time>
      </trkpt>
      <trkpt lat="43.93742" lon="1.76041">
        <ele>268.35</ele>
        <time>2018-05-05T08:01:39Z</time>
      </trkpt>
      <trkpt lat="43.93754" lon="1.76025">
        <ele>268.35</ele>
        <time>2018-05-05T08:01:55Z</time>
      </trkpt>
      <trkpt lat="43.93764" lon="1.76012">
        <ele>267.86</ele>
        <time>2018-05-05T08:02:11Z</time>
      </trkpt>
      <trkpt lat="43.9378" lon="1.75993">
        <ele>267.86</ele>
        <time>2018-05-05T08:02:29Z</time>
      </trkpt>
      <trkpt lat="43.93794" lon="1.75975">
        <ele>267.38</ele>
        <time>2018-05-05T08:02:47Z</time>
      </trkpt>
      <trkpt lat="43.93808" lon="1.75952">
        <ele>267.38</ele>
        <time>2018-05-05T08:03:06Z</time>
      </trkpt>
      <trkpt lat="43.93817" lon="1.75936">
        <ele>267.38</ele>
        <time>2018-05-05T08:03:20Z</time>
      </trkpt>
      <trkpt lat="43.93821" lon="1.75929">
        <ele>267.38</ele>
        <time>2018-05-05T08:03:36Z</time>
      </trkpt>
      <trkpt lat="43.93837" lon="1.7593">
        <ele>268.83</ele>
        <time>2018-05-05T08:03:54Z</time>
      </trkpt>
      <trkpt lat="43.93851" lon="1.75926">
        <ele>269.79</ele>
        <time>2018-05-05T08:04:13Z</time>
      </trkpt>
      <trkpt lat="43.93864" lon="1.75921">
        <ele>269.79</ele>
        <time>2018-05-05T08:04:28Z</time>
      </trkpt>
      <trkpt lat="43.93884" lon="1.75924">
        <ele>268.35</ele>
        <time>2018-05-05T08:04:45Z</time>
      </trkpt>
      <trkpt lat="43.93898" lon="1.75925">
        <ele>267.38</ele>
        <time>2018-05-05T08:05:00Z</time>
      </trkpt>
      <trkpt lat="43.93909" lon="1.75917">
        <ele>266.42</ele>
        <time>2018-05-05T08:05:16Z</time>
      </trkpt>
      <trkpt lat="43.93923" lon="1.75902">
        <ele>264.02</ele>
        <time>2018-05-05T08:05:37Z</time>
      </trkpt>
      <trkpt lat="43.93938" lon="1.75887">
        <ele>263.06</ele>
        <time>2018-05-05T08:05:53Z</time>
      </trkpt>
      <trkpt lat="43.93953" lon="1.75872">
        <ele>262.58</ele>
        <time>2018-05-05T08:06:11Z</time>
      </trkpt>
      <trkpt lat="43.93966" lon="1.75857">
        <ele>262.1</ele>
        <time>2018-05-05T08:06:28Z</time>
      </trkpt>
      <trkpt lat="43.93983" lon="1.75845">
        <ele>260.17</ele>
        <time>2018-05-05T08:06:46Z</time>
      </trkpt>
      <trkpt lat="43.94001" lon="1.75837">
        <ele>259.21</ele>
        <time>2018-05-05T08:07:05Z</time>
      </trkpt>
      <trkpt lat="43.94024" lon="1.75834">
        <ele>258.25</ele>
        <time>2018-05-05T08:07:23Z</time>
      </trkpt>
      <trkpt lat="43.94042" lon="1.75833">
        <ele>258.25</ele>
        <time>2018-05-05T08:07:38Z</time>
      </trkpt>
      <trkpt lat="43.94057" lon="1.75826">
        <ele>257.77</ele>
        <time>2018-05-05T08:07:53Z</time>
      </trkpt>
      <trkpt lat="43.94068" lon="1.75815">
        <ele>256.81</ele>
        <time>2018-05-05T08:08:08Z</time>
      </trkpt>
      <trkpt lat="43.94084" lon="1.758">
        <ele>254.89</ele>
        <time>2018-05-05T08:08:26Z</time>
      </trkpt>
      <trkpt lat="43.94103" lon="1.75796">
        <ele>253.93</ele>
        <time>2018-05-05T08:08:43Z</time>
      </trkpt>
      <trkpt lat="43.94119" lon="1.75789">
        <ele>252.48</ele>
        <time>2018-05-05T08:09:01Z</time>
      </trkpt>
      <trkpt lat="43.94134" lon="1.75781">
        <ele>251.04</ele>
        <time>2018-05-05T08:09:21Z</time>
      </trkpt>
      <trkpt lat="43.94149" lon="1.75773">
        <ele>248.16</ele>
        <time>2018-05-05T08:09:40Z</time>
      </trkpt>
      <trkpt lat="43.94161" lon="1.75767">
        <ele>244.79</ele>
        <time>2018-05-05T08:09:53Z</time>
      </trkpt>
      <trkpt lat="43.94173" lon="1.75761">
        <ele>241.43</ele>
        <time>2018-05-05T08:10:09Z</time>
      </trkpt>
      <trkpt lat="43.94188" lon="1.7576">
        <ele>238.54</ele>
        <time>2018-05-05T08:10:24Z</time>
      </trkpt>
      <trkpt lat="43.94198" lon="1.75755">
        <ele>236.14</ele>
        <time>2018-05-05T08:10:40Z</time>
      </trkpt>
      <trkpt lat="43.94204" lon="1.75747">
        <ele>234.7</ele>
        <time>2018-05-05T08:10:54Z</time>
      </trkpt>
      <trkpt lat="43.94214" lon="1.7574">
        <ele>233.74</ele>
        <time>2018-05-05T08:11:12Z</time>
      </trkpt>
      <trkpt lat="43.94218" lon="1.75749">
        <ele>232.3</ele>
        <time>2018-05-05T08:11:25Z</time>
      </trkpt>
      <trkpt lat="43.94217" lon="1.75765">
        <ele>228.93</ele>
        <time>2018-05-05T08:11:43Z</time>
      </trkpt>
      <trkpt lat="43.94214" lon="1.75783">
        <ele>227.01</ele>
        <time>2018-05-05T08:12:01Z</time>
      </trkpt>
      <trkpt lat="43.9421" lon="1.75799">
        <ele>225.57</ele>
        <time>2018-05-05T08:12:16Z</time>
      </trkpt>
      <trkpt lat="43.94203" lon="1.75822">
        <ele>223.64</ele>
        <time>2018-05-05T08:12:36Z</time>
      </trkpt>
      <trkpt lat="43.94201" lon="1.75848">
        <ele>222.2</ele>
        <time>2018-05-05T08:12:55Z</time>
      </trkpt>
      <trkpt lat="43.94199" lon="1.75876">
        <ele>220.28</ele>
        <time>2018-05-05T08:13:11Z</time>
      </trkpt>
      <trkpt lat="43.94211" lon="1.75875">
        <ele>216.91</ele>
        <time>2018-05-05T08:13:30Z</time>
      </trkpt>
      <trkpt lat="43.94222" lon="1.75865">
        <ele>214.03</ele>
        <time>2018-05-05T08:13:47Z</time>
      </trkpt>
      <trkpt lat="43.94236" lon="1.75848">
        <ele>211.63</ele>
        <time>2018-05-05T08:14:03Z</time>
      </trkpt>
      <trkpt lat="43.94248" lon="1.75835">
        <ele>210.19</ele>
        <time>2018-05-05T08:14:20Z</time>
      </trkpt>
      <trkpt lat="43.94268" lon="1.75811">
        <ele>209.7</ele>
        <time>2018-05-05T08:14:37Z</time>
      </trkpt>
      <trkpt lat="43.94292" lon="1.75784">
        <ele>209.22</ele>
        <time>2018-05-05T08:15:15Z</time>
      </trkpt>
      <trkpt lat="43.94297" lon="1.75771">
        <ele>209.7</ele>
        <time>2018-05-05T08:15:33Z</time>
      </trkpt>
      <trkpt lat="43.94311" lon="1.75756">
        <ele>208.74</ele>
        <time>2018-05-05T08:15:49Z</time>
      </trkpt>
      <trkpt lat="43.94332" lon="1.75746">
        <ele>206.34</ele>
        <time>2018-05-05T08:16:05Z</time>
      </trkpt>
      <trkpt lat="43.94348" lon="1.75735">
        <ele>204.42</ele>
        <time>2018-05-05T08:16:23Z</time>
      </trkpt>
      <trkpt lat="43.94359" lon="1.75726">
        <ele>202.49</ele>
        <time>2018-05-05T08:16:40Z</time>
      </trkpt>
      <trkpt lat="43.9437" lon="1.7572">
        <ele>199.61</ele>
        <time>2018-05-05T08:16:59Z</time>
      </trkpt>
      <trkpt lat="43.94384" lon="1.75717">
        <ele>196.25</ele>
        <time>2018-05-05T08:17:20Z</time>
      </trkpt>
      <trkpt lat="43.94401" lon="1.7572">
        <ele>193.36</ele>
        <time>2018-05-05T08:17:39Z</time>
      </trkpt>
      <trkpt lat="43.94417" lon="1.7571">
        <ele>190.96</ele>
        <time>2018-05-05T08:18:00Z</time>
      </trkpt>
      <trkpt lat="43.94428" lon="1.75696">
        <ele>190.48</ele>
        <time>2018-05-05T08:18:15Z</time>
      </trkpt>
      <trkpt lat="43.94448" lon="1.75691">
        <ele>190.48</ele>
        <time>2018-05-05T08:18:52Z</time>
      </trkpt>
      <trkpt lat="43.94463" lon="1.75691">
        <ele>190.48</ele>
        <time>2018-05-05T08:19:12Z</time>
      </trkpt>
      <trkpt lat="43.94476" lon="1.7568">
        <ele>191.44</ele>
        <time>2018-05-05T08:19:33Z</time>
      </trkpt>
      <trkpt lat="43.94491" lon="1.75671">
        <ele>191.44</ele>
        <time>2018-05-05T08:19:50Z</time>
      </trkpt>
      <trkpt lat="43.9451" lon="1.75666">
        <ele>191.44</ele>
        <time>2018-05-05T08:20:06Z</time>
      </trkpt>
      <trkpt lat="43.94531" lon="1.75662">
        <ele>190.96</ele>
        <time>2018-05-05T08:20:26Z</time>
      </trkpt>
      <trkpt lat="43.94556" lon="1.75647">
        <ele>191.92</ele>
        <time>2018-05-05T08:20:43Z</time>
      </trkpt>
      <trkpt lat="43.94576" lon="1.75641">
        <ele>191.92</ele>
        <time>2018-05-05T08:20:59Z</time>
      </trkpt>
      <trkpt lat="43.94586" lon="1.75636">
        <ele>191.92</ele>
        <time>2018-05-05T08:21:16Z</time>
      </trkpt>
      <trkpt lat="43.94597" lon="1.75629">
        <ele>192.4</ele>
        <time>2018-05-05T08:21:32Z</time>
      </trkpt>
      <trkpt lat="43.94605" lon="1.7563">
        <ele>192.4</ele>
        <time>2018-05-05T08:21:36Z</time>
      </trkpt>
      <trkpt lat="43.94621" lon="1.75637">
        <ele>191.44</ele>
        <time>2018-05-05T08:21:51Z</time>
      </trkpt>
      <trkpt lat="43.94631" lon="1.75633">
        <ele>190.96</ele>
        <time>2018-05-05T08:22:05Z</time>
      </trkpt>
      <trkpt lat="43.94651" lon="1.75635">
        <ele>189.52</ele>
        <time>2018-05-05T08:22:21Z</time>
      </trkpt>
      <trkpt lat="43.94666" lon="1.7564">
        <ele>188.56</ele>
        <time>2018-05-05T08:22:37Z</time>
      </trkpt>
      <trkpt lat="43.94672" lon="1.75649">
        <ele>187.11</ele>
        <time>2018-05-05T08:22:52Z</time>
      </trkpt>
      <trkpt lat="43.94675" lon="1.75652">
        <ele>186.63</ele>
        <time>2018-05-05T08:22:55Z</time>
      </trkpt>
      <trkpt lat="43.94684" lon="1.75656">
        <ele>185.67</ele>
        <time>2018-05-05T08:23:03Z</time>
      </trkpt>
      <trkpt lat="43.94703" lon="1.75657">
        <ele>185.19</ele>
        <time>2018-05-05T08:23:18Z</time>
      </trkpt>
      <trkpt lat="43.94716" lon="1.75659">
        <ele>184.71</ele>
        <time>2018-05-05T08:23:32Z</time>
      </trkpt>
      <trkpt lat="43.94733" lon="1.75655">
        <ele>184.23</ele>
        <time>2018-05-05T08:23:46Z</time>
      </trkpt>
      <trkpt lat="43.94744" lon="1.75651">
        <ele>184.23</ele>
        <time>2018-05-05T08:23:57Z</time>
      </trkpt>
      <trkpt lat="43.94753" lon="1.75648">
        <ele>184.23</ele>
        <time>2018-05-05T08:24:06Z</time>
      </trkpt>
      <trkpt lat="43.94772" lon="1.75645">
        <ele>183.27</ele>
        <time>2018-05-05T08:24:24Z</time>
      </trkpt>
      <trkpt lat="43.94784" lon="1.75638">
        <ele>184.23</ele>
        <time>2018-05-05T08:24:37Z</time>
      </trkpt>
      <trkpt lat="43.94785" lon="1.75626">
        <ele>184.71</ele>
        <time>2018-05-05T08:24:55Z</time>
      </trkpt>
      <trkpt lat="43.94779" lon="1.75617">
        <ele>189.52</ele>
        <time>2018-05-05T08:36:13Z</time>
      </trkpt>
      <trkpt lat="43.94766" lon="1.7561">
        <ele>191.44</ele>
        <time>2018-05-05T08:36:27Z</time>
      </trkpt>
      <trkpt lat="43.94758" lon="1.75604">
        <ele>192.88</ele>
        <time>2018-05-05T08:36:40Z</time>
      </trkpt>
      <trkpt lat="43.94746" lon="1.75597">
        <ele>195.28</ele>
        <time>2018-05-05T08:36:57Z</time>
      </trkpt>
      <trkpt lat="43.94741" lon="1.75584">
        <ele>198.65</ele>
        <time>2018-05-05T08:37:13Z</time>
      </trkpt>
      <trkpt lat="43.94733" lon="1.75564">
        <ele>201.53</ele>
        <time>2018-05-05T08:37:28Z</time>
      </trkpt>
      <trkpt lat="43.94727" lon="1.75553">
        <ele>203.46</ele>
        <time>2018-05-05T08:37:41Z</time>
      </trkpt>
      <trkpt lat="43.94721" lon="1.75536">
        <ele>204.9</ele>
        <time>2018-05-05T08:37:55Z</time>
      </trkpt>
      <trkpt lat="43.9471" lon="1.75521">
        <ele>206.82</ele>
        <time>2018-05-05T08:38:14Z</time>
      </trkpt>
      <trkpt lat="43.94699" lon="1.75507">
        <ele>208.74</ele>
        <time>2018-05-05T08:38:30Z</time>
      </trkpt>
      <trkpt lat="43.94692" lon="1.75495">
        <ele>209.7</ele>
        <time>2018-05-05T08:38:43Z</time>
      </trkpt>
      <trkpt lat="43.94684" lon="1.75476">
        <ele>211.63</ele>
        <time>2018-05-05T08:38:58Z</time>
      </trkpt>
      <trkpt lat="43.94685" lon="1.75459">
        <ele>213.07</ele>
        <time>2018-05-05T08:39:13Z</time>
      </trkpt>
      <trkpt lat="43.94679" lon="1.75447">
        <ele>214.99</ele>
        <time>2018-05-05T08:39:27Z</time>
      </trkpt>
      <trkpt lat="43.94666" lon="1.75432">
        <ele>216.91</ele>
        <time>2018-05-05T08:39:40Z</time>
      </trkpt>
      <trkpt lat="43.94659" lon="1.7542">
        <ele>218.84</ele>
        <time>2018-05-05T08:39:54Z</time>
      </trkpt>
      <trkpt lat="43.94653" lon="1.75407">
        <ele>221.24</ele>
        <time>2018-05-05T08:40:09Z</time>
      </trkpt>
      <trkpt lat="43.94646" lon="1.75393">
        <ele>223.16</ele>
        <time>2018-05-05T08:40:23Z</time>
      </trkpt>
      <trkpt lat="43.94642" lon="1.7538">
        <ele>225.09</ele>
        <time>2018-05-05T08:40:36Z</time>
      </trkpt>
      <trkpt lat="43.94639" lon="1.75364">
        <ele>226.05</ele>
        <time>2018-05-05T08:40:48Z</time>
      </trkpt>
      <trkpt lat="43.94635" lon="1.75343">
        <ele>227.49</ele>
        <time>2018-05-05T08:41:03Z</time>
      </trkpt>
      <trkpt lat="43.94629" lon="1.75326">
        <ele>228.93</ele>
        <time>2018-05-05T08:41:16Z</time>
      </trkpt>
      <trkpt lat="43.94621" lon="1.7531">
        <ele>230.37</ele>
        <time>2018-05-05T08:41:32Z</time>
      </trkpt>
      <trkpt lat="43.94608" lon="1.75294">
        <ele>232.3</ele>
        <time>2018-05-05T08:41:47Z</time>
      </trkpt>
      <trkpt lat="43.94597" lon="1.75291">
        <ele>234.7</ele>
        <time>2018-05-05T08:42:01Z</time>
      </trkpt>
      <trkpt lat="43.9458" lon="1.75298">
        <ele>236.14</ele>
        <time>2018-05-05T08:42:16Z</time>
      </trkpt>
      <trkpt lat="43.94566" lon="1.75297">
        <ele>237.58</ele>
        <time>2018-05-05T08:42:29Z</time>
      </trkpt>
      <trkpt lat="43.94566" lon="1.75297">
        <ele>237.58</ele>
        <time>2018-05-05T08:42:30Z</time>
      </trkpt>
      <trkpt lat="43.94554" lon="1.75301">
        <ele>239.02</ele>
        <time>2018-05-05T08:42:46Z</time>
      </trkpt>
      <trkpt lat="43.94542" lon="1.75295">
        <ele>240.47</ele>
        <time>2018-05-05T08:42:59Z</time>
      </trkpt>
      <trkpt lat="43.94533" lon="1.75292">
        <ele>241.91</ele>
        <time>2018-05-05T08:43:10Z</time>
      </trkpt>
      <trkpt lat="43.94523" lon="1.75284">
        <ele>243.35</ele>
        <time>2018-05-05T08:43:24Z</time>
      </trkpt>
      <trkpt lat="43.94508" lon="1.75275">
        <ele>245.27</ele>
        <time>2018-05-05T08:43:39Z</time>
      </trkpt>
      <trkpt lat="43.94492" lon="1.75269">
        <ele>246.23</ele>
        <time>2018-05-05T08:43:53Z</time>
      </trkpt>
      <trkpt lat="43.94479" lon="1.75262">
        <ele>247.68</ele>
        <time>2018-05-05T08:44:08Z</time>
      </trkpt>
      <trkpt lat="43.94467" lon="1.75259">
        <ele>249.6</ele>
        <time>2018-05-05T08:44:24Z</time>
      </trkpt>
      <trkpt lat="43.94455" lon="1.75259">
        <ele>251.04</ele>
        <time>2018-05-05T08:44:38Z</time>
      </trkpt>
      <trkpt lat="43.94437" lon="1.7526">
        <ele>252</ele>
        <time>2018-05-05T08:44:55Z</time>
      </trkpt>
      <trkpt lat="43.94425" lon="1.7526">
        <ele>252.48</ele>
        <time>2018-05-05T08:45:06Z</time>
      </trkpt>
      <trkpt lat="43.9441" lon="1.75256">
        <ele>252.96</ele>
        <time>2018-05-05T08:45:20Z</time>
      </trkpt>
      <trkpt lat="43.94394" lon="1.75249">
        <ele>252.96</ele>
        <time>2018-05-05T08:45:36Z</time>
      </trkpt>
      <trkpt lat="43.94383" lon="1.75242">
        <ele>252.48</ele>
        <time>2018-05-05T08:45:48Z</time>
      </trkpt>
      <trkpt lat="43.94368" lon="1.75236">
        <ele>252</ele>
        <time>2018-05-05T08:46:02Z</time>
      </trkpt>
      <trkpt lat="43.9435" lon="1.75232">
        <ele>252</ele>
        <time>2018-05-05T08:46:18Z</time>
      </trkpt>
      <trkpt lat="43.94336" lon="1.75225">
        <ele>252</ele>
        <time>2018-05-05T08:46:32Z</time>
      </trkpt>
      <trkpt lat="43.9432" lon="1.75208">
        <ele>252.96</ele>
        <time>2018-05-05T08:46:50Z</time>
      </trkpt>
      <trkpt lat="43.94307" lon="1.75197">
        <ele>253.93</ele>
        <time>2018-05-05T08:47:04Z</time>
      </trkpt>
      <trkpt lat="43.94299" lon="1.75184">
        <ele>254.41</ele>
        <time>2018-05-05T08:47:20Z</time>
      </trkpt>
      <trkpt lat="43.94288" lon="1.75168">
        <ele>254.89</ele>
        <time>2018-05-05T08:47:33Z</time>
      </trkpt>
      <trkpt lat="43.94278" lon="1.7516">
        <ele>255.37</ele>
        <time>2018-05-05T08:47:42Z</time>
      </trkpt>
      <trkpt lat="43.94267" lon="1.75146">
        <ele>255.85</ele>
        <time>2018-05-05T08:47:57Z</time>
      </trkpt>
      <trkpt lat="43.94256" lon="1.75124">
        <ele>255.85</ele>
        <time>2018-05-05T08:48:11Z</time>
      </trkpt>
      <trkpt lat="43.94249" lon="1.75107">
        <ele>256.33</ele>
        <time>2018-05-05T08:48:25Z</time>
      </trkpt>
      <trkpt lat="43.9425" lon="1.75089">
        <ele>256.81</ele>
        <time>2018-05-05T08:48:43Z</time>
      </trkpt>
      <trkpt lat="43.94249" lon="1.75067">
        <ele>257.77</ele>
        <time>2018-05-05T08:48:56Z</time>
      </trkpt>
      <trkpt lat="43.94242" lon="1.75041">
        <ele>258.25</ele>
        <time>2018-05-05T08:49:13Z</time>
      </trkpt>
      <trkpt lat="43.94241" lon="1.75022">
        <ele>259.21</ele>
        <time>2018-05-05T08:49:26Z</time>
      </trkpt>
      <trkpt lat="43.9424" lon="1.75">
        <ele>260.17</ele>
        <time>2018-05-05T08:49:40Z</time>
      </trkpt>
      <trkpt lat="43.94238" lon="1.74988">
        <ele>260.65</ele>
        <time>2018-05-05T08:50:02Z</time>
      </trkpt>
      <trkpt lat="43.94236" lon="1.74979">
        <ele>261.62</ele>
        <time>2018-05-05T08:50:24Z</time>
      </trkpt>
      <trkpt lat="43.94236" lon="1.74977">
        <ele>262.1</ele>
        <time>2018-05-05T08:50:41Z</time>
      </trkpt>
      <trkpt lat="43.94232" lon="1.74976">
        <ele>262.1</ele>
        <time>2018-05-05T08:51:02Z</time>
      </trkpt>
      <trkpt lat="43.94222" lon="1.74967">
        <ele>262.1</ele>
        <time>2018-05-05T08:51:17Z</time>
      </trkpt>
      <trkpt lat="43.94213" lon="1.7496">
        <ele>262.1</ele>
        <time>2018-05-05T08:51:31Z</time>
      </trkpt>
      <trkpt lat="43.94202" lon="1.74952">
        <ele>262.1</ele>
        <time>2018-05-05T08:51:45Z</time>
      </trkpt>
      <trkpt lat="43.94185" lon="1.74947">
        <ele>263.06</ele>
        <time>2018-05-05T08:51:59Z</time>
      </trkpt>
      <trkpt lat="43.94171" lon="1.74943">
        <ele>263.06</ele>
        <time>2018-05-05T08:52:15Z</time>
      </trkpt>
      <trkpt lat="43.94169" lon="1.74943">
        <ele>263.06</ele>
        <time>2018-05-05T08:52:17Z</time>
      </trkpt>
      <trkpt lat="43.94156" lon="1.7494">
        <ele>262.58</ele>
        <time>2018-05-05T08:52:29Z</time>
      </trkpt>
      <trkpt lat="43.94141" lon="1.74936">
        <ele>262.58</ele>
        <time>2018-05-05T08:52:45Z</time>
      </trkpt>
      <trkpt lat="43.94125" lon="1.74934">
        <ele>263.06</ele>
        <time>2018-05-05T08:53:00Z</time>
      </trkpt>
      <trkpt lat="43.94111" lon="1.7493">
        <ele>263.54</ele>
        <time>2018-05-05T08:53:13Z</time>
      </trkpt>
      <trkpt lat="43.94098" lon="1.7493">
        <ele>264.02</ele>
        <time>2018-05-05T08:53:27Z</time>
      </trkpt>
      <trkpt lat="43.94084" lon="1.74933">
        <ele>264.5</ele>
        <time>2018-05-05T08:53:40Z</time>
      </trkpt>
      <trkpt lat="43.94068" lon="1.7493">
        <ele>264.98</ele>
        <time>2018-05-05T08:53:54Z</time>
      </trkpt>
      <trkpt lat="43.94053" lon="1.7493">
        <ele>265.46</ele>
        <time>2018-05-05T08:54:08Z</time>
      </trkpt>
      <trkpt lat="43.94037" lon="1.74929">
        <ele>265.94</ele>
        <time>2018-05-05T08:54:22Z</time>
      </trkpt>
      <trkpt lat="43.9402" lon="1.74927">
        <ele>266.42</ele>
        <time>2018-05-05T08:54:38Z</time>
      </trkpt>
      <trkpt lat="43.94006" lon="1.74932">
        <ele>267.38</ele>
        <time>2018-05-05T08:54:53Z</time>
      </trkpt>
      <trkpt lat="43.93992" lon="1.74935">
        <ele>267.86</ele>
        <time>2018-05-05T08:55:07Z</time>
      </trkpt>
      <trkpt lat="43.93976" lon="1.74937">
        <ele>267.86</ele>
        <time>2018-05-05T08:55:25Z</time>
      </trkpt>
      <trkpt lat="43.9396" lon="1.74932">
        <ele>267.38</ele>
        <time>2018-05-05T08:55:42Z</time>
      </trkpt>
      <trkpt lat="43.93951" lon="1.74926">
        <ele>266.42</ele>
        <time>2018-05-05T08:55:58Z</time>
      </trkpt>
      <trkpt lat="43.93946" lon="1.74907">
        <ele>265.46</ele>
        <time>2018-05-05T08:56:13Z</time>
      </trkpt>
      <trkpt lat="43.93939" lon="1.74893">
        <ele>264.98</ele>
        <time>2018-05-05T08:56:28Z</time>
      </trkpt>
      <trkpt lat="43.93931" lon="1.74881">
        <ele>264.98</ele>
        <time>2018-05-05T08:56:42Z</time>
      </trkpt>
      <trkpt lat="43.93922" lon="1.74866">
        <ele>263.54</ele>
        <time>2018-05-05T08:56:57Z</time>
      </trkpt>
      <trkpt lat="43.9392" lon="1.74841">
        <ele>263.54</ele>
        <time>2018-05-05T08:57:13Z</time>
      </trkpt>
      <trkpt lat="43.93919" lon="1.74823">
        <ele>263.54</ele>
        <time>2018-05-05T08:57:26Z</time>
      </trkpt>
      <trkpt lat="43.9392" lon="1.748">
        <ele>264.02</ele>
        <time>2018-05-05T08:57:42Z</time>
      </trkpt>
      <trkpt lat="43.93919" lon="1.74779">
        <ele>263.54</ele>
        <time>2018-05-05T08:57:58Z</time>
      </trkpt>
      <trkpt lat="43.93921" lon="1.74757">
        <ele>263.06</ele>
        <time>2018-05-05T08:58:13Z</time>
      </trkpt>
      <trkpt lat="43.93922" lon="1.74733">
        <ele>263.54</ele>
        <time>2018-05-05T08:58:29Z</time>
      </trkpt>
      <trkpt lat="43.93923" lon="1.74713">
        <ele>264.5</ele>
        <time>2018-05-05T08:58:44Z</time>
      </trkpt>
      <trkpt lat="43.93927" lon="1.74692">
        <ele>264.98</ele>
        <time>2018-05-05T08:58:59Z</time>
      </trkpt>
      <trkpt lat="43.93928" lon="1.7467">
        <ele>265.46</ele>
        <time>2018-05-05T08:59:13Z</time>
      </trkpt>
      <trkpt lat="43.93921" lon="1.74651">
        <ele>265.94</ele>
        <time>2018-05-05T08:59:29Z</time>
      </trkpt>
      <trkpt lat="43.9391" lon="1.74648">
        <ele>265.46</ele>
        <time>2018-05-05T08:59:49Z</time>
      </trkpt>
      <trkpt lat="43.93903" lon="1.74657">
        <ele>265.46</ele>
        <time>2018-05-05T09:00:07Z</time>
      </trkpt>
      <trkpt lat="43.93897" lon="1.74666">
        <ele>263.54</ele>
        <time>2018-05-05T09:00:22Z</time>
      </trkpt>
      <trkpt lat="43.93891" lon="1.74677">
        <ele>261.62</ele>
        <time>2018-05-05T09:00:39Z</time>
      </trkpt>
      <trkpt lat="43.93889" lon="1.74687">
        <ele>259.21</ele>
        <time>2018-05-05T09:00:56Z</time>
      </trkpt>
      <trkpt lat="43.93881" lon="1.74703">
        <ele>256.33</ele>
        <time>2018-05-05T09:01:14Z</time>
      </trkpt>
      <trkpt lat="43.9387" lon="1.74715">
        <ele>254.41</ele>
        <time>2018-05-05T09:01:29Z</time>
      </trkpt>
      <trkpt lat="43.9386" lon="1.74733">
        <ele>252.96</ele>
        <time>2018-05-05T09:01:45Z</time>
      </trkpt>
      <trkpt lat="43.93855" lon="1.74754">
        <ele>252</ele>
        <time>2018-05-05T09:02:01Z</time>
      </trkpt>
      <trkpt lat="43.9385" lon="1.7477">
        <ele>250.56</ele>
        <time>2018-05-05T09:02:20Z</time>
      </trkpt>
      <trkpt lat="43.93843" lon="1.7479">
        <ele>248.16</ele>
        <time>2018-05-05T09:02:39Z</time>
      </trkpt>
      <trkpt lat="43.93837" lon="1.74803">
        <ele>246.23</ele>
        <time>2018-05-05T09:02:54Z</time>
      </trkpt>
      <trkpt lat="43.93832" lon="1.74823">
        <ele>245.27</ele>
        <time>2018-05-05T09:03:09Z</time>
      </trkpt>
      <trkpt lat="43.93827" lon="1.74838">
        <ele>243.83</ele>
        <time>2018-05-05T09:03:24Z</time>
      </trkpt>
      <trkpt lat="43.93821" lon="1.74856">
        <ele>242.87</ele>
        <time>2018-05-05T09:03:38Z</time>
      </trkpt>
      <trkpt lat="43.93816" lon="1.74874">
        <ele>241.91</ele>
        <time>2018-05-05T09:03:53Z</time>
      </trkpt>
      <trkpt lat="43.93805" lon="1.74887">
        <ele>241.43</ele>
        <time>2018-05-05T09:04:08Z</time>
      </trkpt>
      <trkpt lat="43.93792" lon="1.74901">
        <ele>240.47</ele>
        <time>2018-05-05T09:04:24Z</time>
      </trkpt>
      <trkpt lat="43.93781" lon="1.74902">
        <ele>239.51</ele>
        <time>2018-05-05T09:04:37Z</time>
      </trkpt>
      <trkpt lat="43.93774" lon="1.74902">
        <ele>239.51</ele>
        <time>2018-05-05T09:04:44Z</time>
      </trkpt>
      <trkpt lat="43.93765" lon="1.74906">
        <ele>240.47</ele>
        <time>2018-05-05T09:04:57Z</time>
      </trkpt>
      <trkpt lat="43.9375" lon="1.74916">
        <ele>239.02</ele>
        <time>2018-05-05T09:05:13Z</time>
      </trkpt>
      <trkpt lat="43.93739" lon="1.74924">
        <ele>238.06</ele>
        <time>2018-05-05T09:05:29Z</time>
      </trkpt>
      <trkpt lat="43.93728" lon="1.74939">
        <ele>235.66</ele>
        <time>2018-05-05T09:05:41Z</time>
      </trkpt>
      <trkpt lat="43.93715" lon="1.74953">
        <ele>235.18</ele>
        <time>2018-05-05T09:06:01Z</time>
      </trkpt>
      <trkpt lat="43.93701" lon="1.74967">
        <ele>235.18</ele>
        <time>2018-05-05T09:06:18Z</time>
      </trkpt>
      <trkpt lat="43.9369" lon="1.74978">
        <ele>234.7</ele>
        <time>2018-05-05T09:06:35Z</time>
      </trkpt>
      <trkpt lat="43.93676" lon="1.7498">
        <ele>233.26</ele>
        <time>2018-05-05T09:06:49Z</time>
      </trkpt>
      <trkpt lat="43.93661" lon="1.74979">
        <ele>232.3</ele>
        <time>2018-05-05T09:07:04Z</time>
      </trkpt>
      <trkpt lat="43.93645" lon="1.74981">
        <ele>230.85</ele>
        <time>2018-05-05T09:07:20Z</time>
      </trkpt>
      <trkpt lat="43.93629" lon="1.74989">
        <ele>229.41</ele>
        <time>2018-05-05T09:07:37Z</time>
      </trkpt>
      <trkpt lat="43.93626" lon="1.75007">
        <ele>228.45</ele>
        <time>2018-05-05T09:07:52Z</time>
      </trkpt>
      <trkpt lat="43.93614" lon="1.75021">
        <ele>228.45</ele>
        <time>2018-05-05T09:08:07Z</time>
      </trkpt>
      <trkpt lat="43.93603" lon="1.75032">
        <ele>228.45</ele>
        <time>2018-05-05T09:08:24Z</time>
      </trkpt>
      <trkpt lat="43.93589" lon="1.75039">
        <ele>226.53</ele>
        <time>2018-05-05T09:08:39Z</time>
      </trkpt>
      <trkpt lat="43.93574" lon="1.75055">
        <ele>226.53</ele>
        <time>2018-05-05T09:08:56Z</time>
      </trkpt>
      <trkpt lat="43.93563" lon="1.75065">
        <ele>226.05</ele>
        <time>2018-05-05T09:09:12Z</time>
      </trkpt>
      <trkpt lat="43.93554" lon="1.75074">
        <ele>226.05</ele>
        <time>2018-05-05T09:09:28Z</time>
      </trkpt>
      <trkpt lat="43.93542" lon="1.75086">
        <ele>225.57</ele>
        <time>2018-05-05T09:09:47Z</time>
      </trkpt>
      <trkpt lat="43.93528" lon="1.75096">
        <ele>224.12</ele>
        <time>2018-05-05T09:10:02Z</time>
      </trkpt>
      <trkpt lat="43.93511" lon="1.75105">
        <ele>223.64</ele>
        <time>2018-05-05T09:10:17Z</time>
      </trkpt>
      <trkpt lat="43.93497" lon="1.75114">
        <ele>223.16</ele>
        <time>2018-05-05T09:10:32Z</time>
      </trkpt>
      <trkpt lat="43.93478" lon="1.75122">
        <ele>221.72</ele>
        <time>2018-05-05T09:10:50Z</time>
      </trkpt>
      <trkpt lat="43.93475" lon="1.75124">
        <ele>221.72</ele>
        <time>2018-05-05T09:10:54Z</time>
      </trkpt>
      <trkpt lat="43.93465" lon="1.75136">
        <ele>220.76</ele>
        <time>2018-05-05T09:11:07Z</time>
      </trkpt>
      <trkpt lat="43.93453" lon="1.75149">
        <ele>220.76</ele>
        <time>2018-05-05T09:11:21Z</time>
      </trkpt>
      <trkpt lat="43.93438" lon="1.75164">
        <ele>219.8</ele>
        <time>2018-05-05T09:11:37Z</time>
      </trkpt>
      <trkpt lat="43.93429" lon="1.75178">
        <ele>219.32</ele>
        <time>2018-05-05T09:11:52Z</time>
      </trkpt>
      <trkpt lat="43.93423" lon="1.75199">
        <ele>220.28</ele>
        <time>2018-05-05T09:12:10Z</time>
      </trkpt>
      <trkpt lat="43.93416" lon="1.75213">
        <ele>220.28</ele>
        <time>2018-05-05T09:12:23Z</time>
      </trkpt>
      <trkpt lat="43.93406" lon="1.75226">
        <ele>220.28</ele>
        <time>2018-05-05T09:12:37Z</time>
      </trkpt>
      <trkpt lat="43.93393" lon="1.75239">
        <ele>219.32</ele>
        <time>2018-05-05T09:12:53Z</time>
      </trkpt>
      <trkpt lat="43.93387" lon="1.75243">
        <ele>218.84</ele>
        <time>2018-05-05T09:12:59Z</time>
      </trkpt>
      <trkpt lat="43.93375" lon="1.75249">
        <ele>218.36</ele>
        <time>2018-05-05T09:13:14Z</time>
      </trkpt>
      <trkpt lat="43.93375" lon="1.7525">
        <ele>218.36</ele>
        <time>2018-05-05T09:13:15Z</time>
      </trkpt>
      <trkpt lat="43.9336" lon="1.75256">
        <ele>216.91</ele>
        <time>2018-05-05T09:13:31Z</time>
      </trkpt>
      <trkpt lat="43.93344" lon="1.75252">
        <ele>216.91</ele>
        <time>2018-05-05T09:13:47Z</time>
      </trkpt>
      <trkpt lat="43.93331" lon="1.75247">
        <ele>216.43</ele>
        <time>2018-05-05T09:14:02Z</time>
      </trkpt>
      <trkpt lat="43.93318" lon="1.75249">
        <ele>217.88</ele>
        <time>2018-05-05T09:14:19Z</time>
      </trkpt>
      <trkpt lat="43.93307" lon="1.75231">
        <ele>217.88</ele>
        <time>2018-05-05T09:14:36Z</time>
      </trkpt>
      <trkpt lat="43.93289" lon="1.75225">
        <ele>217.88</ele>
        <time>2018-05-05T09:14:56Z</time>
      </trkpt>
      <trkpt lat="43.9328" lon="1.7522">
        <ele>218.36</ele>
        <time>2018-05-05T09:15:14Z</time>
      </trkpt>
      <trkpt lat="43.93262" lon="1.75212">
        <ele>218.84</ele>
        <time>2018-05-05T09:15:32Z</time>
      </trkpt>
      <trkpt lat="43.93252" lon="1.7521">
        <ele>220.28</ele>
        <time>2018-05-05T09:15:49Z</time>
      </trkpt>
      <trkpt lat="43.93243" lon="1.75201">
        <ele>220.76</ele>
        <time>2018-05-05T09:16:03Z</time>
      </trkpt>
      <trkpt lat="43.93237" lon="1.75188">
        <ele>221.24</ele>
        <time>2018-05-05T09:16:22Z</time>
      </trkpt>
      <trkpt lat="43.9323" lon="1.75171">
        <ele>219.8</ele>
        <time>2018-05-05T09:16:39Z</time>
      </trkpt>
      <trkpt lat="43.93222" lon="1.75163">
        <ele>219.8</ele>
        <time>2018-05-05T09:16:54Z</time>
      </trkpt>
      <trkpt lat="43.93214" lon="1.75148">
        <ele>218.36</ele>
        <time>2018-05-05T09:17:10Z</time>
      </trkpt>
      <trkpt lat="43.93205" lon="1.7513">
        <ele>218.84</ele>
        <time>2018-05-05T09:17:25Z</time>
      </trkpt>
      <trkpt lat="43.93196" lon="1.75118">
        <ele>218.84</ele>
        <time>2018-05-05T09:17:41Z</time>
      </trkpt>
      <trkpt lat="43.93192" lon="1.751">
        <ele>216.91</ele>
        <time>2018-05-05T09:17:54Z</time>
      </trkpt>
      <trkpt lat="43.93186" lon="1.75087">
        <ele>216.91</ele>
        <time>2018-05-05T09:18:10Z</time>
      </trkpt>
      <trkpt lat="43.93178" lon="1.75076">
        <ele>216.91</ele>
        <time>2018-05-05T09:18:21Z</time>
      </trkpt>
      <trkpt lat="43.93164" lon="1.75062">
        <ele>216.43</ele>
        <time>2018-05-05T09:18:38Z</time>
      </trkpt>
      <trkpt lat="43.93156" lon="1.75052">
        <ele>215.95</ele>
        <time>2018-05-05T09:18:55Z</time>
      </trkpt>
      <trkpt lat="43.93154" lon="1.75048">
        <ele>215.95</ele>
        <time>2018-05-05T09:19:14Z</time>
      </trkpt>
      <trkpt lat="43.93152" lon="1.75046">
        <ele>215.95</ele>
        <time>2018-05-05T09:20:01Z</time>
      </trkpt>
      <trkpt lat="43.93143" lon="1.75043">
        <ele>219.32</ele>
        <time>2018-05-05T09:33:29Z</time>
      </trkpt>
      <trkpt lat="43.93128" lon="1.75035">
        <ele>220.28</ele>
        <time>2018-05-05T09:33:46Z</time>
      </trkpt>
      <trkpt lat="43.93114" lon="1.75036">
        <ele>221.24</ele>
        <time>2018-05-05T09:33:59Z</time>
      </trkpt>
      <trkpt lat="43.9311" lon="1.75036">
        <ele>221.72</ele>
        <time>2018-05-05T09:34:02Z</time>
      </trkpt>
      <trkpt lat="43.93095" lon="1.75044">
        <ele>222.2</ele>
        <time>2018-05-05T09:34:17Z</time>
      </trkpt>
      <trkpt lat="43.9308" lon="1.75055">
        <ele>223.64</ele>
        <time>2018-05-05T09:34:34Z</time>
      </trkpt>
      <trkpt lat="43.93067" lon="1.75064">
        <ele>224.61</ele>
        <time>2018-05-05T09:34:46Z</time>
      </trkpt>
      <trkpt lat="43.93058" lon="1.75076">
        <ele>225.57</ele>
        <time>2018-05-05T09:34:59Z</time>
      </trkpt>
      <trkpt lat="43.93053" lon="1.75081">
        <ele>226.53</ele>
        <time>2018-05-05T09:35:06Z</time>
      </trkpt>
      <trkpt lat="43.9305" lon="1.75086">
        <ele>227.01</ele>
        <time>2018-05-05T09:35:10Z</time>
      </trkpt>
      <trkpt lat="43.93046" lon="1.75108">
        <ele>228.45</ele>
        <time>2018-05-05T09:35:25Z</time>
      </trkpt>
      <trkpt lat="43.93043" lon="1.75132">
        <ele>229.41</ele>
        <time>2018-05-05T09:35:40Z</time>
      </trkpt>
      <trkpt lat="43.9304" lon="1.75154">
        <ele>231.33</ele>
        <time>2018-05-05T09:35:58Z</time>
      </trkpt>
      <trkpt lat="43.93037" lon="1.75178">
        <ele>232.78</ele>
        <time>2018-05-05T09:36:14Z</time>
      </trkpt>
      <trkpt lat="43.93036" lon="1.75201">
        <ele>233.74</ele>
        <time>2018-05-05T09:36:31Z</time>
      </trkpt>
      <trkpt lat="43.9304" lon="1.7522">
        <ele>235.18</ele>
        <time>2018-05-05T09:36:47Z</time>
      </trkpt>
      <trkpt lat="43.93045" lon="1.75236">
        <ele>236.14</ele>
        <time>2018-05-05T09:37:03Z</time>
      </trkpt>
      <trkpt lat="43.93049" lon="1.75261">
        <ele>237.58</ele>
        <time>2018-05-05T09:37:20Z</time>
      </trkpt>
      <trkpt lat="43.93051" lon="1.75285">
        <ele>239.02</ele>
        <time>2018-05-05T09:37:34Z</time>
      </trkpt>
      <trkpt lat="43.93052" lon="1.7529">
        <ele>239.51</ele>
        <time>2018-05-05T09:37:37Z</time>
      </trkpt>
      <trkpt lat="43.93051" lon="1.7531">
        <ele>240.95</ele>
        <time>2018-05-05T09:37:51Z</time>
      </trkpt>
      <trkpt lat="43.93045" lon="1.7533">
        <ele>242.39</ele>
        <time>2018-05-05T09:38:08Z</time>
      </trkpt>
      <trkpt lat="43.93042" lon="1.75351">
        <ele>242.87</ele>
        <time>2018-05-05T09:38:22Z</time>
      </trkpt>
      <trkpt lat="43.93042" lon="1.75361">
        <ele>243.35</ele>
        <time>2018-05-05T09:38:30Z</time>
      </trkpt>
      <trkpt lat="43.93045" lon="1.75375">
        <ele>244.31</ele>
        <time>2018-05-05T09:38:43Z</time>
      </trkpt>
      <trkpt lat="43.93043" lon="1.75394">
        <ele>244.79</ele>
        <time>2018-05-05T09:38:56Z</time>
      </trkpt>
      <trkpt lat="43.9304" lon="1.75413">
        <ele>246.72</ele>
        <time>2018-05-05T09:39:12Z</time>
      </trkpt>
      <trkpt lat="43.93031" lon="1.75431">
        <ele>248.64</ele>
        <time>2018-05-05T09:39:29Z</time>
      </trkpt>
      <trkpt lat="43.93024" lon="1.75443">
        <ele>249.6</ele>
        <time>2018-05-05T09:39:42Z</time>
      </trkpt>
      <trkpt lat="43.93015" lon="1.75464">
        <ele>251.04</ele>
        <time>2018-05-05T09:39:58Z</time>
      </trkpt>
      <trkpt lat="43.93006" lon="1.75477">
        <ele>252.48</ele>
        <time>2018-05-05T09:40:11Z</time>
      </trkpt>
      <trkpt lat="43.92992" lon="1.75485">
        <ele>253.44</ele>
        <time>2018-05-05T09:40:25Z</time>
      </trkpt>
      <trkpt lat="43.92978" lon="1.75485">
        <ele>254.89</ele>
        <time>2018-05-05T09:40:39Z</time>
      </trkpt>
      <trkpt lat="43.92963" lon="1.75482">
        <ele>256.33</ele>
        <time>2018-05-05T09:40:53Z</time>
      </trkpt>
      <trkpt lat="43.92952" lon="1.75477">
        <ele>257.29</ele>
        <time>2018-05-05T09:41:03Z</time>
      </trkpt>
      <trkpt lat="43.92936" lon="1.75483">
        <ele>258.25</ele>
        <time>2018-05-05T09:41:19Z</time>
      </trkpt>
      <trkpt lat="43.92934" lon="1.75484">
        <ele>258.73</ele>
        <time>2018-05-05T09:41:21Z</time>
      </trkpt>
      <trkpt lat="43.92922" lon="1.75498">
        <ele>259.69</ele>
        <time>2018-05-05T09:41:37Z</time>
      </trkpt>
      <trkpt lat="43.92913" lon="1.75515">
        <ele>260.65</ele>
        <time>2018-05-05T09:41:51Z</time>
      </trkpt>
      <trkpt lat="43.92902" lon="1.75536">
        <ele>262.1</ele>
        <time>2018-05-05T09:42:07Z</time>
      </trkpt>
      <trkpt lat="43.92901" lon="1.75538">
        <ele>262.1</ele>
        <time>2018-05-05T09:42:09Z</time>
      </trkpt>
      <trkpt lat="43.92891" lon="1.75559">
        <ele>263.54</ele>
        <time>2018-05-05T09:42:27Z</time>
      </trkpt>
      <trkpt lat="43.92888" lon="1.75568">
        <ele>264.02</ele>
        <time>2018-05-05T09:42:33Z</time>
      </trkpt>
      <trkpt lat="43.92885" lon="1.75591">
        <ele>264.5</ele>
        <time>2018-05-05T09:42:49Z</time>
      </trkpt>
      <trkpt lat="43.92877" lon="1.75605">
        <ele>264.98</ele>
        <time>2018-05-05T09:48:05Z</time>
      </trkpt>
      <trkpt lat="43.92863" lon="1.75599">
        <ele>264.5</ele>
        <time>2018-05-05T09:48:19Z</time>
      </trkpt>
      <trkpt lat="43.9286" lon="1.756">
        <ele>264.02</ele>
        <time>2018-05-05T09:48:22Z</time>
      </trkpt>
      <trkpt lat="43.92845" lon="1.75593">
        <ele>263.54</ele>
        <time>2018-05-05T09:48:37Z</time>
      </trkpt>
      <trkpt lat="43.92827" lon="1.75586">
        <ele>263.06</ele>
        <time>2018-05-05T09:48:53Z</time>
      </trkpt>
      <trkpt lat="43.92813" lon="1.7558">
        <ele>262.58</ele>
        <time>2018-05-05T09:49:07Z</time>
      </trkpt>
      <trkpt lat="43.92799" lon="1.75574">
        <ele>262.58</ele>
        <time>2018-05-05T09:49:20Z</time>
      </trkpt>
      <trkpt lat="43.9278" lon="1.75572">
        <ele>263.06</ele>
        <time>2018-05-05T09:49:35Z</time>
      </trkpt>
      <trkpt lat="43.92764" lon="1.75571">
        <ele>263.06</ele>
        <time>2018-05-05T09:49:49Z</time>
      </trkpt>
      <trkpt lat="43.92748" lon="1.75567">
        <ele>263.06</ele>
        <time>2018-05-05T09:50:04Z</time>
      </trkpt>
      <trkpt lat="43.92734" lon="1.75563">
        <ele>262.58</ele>
        <time>2018-05-05T09:50:18Z</time>
      </trkpt>
      <trkpt lat="43.92719" lon="1.75557">
        <ele>261.62</ele>
        <time>2018-05-05T09:50:32Z</time>
      </trkpt>
      <trkpt lat="43.927" lon="1.75551">
        <ele>260.17</ele>
        <time>2018-05-05T09:50:47Z</time>
      </trkpt>
      <trkpt lat="43.92685" lon="1.75544">
        <ele>259.21</ele>
        <time>2018-05-05T09:51:00Z</time>
      </trkpt>
      <trkpt lat="43.92668" lon="1.75534">
        <ele>258.25</ele>
        <time>2018-05-05T09:51:16Z</time>
      </trkpt>
      <trkpt lat="43.92654" lon="1.75526">
        <ele>257.29</ele>
        <time>2018-05-05T09:51:30Z</time>
      </trkpt>
      <trkpt lat="43.92652" lon="1.75525">
        <ele>257.29</ele>
        <time>2018-05-05T09:51:32Z</time>
      </trkpt>
      <trkpt lat="43.92635" lon="1.7551">
        <ele>256.81</ele>
        <time>2018-05-05T09:51:49Z</time>
      </trkpt>
      <trkpt lat="43.92619" lon="1.75497">
        <ele>256.81</ele>
        <time>2018-05-05T09:52:05Z</time>
      </trkpt>
      <trkpt lat="43.92604" lon="1.75484">
        <ele>256.33</ele>
        <time>2018-05-05T09:52:20Z</time>
      </trkpt>
      <trkpt lat="43.92591" lon="1.75472">
        <ele>256.81</ele>
        <time>2018-05-05T09:52:34Z</time>
      </trkpt>
      <trkpt lat="43.92574" lon="1.75461">
        <ele>256.81</ele>
        <time>2018-05-05T09:52:49Z</time>
      </trkpt>
      <trkpt lat="43.92555" lon="1.75452">
        <ele>256.81</ele>
        <time>2018-05-05T09:53:04Z</time>
      </trkpt>
      <trkpt lat="43.92542" lon="1.75447">
        <ele>257.77</ele>
        <time>2018-05-05T09:53:17Z</time>
      </trkpt>
      <trkpt lat="43.92527" lon="1.75441">
        <ele>258.73</ele>
        <time>2018-05-05T09:53:31Z</time>
      </trkpt>
      <trkpt lat="43.92523" lon="1.75439">
        <ele>258.73</ele>
        <time>2018-05-05T09:53:36Z</time>
      </trkpt>
      <trkpt lat="43.92507" lon="1.75431">
        <ele>259.69</ele>
        <time>2018-05-05T09:53:51Z</time>
      </trkpt>
      <trkpt lat="43.92488" lon="1.75425">
        <ele>258.73</ele>
        <time>2018-05-05T09:54:06Z</time>
      </trkpt>
      <trkpt lat="43.92469" lon="1.75417">
        <ele>257.29</ele>
        <time>2018-05-05T09:54:24Z</time>
      </trkpt>
      <trkpt lat="43.92452" lon="1.75414">
        <ele>257.29</ele>
        <time>2018-05-05T09:54:39Z</time>
      </trkpt>
      <trkpt lat="43.92442" lon="1.75408">
        <ele>257.29</ele>
        <time>2018-05-05T09:54:48Z</time>
      </trkpt>
      <trkpt lat="43.92427" lon="1.75399">
        <ele>257.29</ele>
        <time>2018-05-05T09:55:01Z</time>
      </trkpt>
      <trkpt lat="43.92408" lon="1.75392">
        <ele>256.33</ele>
        <time>2018-05-05T09:55:19Z</time>
      </trkpt>
      <trkpt lat="43.92393" lon="1.75386">
        <ele>255.85</ele>
        <time>2018-05-05T09:55:32Z</time>
      </trkpt>
      <trkpt lat="43.92375" lon="1.75385">
        <ele>255.85</ele>
        <time>2018-05-05T09:55:48Z</time>
      </trkpt>
      <trkpt lat="43.92362" lon="1.75387">
        <ele>255.85</ele>
        <time>2018-05-05T09:56:01Z</time>
      </trkpt>
      <trkpt lat="43.92342" lon="1.75393">
        <ele>255.85</ele>
        <time>2018-05-05T09:56:18Z</time>
      </trkpt>
      <trkpt lat="43.92336" lon="1.75393">
        <ele>256.33</ele>
        <time>2018-05-05T09:56:23Z</time>
      </trkpt>
      <trkpt lat="43.92331" lon="1.75395">
        <ele>256.33</ele>
        <time>2018-05-05T09:56:27Z</time>
      </trkpt>
      <trkpt lat="43.92312" lon="1.75396">
        <ele>256.33</ele>
        <time>2018-05-05T09:56:44Z</time>
      </trkpt>
      <trkpt lat="43.92293" lon="1.75394">
        <ele>256.81</ele>
        <time>2018-05-05T09:57:01Z</time>
      </trkpt>
      <trkpt lat="43.92288" lon="1.75394">
        <ele>256.81</ele>
        <time>2018-05-05T09:57:06Z</time>
      </trkpt>
      <trkpt lat="43.92268" lon="1.75396">
        <ele>257.29</ele>
        <time>2018-05-05T09:57:24Z</time>
      </trkpt>
      <trkpt lat="43.9225" lon="1.75397">
        <ele>257.29</ele>
        <time>2018-05-05T09:57:40Z</time>
      </trkpt>
      <trkpt lat="43.92236" lon="1.75402">
        <ele>257.29</ele>
        <time>2018-05-05T09:57:54Z</time>
      </trkpt>
      <trkpt lat="43.92226" lon="1.75405">
        <ele>256.33</ele>
        <time>2018-05-05T09:58:11Z</time>
      </trkpt>
      <trkpt lat="43.92225" lon="1.75406">
        <ele>256.33</ele>
        <time>2018-05-05T09:58:13Z</time>
      </trkpt>
      <trkpt lat="43.92222" lon="1.75405">
        <ele>256.33</ele>
        <time>2018-05-05T09:58:16Z</time>
      </trkpt>
      <trkpt lat="43.92207" lon="1.75406">
        <ele>255.37</ele>
        <time>2018-05-05T09:58:30Z</time>
      </trkpt>
      <trkpt lat="43.92198" lon="1.75407">
        <ele>254.41</ele>
        <time>2018-05-05T09:58:38Z</time>
      </trkpt>
      <trkpt lat="43.9218" lon="1.75408">
        <ele>253.93</ele>
        <time>2018-05-05T09:58:54Z</time>
      </trkpt>
      <trkpt lat="43.92168" lon="1.75411">
        <ele>253.44</ele>
        <time>2018-05-05T09:59:07Z</time>
      </trkpt>
      <trkpt lat="43.92156" lon="1.75414">
        <ele>253.44</ele>
        <time>2018-05-05T09:59:21Z</time>
      </trkpt>
      <trkpt lat="43.92144" lon="1.7542">
        <ele>252.96</ele>
        <time>2018-05-05T09:59:34Z</time>
      </trkpt>
      <trkpt lat="43.92132" lon="1.75426">
        <ele>252.48</ele>
        <time>2018-05-05T09:59:48Z</time>
      </trkpt>
      <trkpt lat="43.92117" lon="1.75434">
        <ele>252.48</ele>
        <time>2018-05-05T10:00:02Z</time>
      </trkpt>
      <trkpt lat="43.92107" lon="1.75438">
        <ele>252.48</ele>
        <time>2018-05-05T10:00:11Z</time>
      </trkpt>
      <trkpt lat="43.92104" lon="1.75439">
        <ele>252.48</ele>
        <time>2018-05-05T10:00:13Z</time>
      </trkpt>
      <trkpt lat="43.92087" lon="1.75446">
        <ele>252.48</ele>
        <time>2018-05-05T10:00:28Z</time>
      </trkpt>
      <trkpt lat="43.92072" lon="1.75451">
        <ele>252</ele>
        <time>2018-05-05T10:00:41Z</time>
      </trkpt>
      <trkpt lat="43.92063" lon="1.75454">
        <ele>252</ele>
        <time>2018-05-05T10:00:50Z</time>
      </trkpt>
      <trkpt lat="43.9206" lon="1.75456">
        <ele>252</ele>
        <time>2018-05-05T10:00:53Z</time>
      </trkpt>
      <trkpt lat="43.92046" lon="1.75465">
        <ele>251.52</ele>
        <time>2018-05-05T10:01:08Z</time>
      </trkpt>
      <trkpt lat="43.92032" lon="1.75472">
        <ele>251.04</ele>
        <time>2018-05-05T10:01:22Z</time>
      </trkpt>
      <trkpt lat="43.9202" lon="1.75478">
        <ele>251.04</ele>
        <time>2018-05-05T10:01:35Z</time>
      </trkpt>
      <trkpt lat="43.92008" lon="1.75486">
        <ele>251.04</ele>
        <time>2018-05-05T10:01:49Z</time>
      </trkpt>
      <trkpt lat="43.91992" lon="1.75497">
        <ele>250.56</ele>
        <time>2018-05-05T10:02:04Z</time>
      </trkpt>
      <trkpt lat="43.9198" lon="1.75504">
        <ele>250.56</ele>
        <time>2018-05-05T10:02:18Z</time>
      </trkpt>
      <trkpt lat="43.91966" lon="1.75513">
        <ele>250.56</ele>
        <time>2018-05-05T10:02:35Z</time>
      </trkpt>
      <trkpt lat="43.91948" lon="1.75529">
        <ele>251.04</ele>
        <time>2018-05-05T10:02:51Z</time>
      </trkpt>
      <trkpt lat="43.91933" lon="1.75536">
        <ele>251.04</ele>
        <time>2018-05-05T10:03:04Z</time>
      </trkpt>
      <trkpt lat="43.91915" lon="1.75543">
        <ele>250.56</ele>
        <time>2018-05-05T10:03:21Z</time>
      </trkpt>
      <trkpt lat="43.91898" lon="1.75547">
        <ele>250.08</ele>
        <time>2018-05-05T10:03:37Z</time>
      </trkpt>
      <trkpt lat="43.9188" lon="1.75548">
        <ele>249.6</ele>
        <time>2018-05-05T10:03:53Z</time>
      </trkpt>
      <trkpt lat="43.91861" lon="1.7555">
        <ele>249.12</ele>
        <time>2018-05-05T10:04:10Z</time>
      </trkpt>
      <trkpt lat="43.91842" lon="1.75549">
        <ele>248.16</ele>
        <time>2018-05-05T10:04:26Z</time>
      </trkpt>
      <trkpt lat="43.91838" lon="1.75547">
        <ele>247.68</ele>
        <time>2018-05-05T10:04:30Z</time>
      </trkpt>
      <trkpt lat="43.9182" lon="1.7554">
        <ele>245.75</ele>
        <time>2018-05-05T10:04:48Z</time>
      </trkpt>
      <trkpt lat="43.91805" lon="1.75539">
        <ele>244.31</ele>
        <time>2018-05-05T10:05:00Z</time>
      </trkpt>
      <trkpt lat="43.91796" lon="1.75538">
        <ele>243.83</ele>
        <time>2018-05-05T10:05:09Z</time>
      </trkpt>
      <trkpt lat="43.91782" lon="1.75543">
        <ele>241.91</ele>
        <time>2018-05-05T10:05:23Z</time>
      </trkpt>
      <trkpt lat="43.91768" lon="1.75551">
        <ele>240.95</ele>
        <time>2018-05-05T10:05:37Z</time>
      </trkpt>
      <trkpt lat="43.91759" lon="1.75554">
        <ele>239.99</ele>
        <time>2018-05-05T10:05:44Z</time>
      </trkpt>
      <trkpt lat="43.91741" lon="1.75561">
        <ele>239.02</ele>
        <time>2018-05-05T10:06:01Z</time>
      </trkpt>
      <trkpt lat="43.91731" lon="1.75566">
        <ele>238.54</ele>
        <time>2018-05-05T10:06:10Z</time>
      </trkpt>
      <trkpt lat="43.91712" lon="1.75573">
        <ele>237.58</ele>
        <time>2018-05-05T10:06:27Z</time>
      </trkpt>
      <trkpt lat="43.91697" lon="1.75575">
        <ele>237.1</ele>
        <time>2018-05-05T10:06:40Z</time>
      </trkpt>
      <trkpt lat="43.91681" lon="1.75577">
        <ele>236.14</ele>
        <time>2018-05-05T10:06:54Z</time>
      </trkpt>
      <trkpt lat="43.91664" lon="1.75569">
        <ele>236.14</ele>
        <time>2018-05-05T10:07:10Z</time>
      </trkpt>
      <trkpt lat="43.91651" lon="1.75559">
        <ele>235.66</ele>
        <time>2018-05-05T10:07:23Z</time>
      </trkpt>
      <trkpt lat="43.91633" lon="1.75543">
        <ele>234.7</ele>
        <time>2018-05-05T10:07:41Z</time>
      </trkpt>
      <trkpt lat="43.91617" lon="1.75536">
        <ele>233.26</ele>
        <time>2018-05-05T10:07:57Z</time>
      </trkpt>
      <trkpt lat="43.91602" lon="1.75531">
        <ele>231.33</ele>
        <time>2018-05-05T10:08:12Z</time>
      </trkpt>
      <trkpt lat="43.91587" lon="1.75522">
        <ele>230.37</ele>
        <time>2018-05-05T10:08:27Z</time>
      </trkpt>
      <trkpt lat="43.91573" lon="1.75513">
        <ele>229.41</ele>
        <time>2018-05-05T10:08:41Z</time>
      </trkpt>
      <trkpt lat="43.91556" lon="1.75508">
        <ele>228.45</ele>
        <time>2018-05-05T10:08:54Z</time>
      </trkpt>
      <trkpt lat="43.91541" lon="1.7552">
        <ele>227.01</ele>
        <time>2018-05-05T10:09:09Z</time>
      </trkpt>
      <trkpt lat="43.91528" lon="1.7553">
        <ele>225.57</ele>
        <time>2018-05-05T10:09:25Z</time>
      </trkpt>
      <trkpt lat="43.91515" lon="1.7554">
        <ele>225.09</ele>
        <time>2018-05-05T10:09:38Z</time>
      </trkpt>
      <trkpt lat="43.91498" lon="1.75547">
        <ele>223.64</ele>
        <time>2018-05-05T10:09:52Z</time>
      </trkpt>
      <trkpt lat="43.91482" lon="1.7555">
        <ele>222.2</ele>
        <time>2018-05-05T10:10:06Z</time>
      </trkpt>
      <trkpt lat="43.91465" lon="1.75561">
        <ele>220.76</ele>
        <time>2018-05-05T10:10:22Z</time>
      </trkpt>
      <trkpt lat="43.91453" lon="1.75571">
        <ele>218.84</ele>
        <time>2018-05-05T10:10:37Z</time>
      </trkpt>
      <trkpt lat="43.91448" lon="1.75582">
        <ele>217.4</ele>
        <time>2018-05-05T10:10:55Z</time>
      </trkpt>
      <trkpt lat="43.91439" lon="1.75602">
        <ele>215.47</ele>
        <time>2018-05-05T10:11:10Z</time>
      </trkpt>
      <trkpt lat="43.91429" lon="1.75619">
        <ele>213.55</ele>
        <time>2018-05-05T10:11:25Z</time>
      </trkpt>
      <trkpt lat="43.91419" lon="1.7563">
        <ele>212.11</ele>
        <time>2018-05-05T10:11:38Z</time>
      </trkpt>
      <trkpt lat="43.91407" lon="1.75637">
        <ele>210.67</ele>
        <time>2018-05-05T10:11:52Z</time>
      </trkpt>
      <trkpt lat="43.91389" lon="1.75643">
        <ele>209.22</ele>
        <time>2018-05-05T10:12:10Z</time>
      </trkpt>
      <trkpt lat="43.9137" lon="1.75648">
        <ele>207.3</ele>
        <time>2018-05-05T10:12:29Z</time>
      </trkpt>
      <trkpt lat="43.91354" lon="1.75653">
        <ele>205.86</ele>
        <time>2018-05-05T10:12:46Z</time>
      </trkpt>
      <trkpt lat="43.91339" lon="1.75663">
        <ele>204.9</ele>
        <time>2018-05-05T10:13:03Z</time>
      </trkpt>
      <trkpt lat="43.91327" lon="1.75678">
        <ele>203.46</ele>
        <time>2018-05-05T10:13:18Z</time>
      </trkpt>
      <trkpt lat="43.91324" lon="1.75678">
        <ele>202.98</ele>
        <time>2018-05-05T10:13:35Z</time>
      </trkpt>
      <trkpt lat="43.91321" lon="1.75674">
        <ele>202.49</ele>
        <time>2018-05-05T10:13:53Z</time>
      </trkpt>
      <trkpt lat="43.91313" lon="1.75672">
        <ele>201.53</ele>
        <time>2018-05-05T10:14:11Z</time>
      </trkpt>
      <trkpt lat="43.91303" lon="1.75673">
        <ele>200.09</ele>
        <time>2018-05-05T10:14:27Z</time>
      </trkpt>
      <trkpt lat="43.91285" lon="1.75677">
        <ele>198.17</ele>
        <time>2018-05-05T10:14:45Z</time>
      </trkpt>
      <trkpt lat="43.9127" lon="1.75676">
        <ele>196.25</ele>
        <time>2018-05-05T10:15:01Z</time>
      </trkpt>
      <trkpt lat="43.91253" lon="1.7568">
        <ele>193.36</ele>
        <time>2018-05-05T10:15:18Z</time>
      </trkpt>
      <trkpt lat="43.91241" lon="1.75684">
        <ele>191.44</ele>
        <time>2018-05-05T10:15:34Z</time>
      </trkpt>
      <trkpt lat="43.91222" lon="1.75687">
        <ele>188.56</ele>
        <time>2018-05-05T10:15:52Z</time>
      </trkpt>
      <trkpt lat="43.91206" lon="1.75692">
        <ele>186.63</ele>
        <time>2018-05-05T10:16:09Z</time>
      </trkpt>
      <trkpt lat="43.91197" lon="1.75695">
        <ele>185.67</ele>
        <time>2018-05-05T10:16:18Z</time>
      </trkpt>
      <trkpt lat="43.91187" lon="1.75697">
        <ele>185.19</ele>
        <time>2018-05-05T10:16:27Z</time>
      </trkpt>
      <trkpt lat="43.91173" lon="1.75696">
        <ele>185.19</ele>
        <time>2018-05-05T10:16:45Z</time>
      </trkpt>
      <trkpt lat="43.91173" lon="1.757">
        <ele>185.19</ele>
        <time>2018-05-05T10:17:04Z</time>
      </trkpt>
      <trkpt lat="43.91173" lon="1.75712">
        <ele>184.71</ele>
        <time>2018-05-05T10:17:23Z</time>
      </trkpt>
      <trkpt lat="43.9117" lon="1.75725">
        <ele>184.71</ele>
        <time>2018-05-05T10:17:38Z</time>
      </trkpt>
      <trkpt lat="43.91172" lon="1.75751">
        <ele>185.19</ele>
        <time>2018-05-05T10:17:55Z</time>
      </trkpt>
      <trkpt lat="43.91174" lon="1.75767">
        <ele>185.19</ele>
        <time>2018-05-05T10:18:10Z</time>
      </trkpt>
      <trkpt lat="43.91174" lon="1.75777">
        <ele>185.19</ele>
        <time>2018-05-05T10:18:18Z</time>
      </trkpt>
      <trkpt lat="43.91174" lon="1.75803">
        <ele>185.67</ele>
        <time>2018-05-05T10:18:37Z</time>
      </trkpt>
      <trkpt lat="43.91176" lon="1.75828">
        <ele>186.15</ele>
        <time>2018-05-05T10:18:53Z</time>
      </trkpt>
      <trkpt lat="43.91181" lon="1.75853">
        <ele>186.63</ele>
        <time>2018-05-05T10:19:13Z</time>
      </trkpt>
      <trkpt lat="43.91186" lon="1.75882">
        <ele>187.11</ele>
        <time>2018-05-05T10:19:30Z</time>
      </trkpt>
      <trkpt lat="43.91194" lon="1.75898">
        <ele>187.11</ele>
        <time>2018-05-05T10:19:47Z</time>
      </trkpt>
      <trkpt lat="43.91205" lon="1.75919">
        <ele>185.67</ele>
        <time>2018-05-05T10:20:02Z</time>
      </trkpt>
      <trkpt lat="43.91217" lon="1.75933">
        <ele>185.19</ele>
        <time>2018-05-05T10:20:19Z</time>
      </trkpt>
      <trkpt lat="43.91227" lon="1.75952">
        <ele>184.23</ele>
        <time>2018-05-05T10:20:38Z</time>
      </trkpt>
      <trkpt lat="43.91241" lon="1.75981">
        <ele>184.71</ele>
        <time>2018-05-05T10:20:57Z</time>
      </trkpt>
      <trkpt lat="43.91253" lon="1.75998">
        <ele>185.19</ele>
        <time>2018-05-05T10:21:13Z</time>
      </trkpt>
      <trkpt lat="43.91265" lon="1.75999">
        <ele>185.67</ele>
        <time>2018-05-05T10:21:28Z</time>
      </trkpt>
      <trkpt lat="43.91283" lon="1.76007">
        <ele>186.63</ele>
        <time>2018-05-05T10:21:45Z</time>
      </trkpt>
      <trkpt lat="43.91287" lon="1.76013">
        <ele>187.11</ele>
        <time>2018-05-05T10:21:50Z</time>
      </trkpt>
      <trkpt lat="43.91298" lon="1.76036">
        <ele>188.08</ele>
        <time>2018-05-05T10:22:09Z</time>
      </trkpt>
      <trkpt lat="43.91309" lon="1.76057">
        <ele>188.56</ele>
        <time>2018-05-05T10:22:26Z</time>
      </trkpt>
      <trkpt lat="43.91317" lon="1.76077">
        <ele>188.56</ele>
        <time>2018-05-05T10:22:42Z</time>
      </trkpt>
      <trkpt lat="43.91325" lon="1.76103">
        <ele>188.08</ele>
        <time>2018-05-05T10:22:58Z</time>
      </trkpt>
      <trkpt lat="43.91331" lon="1.76134">
        <ele>187.59</ele>
        <time>2018-05-05T10:23:19Z</time>
      </trkpt>
      <trkpt lat="43.91338" lon="1.76154">
        <ele>187.59</ele>
        <time>2018-05-05T10:23:34Z</time>
      </trkpt>
      <trkpt lat="43.91345" lon="1.76167">
        <ele>186.63</ele>
        <time>2018-05-05T10:23:50Z</time>
      </trkpt>
      <trkpt lat="43.91353" lon="1.76187">
        <ele>186.63</ele>
        <time>2018-05-05T10:24:06Z</time>
      </trkpt>
      <trkpt lat="43.9136" lon="1.76202">
        <ele>186.63</ele>
        <time>2018-05-05T10:24:22Z</time>
      </trkpt>
      <trkpt lat="43.91365" lon="1.76215">
        <ele>186.63</ele>
        <time>2018-05-05T10:24:37Z</time>
      </trkpt>
      <trkpt lat="43.91373" lon="1.76229">
        <ele>186.63</ele>
        <time>2018-05-05T10:24:52Z</time>
      </trkpt>
      <trkpt lat="43.91379" lon="1.76239">
        <ele>186.63</ele>
        <time>2018-05-05T10:25:06Z</time>
      </trkpt>
      <trkpt lat="43.91384" lon="1.76251">
        <ele>186.63</ele>
        <time>2018-05-05T10:25:25Z</time>
      </trkpt>
      <trkpt lat="43.91395" lon="1.76281">
        <ele>187.59</ele>
        <time>2018-05-05T10:25:45Z</time>
      </trkpt>
      <trkpt lat="43.91403" lon="1.763">
        <ele>188.08</ele>
        <time>2018-05-05T10:26:06Z</time>
      </trkpt>
      <trkpt lat="43.91417" lon="1.76318">
        <ele>188.08</ele>
        <time>2018-05-05T10:26:26Z</time>
      </trkpt>
      <trkpt lat="43.91432" lon="1.76332">
        <ele>188.56</ele>
        <time>2018-05-05T10:26:43Z</time>
      </trkpt>
      <trkpt lat="43.9144" lon="1.76351">
        <ele>188.56</ele>
        <time>2018-05-05T10:27:01Z</time>
      </trkpt>
      <trkpt lat="43.91449" lon="1.76375">
        <ele>188.56</ele>
        <time>2018-05-05T10:27:19Z</time>
      </trkpt>
      <trkpt lat="43.91458" lon="1.76396">
        <ele>189.04</ele>
        <time>2018-05-05T10:27:38Z</time>
      </trkpt>
      <trkpt lat="43.91464" lon="1.76412">
        <ele>189.52</ele>
        <time>2018-05-05T10:27:52Z</time>
      </trkpt>
      <trkpt lat="43.91468" lon="1.76434">
        <ele>189.52</ele>
        <time>2018-05-05T10:28:06Z</time>
      </trkpt>
      <trkpt lat="43.91468" lon="1.76461">
        <ele>188.56</ele>
        <time>2018-05-05T10:28:24Z</time>
      </trkpt>
      <trkpt lat="43.91467" lon="1.76482">
        <ele>188.08</ele>
        <time>2018-05-05T10:28:42Z</time>
      </trkpt>
      <trkpt lat="43.91461" lon="1.76505">
        <ele>188.08</ele>
        <time>2018-05-05T10:28:58Z</time>
      </trkpt>
      <trkpt lat="43.91462" lon="1.76524">
        <ele>187.59</ele>
        <time>2018-05-05T10:29:13Z</time>
      </trkpt>
      <trkpt lat="43.91467" lon="1.76544">
        <ele>187.11</ele>
        <time>2018-05-05T10:29:28Z</time>
      </trkpt>
      <trkpt lat="43.91475" lon="1.76566">
        <ele>187.11</ele>
        <time>2018-05-05T10:29:45Z</time>
      </trkpt>
      <trkpt lat="43.9148" lon="1.76577">
        <ele>187.11</ele>
        <time>2018-05-05T10:29:53Z</time>
      </trkpt>
      <trkpt lat="43.91489" lon="1.76599">
        <ele>187.11</ele>
        <time>2018-05-05T10:30:09Z</time>
      </trkpt>
      <trkpt lat="43.91489" lon="1.76603">
        <ele>187.11</ele>
        <time>2018-05-05T10:30:12Z</time>
      </trkpt>
      <trkpt lat="43.91487" lon="1.76607">
        <ele>187.11</ele>
        <time>2018-05-05T10:30:15Z</time>
      </trkpt>
      <trkpt lat="43.91482" lon="1.76607">
        <ele>187.11</ele>
        <time>2018-05-05T10:30:32Z</time>
      </trkpt>
      <trkpt lat="43.91479" lon="1.76607">
        <ele>187.11</ele>
        <time>2018-05-05T10:30:53Z</time>
      </trkpt>
      <trkpt lat="43.91478" lon="1.76609">
        <ele>187.11</ele>
        <time>2018-05-05T10:31:16Z</time>
      </trkpt>
      <trkpt lat="43.91464" lon="1.76613">
        <ele>186.63</ele>
        <time>2018-05-05T10:31:31Z</time>
      </trkpt>
      <trkpt lat="43.91451" lon="1.76621">
        <ele>186.63</ele>
        <time>2018-05-05T10:31:45Z</time>
      </trkpt>
      <trkpt lat="43.91446" lon="1.76623">
        <ele>186.63</ele>
        <time>2018-05-05T10:31:51Z</time>
      </trkpt>
      <trkpt lat="43.91432" lon="1.76633">
        <ele>186.15</ele>
        <time>2018-05-05T10:32:06Z</time>
      </trkpt>
      <trkpt lat="43.91414" lon="1.76642">
        <ele>185.19</ele>
        <time>2018-05-05T10:32:22Z</time>
      </trkpt>
      <trkpt lat="43.91399" lon="1.7665">
        <ele>185.67</ele>
        <time>2018-05-05T10:32:37Z</time>
      </trkpt>
      <trkpt lat="43.91395" lon="1.76652">
        <ele>185.19</ele>
        <time>2018-05-05T10:32:40Z</time>
      </trkpt>
      <trkpt lat="43.91377" lon="1.76651">
        <ele>184.71</ele>
        <time>2018-05-05T10:32:57Z</time>
      </trkpt>
      <trkpt lat="43.91363" lon="1.76638">
        <ele>184.71</ele>
        <time>2018-05-05T10:33:12Z</time>
      </trkpt>
      <trkpt lat="43.9136" lon="1.76635">
        <ele>184.71</ele>
        <time>2018-05-05T10:33:16Z</time>
      </trkpt>
      <trkpt lat="43.91347" lon="1.76612">
        <ele>184.71</ele>
        <time>2018-05-05T10:33:35Z</time>
      </trkpt>
      <trkpt lat="43.91342" lon="1.76604">
        <ele>184.71</ele>
        <time>2018-05-05T10:33:42Z</time>
      </trkpt>
      <trkpt lat="43.91337" lon="1.76598">
        <ele>184.71</ele>
        <time>2018-05-05T10:33:48Z</time>
      </trkpt>
      <trkpt lat="43.91326" lon="1.76579">
        <ele>184.23</ele>
        <time>2018-05-05T10:34:04Z</time>
      </trkpt>
      <trkpt lat="43.91314" lon="1.76558">
        <ele>184.71</ele>
        <time>2018-05-05T10:34:21Z</time>
      </trkpt>
      <trkpt lat="43.91302" lon="1.7654">
        <ele>184.71</ele>
        <time>2018-05-05T10:34:37Z</time>
      </trkpt>
      <trkpt lat="43.91294" lon="1.76528">
        <ele>185.19</ele>
        <time>2018-05-05T10:34:47Z</time>
      </trkpt>
      <trkpt lat="43.9129" lon="1.76523">
        <ele>184.71</ele>
        <time>2018-05-05T10:34:51Z</time>
      </trkpt>
      <trkpt lat="43.91275" lon="1.76509">
        <ele>185.19</ele>
        <time>2018-05-05T10:35:06Z</time>
      </trkpt>
      <trkpt lat="43.91273" lon="1.76506">
        <ele>185.67</ele>
        <time>2018-05-05T10:35:09Z</time>
      </trkpt>
      <trkpt lat="43.91257" lon="1.76496">
        <ele>185.67</ele>
        <time>2018-05-05T10:35:24Z</time>
      </trkpt>
      <trkpt lat="43.91241" lon="1.76489">
        <ele>186.15</ele>
        <time>2018-05-05T10:35:39Z</time>
      </trkpt>
      <trkpt lat="43.91224" lon="1.76482">
        <ele>186.15</ele>
        <time>2018-05-05T10:35:53Z</time>
      </trkpt>
      <trkpt lat="43.91218" lon="1.76481">
        <ele>186.15</ele>
        <time>2018-05-05T10:35:59Z</time>
      </trkpt>
      <trkpt lat="43.91213" lon="1.76481">
        <ele>186.15</ele>
        <time>2018-05-05T10:36:05Z</time>
      </trkpt>
      <trkpt lat="43.91208" lon="1.7649">
        <ele>186.63</ele>
        <time>2018-05-05T10:36:14Z</time>
      </trkpt>
      <trkpt lat="43.91199" lon="1.76515">
        <ele>187.11</ele>
        <time>2018-05-05T10:36:33Z</time>
      </trkpt>
      <trkpt lat="43.91192" lon="1.7653">
        <ele>187.59</ele>
        <time>2018-05-05T10:36:46Z</time>
      </trkpt>
      <trkpt lat="43.91185" lon="1.76548">
        <ele>188.08</ele>
        <time>2018-05-05T10:37:00Z</time>
      </trkpt>
      <trkpt lat="43.91178" lon="1.76568">
        <ele>188.56</ele>
        <time>2018-05-05T10:37:15Z</time>
      </trkpt>
      <trkpt lat="43.91171" lon="1.76586">
        <ele>189.04</ele>
        <time>2018-05-05T10:37:29Z</time>
      </trkpt>
      <trkpt lat="43.91163" lon="1.76609">
        <ele>190</ele>
        <time>2018-05-05T10:37:43Z</time>
      </trkpt>
      <trkpt lat="43.91155" lon="1.7662">
        <ele>191.44</ele>
        <time>2018-05-05T10:37:55Z</time>
      </trkpt>
      <trkpt lat="43.91147" lon="1.76616">
        <ele>191.92</ele>
        <time>2018-05-05T10:38:04Z</time>
      </trkpt>
      <trkpt lat="43.91142" lon="1.76606">
        <ele>192.4</ele>
        <time>2018-05-05T10:38:11Z</time>
      </trkpt>
      <trkpt lat="43.91144" lon="1.76584">
        <ele>192.4</ele>
        <time>2018-05-05T10:38:26Z</time>
      </trkpt>
      <trkpt lat="43.91146" lon="1.76564">
        <ele>191.92</ele>
        <time>2018-05-05T10:38:40Z</time>
      </trkpt>
      <trkpt lat="43.91143" lon="1.76562">
        <ele>192.4</ele>
        <time>2018-05-05T10:38:53Z</time>
      </trkpt>
      <trkpt lat="43.9114" lon="1.76557">
        <ele>191.92</ele>
        <time>2018-05-05T10:39:08Z</time>
      </trkpt>
      <trkpt lat="43.9114" lon="1.76551">
        <ele>191.92</ele>
        <time>2018-05-05T10:39:21Z</time>
      </trkpt>
      <trkpt lat="43.9114" lon="1.76527">
        <ele>191.44</ele>
        <time>2018-05-05T10:39:37Z</time>
      </trkpt>
      <trkpt lat="43.91139" lon="1.76516">
        <ele>191.92</ele>
        <time>2018-05-05T10:39:44Z</time>
      </trkpt>
      <trkpt lat="43.91139" lon="1.76513">
        <ele>191.92</ele>
        <time>2018-05-05T10:39:47Z</time>
      </trkpt>
      <trkpt lat="43.91132" lon="1.76504">
        <ele>191.92</ele>
        <time>2018-05-05T10:39:57Z</time>
      </trkpt>
      <trkpt lat="43.91121" lon="1.76511">
        <ele>193.84</ele>
        <time>2018-05-05T10:40:10Z</time>
      </trkpt>
      <trkpt lat="43.91113" lon="1.76516">
        <ele>195.77</ele>
        <time>2018-05-05T10:40:21Z</time>
      </trkpt>
      <trkpt lat="43.91112" lon="1.76518">
        <ele>195.77</ele>
        <time>2018-05-05T10:40:48Z</time>
      </trkpt>
      <trkpt lat="43.91109" lon="1.76521">
        <ele>195.77</ele>
        <time>2018-05-05T10:41:15Z</time>
      </trkpt>
      <trkpt lat="43.91095" lon="1.76527">
        <ele>198.17</ele>
        <time>2018-05-05T10:41:29Z</time>
      </trkpt>
      <trkpt lat="43.91082" lon="1.76527">
        <ele>200.57</ele>
        <time>2018-05-05T10:41:44Z</time>
      </trkpt>
      <trkpt lat="43.91074" lon="1.7652">
        <ele>201.53</ele>
        <time>2018-05-05T10:41:58Z</time>
      </trkpt>
      <trkpt lat="43.91071" lon="1.76516">
        <ele>202.01</ele>
        <time>2018-05-05T10:42:03Z</time>
      </trkpt>
      <trkpt lat="43.91062" lon="1.76506">
        <ele>203.94</ele>
        <time>2018-05-05T10:42:16Z</time>
      </trkpt>
      <trkpt lat="43.91053" lon="1.76512">
        <ele>205.86</ele>
        <time>2018-05-05T10:42:30Z</time>
      </trkpt>
      <trkpt lat="43.91045" lon="1.76517">
        <ele>206.82</ele>
        <time>2018-05-05T10:42:45Z</time>
      </trkpt>
      <trkpt lat="43.91036" lon="1.76526">
        <ele>207.78</ele>
        <time>2018-05-05T10:43:01Z</time>
      </trkpt>
      <trkpt lat="43.91028" lon="1.76533">
        <ele>208.26</ele>
        <time>2018-05-05T10:43:18Z</time>
      </trkpt>
      <trkpt lat="43.91019" lon="1.76543">
        <ele>209.22</ele>
        <time>2018-05-05T10:43:34Z</time>
      </trkpt>
      <trkpt lat="43.91009" lon="1.76556">
        <ele>210.67</ele>
        <time>2018-05-05T10:43:49Z</time>
      </trkpt>
      <trkpt lat="43.91001" lon="1.76562">
        <ele>212.11</ele>
        <time>2018-05-05T10:44:02Z</time>
      </trkpt>
      <trkpt lat="43.90997" lon="1.76565">
        <ele>213.07</ele>
        <time>2018-05-05T10:44:29Z</time>
      </trkpt>
      <trkpt lat="43.90987" lon="1.76578">
        <ele>214.99</ele>
        <time>2018-05-05T10:44:45Z</time>
      </trkpt>
      <trkpt lat="43.90977" lon="1.76592">
        <ele>215.95</ele>
        <time>2018-05-05T10:44:59Z</time>
      </trkpt>
      <trkpt lat="43.90969" lon="1.76598">
        <ele>216.91</ele>
        <time>2018-05-05T10:45:08Z</time>
      </trkpt>
      <trkpt lat="43.90958" lon="1.76598">
        <ele>218.84</ele>
        <time>2018-05-05T10:45:22Z</time>
      </trkpt>
      <trkpt lat="43.90954" lon="1.76597">
        <ele>219.8</ele>
        <time>2018-05-05T10:45:38Z</time>
      </trkpt>
      <trkpt lat="43.90953" lon="1.76596">
        <ele>219.8</ele>
        <time>2018-05-05T10:46:05Z</time>
      </trkpt>
      <trkpt lat="43.90939" lon="1.76599">
        <ele>221.24</ele>
        <time>2018-05-05T10:46:21Z</time>
      </trkpt>
      <trkpt lat="43.90928" lon="1.76601">
        <ele>222.68</ele>
        <time>2018-05-05T10:46:36Z</time>
      </trkpt>
      <trkpt lat="43.9092" lon="1.76605">
        <ele>223.16</ele>
        <time>2018-05-05T10:46:48Z</time>
      </trkpt>
      <trkpt lat="43.90913" lon="1.76609">
        <ele>223.64</ele>
        <time>2018-05-05T10:47:02Z</time>
      </trkpt>
      <trkpt lat="43.90901" lon="1.76614">
        <ele>224.61</ele>
        <time>2018-05-05T10:47:14Z</time>
      </trkpt>
      <trkpt lat="43.90898" lon="1.76617">
        <ele>224.61</ele>
        <time>2018-05-05T10:47:25Z</time>
      </trkpt>
      <trkpt lat="43.90884" lon="1.76626">
        <ele>226.05</ele>
        <time>2018-05-05T10:47:39Z</time>
      </trkpt>
      <trkpt lat="43.90873" lon="1.76636">
        <ele>227.97</ele>
        <time>2018-05-05T10:47:53Z</time>
      </trkpt>
      <trkpt lat="43.90862" lon="1.76648">
        <ele>229.41</ele>
        <time>2018-05-05T10:48:09Z</time>
      </trkpt>
      <trkpt lat="43.90849" lon="1.7666">
        <ele>230.37</ele>
        <time>2018-05-05T10:48:24Z</time>
      </trkpt>
      <trkpt lat="43.90838" lon="1.7667">
        <ele>232.3</ele>
        <time>2018-05-05T10:48:38Z</time>
      </trkpt>
      <trkpt lat="43.9083" lon="1.76678">
        <ele>233.74</ele>
        <time>2018-05-05T10:48:50Z</time>
      </trkpt>
      <trkpt lat="43.90822" lon="1.76684">
        <ele>235.66</ele>
        <time>2018-05-05T10:49:04Z</time>
      </trkpt>
      <trkpt lat="43.90817" lon="1.76692">
        <ele>236.14</ele>
        <time>2018-05-05T10:49:16Z</time>
      </trkpt>
      <trkpt lat="43.90815" lon="1.76698">
        <ele>234.7</ele>
        <time>2018-05-05T10:51:01Z</time>
      </trkpt>
      <trkpt lat="43.90815" lon="1.76701">
        <ele>234.7</ele>
        <time>2018-05-05T10:51:31Z</time>
      </trkpt>
      <trkpt lat="43.90814" lon="1.76699">
        <ele>234.7</ele>
        <time>2018-05-05T10:51:57Z</time>
      </trkpt>
      <trkpt lat="43.90814" lon="1.767">
        <ele>234.7</ele>
        <time>2018-05-05T10:52:19Z</time>
      </trkpt>
      <trkpt lat="43.90608" lon="1.76829">
        <ele>238.54</ele>
        <time>2018-05-05T11:44:06Z</time>
      </trkpt>
      <trkpt lat="43.90607" lon="1.7683">
        <ele>241.43</ele>
        <time>2018-05-05T11:44:07Z</time>
      </trkpt>
      <trkpt lat="43.90597" lon="1.76847">
        <ele>239.99</ele>
        <time>2018-05-05T11:44:24Z</time>
      </trkpt>
      <trkpt lat="43.90587" lon="1.76861">
        <ele>240.47</ele>
        <time>2018-05-05T11:44:41Z</time>
      </trkpt>
      <trkpt lat="43.90576" lon="1.76875">
        <ele>240.95</ele>
        <time>2018-05-05T11:44:57Z</time>
      </trkpt>
      <trkpt lat="43.90572" lon="1.76879">
        <ele>240.95</ele>
        <time>2018-05-05T11:45:03Z</time>
      </trkpt>
      <trkpt lat="43.90567" lon="1.76885">
        <ele>241.43</ele>
        <time>2018-05-05T11:45:10Z</time>
      </trkpt>
      <trkpt lat="43.90553" lon="1.76896">
        <ele>241.91</ele>
        <time>2018-05-05T11:45:25Z</time>
      </trkpt>
      <trkpt lat="43.90546" lon="1.76903">
        <ele>241.91</ele>
        <time>2018-05-05T11:45:33Z</time>
      </trkpt>
      <trkpt lat="43.90542" lon="1.76905">
        <ele>241.91</ele>
        <time>2018-05-05T11:45:37Z</time>
      </trkpt>
      <trkpt lat="43.90534" lon="1.7691">
        <ele>241.91</ele>
        <time>2018-05-05T11:45:45Z</time>
      </trkpt>
      <trkpt lat="43.90532" lon="1.76911">
        <ele>241.91</ele>
        <time>2018-05-05T11:45:47Z</time>
      </trkpt>
      <trkpt lat="43.90529" lon="1.76912">
        <ele>241.91</ele>
        <time>2018-05-05T11:45:50Z</time>
      </trkpt>
      <trkpt lat="43.90526" lon="1.76915">
        <ele>241.91</ele>
        <time>2018-05-05T11:45:53Z</time>
      </trkpt>
      <trkpt lat="43.90512" lon="1.76921">
        <ele>242.39</ele>
        <time>2018-05-05T11:46:08Z</time>
      </trkpt>
      <trkpt lat="43.90501" lon="1.76929">
        <ele>242.39</ele>
        <time>2018-05-05T11:46:20Z</time>
      </trkpt>
      <trkpt lat="43.90498" lon="1.7693">
        <ele>242.39</ele>
        <time>2018-05-05T11:46:23Z</time>
      </trkpt>
      <trkpt lat="43.90496" lon="1.76931">
        <ele>242.39</ele>
        <time>2018-05-05T11:46:25Z</time>
      </trkpt>
      <trkpt lat="43.90486" lon="1.76936">
        <ele>242.39</ele>
        <time>2018-05-05T11:46:36Z</time>
      </trkpt>
      <trkpt lat="43.90476" lon="1.7694">
        <ele>242.39</ele>
        <time>2018-05-05T11:46:46Z</time>
      </trkpt>
      <trkpt lat="43.90467" lon="1.76947">
        <ele>242.39</ele>
        <time>2018-05-05T11:46:56Z</time>
      </trkpt>
      <trkpt lat="43.90464" lon="1.76949">
        <ele>242.39</ele>
        <time>2018-05-05T11:46:59Z</time>
      </trkpt>
      <trkpt lat="43.90455" lon="1.76953">
        <ele>241.91</ele>
        <time>2018-05-05T11:47:08Z</time>
      </trkpt>
      <trkpt lat="43.90453" lon="1.76953">
        <ele>241.91</ele>
        <time>2018-05-05T11:47:10Z</time>
      </trkpt>
      <trkpt lat="43.90451" lon="1.76955">
        <ele>241.91</ele>
        <time>2018-05-05T11:47:12Z</time>
      </trkpt>
      <trkpt lat="43.90445" lon="1.76957">
        <ele>241.43</ele>
        <time>2018-05-05T11:47:18Z</time>
      </trkpt>
      <trkpt lat="43.90437" lon="1.7696">
        <ele>241.91</ele>
        <time>2018-05-05T11:47:25Z</time>
      </trkpt>
      <trkpt lat="43.90426" lon="1.76966">
        <ele>241.91</ele>
        <time>2018-05-05T11:47:36Z</time>
      </trkpt>
      <trkpt lat="43.90421" lon="1.76969">
        <ele>241.91</ele>
        <time>2018-05-05T11:47:41Z</time>
      </trkpt>
      <trkpt lat="43.90411" lon="1.76971">
        <ele>242.39</ele>
        <time>2018-05-05T11:47:50Z</time>
      </trkpt>
      <trkpt lat="43.90405" lon="1.76973">
        <ele>242.39</ele>
        <time>2018-05-05T11:47:55Z</time>
      </trkpt>
      <trkpt lat="43.90392" lon="1.76978">
        <ele>242.87</ele>
        <time>2018-05-05T11:48:09Z</time>
      </trkpt>
      <trkpt lat="43.9039" lon="1.7698">
        <ele>243.35</ele>
        <time>2018-05-05T11:48:12Z</time>
      </trkpt>
      <trkpt lat="43.90375" lon="1.76984">
        <ele>243.83</ele>
        <time>2018-05-05T11:48:26Z</time>
      </trkpt>
      <trkpt lat="43.90373" lon="1.76984">
        <ele>243.83</ele>
        <time>2018-05-05T11:48:28Z</time>
      </trkpt>
      <trkpt lat="43.90371" lon="1.76984">
        <ele>243.83</ele>
        <time>2018-05-05T11:48:30Z</time>
      </trkpt>
      <trkpt lat="43.90357" lon="1.76986">
        <ele>244.31</ele>
        <time>2018-05-05T11:48:44Z</time>
      </trkpt>
      <trkpt lat="43.90354" lon="1.76986">
        <ele>244.31</ele>
        <time>2018-05-05T11:48:49Z</time>
      </trkpt>
      <trkpt lat="43.90338" lon="1.76991">
        <ele>244.79</ele>
        <time>2018-05-05T11:49:04Z</time>
      </trkpt>
      <trkpt lat="43.90334" lon="1.76993">
        <ele>244.79</ele>
        <time>2018-05-05T11:49:08Z</time>
      </trkpt>
      <trkpt lat="43.90331" lon="1.76995">
        <ele>245.27</ele>
        <time>2018-05-05T11:49:11Z</time>
      </trkpt>
      <trkpt lat="43.90327" lon="1.76997">
        <ele>245.27</ele>
        <time>2018-05-05T11:49:16Z</time>
      </trkpt>
      <trkpt lat="43.90325" lon="1.76998">
        <ele>245.27</ele>
        <time>2018-05-05T11:49:18Z</time>
      </trkpt>
      <trkpt lat="43.90311" lon="1.77006">
        <ele>245.75</ele>
        <time>2018-05-05T11:49:32Z</time>
      </trkpt>
      <trkpt lat="43.90308" lon="1.77007">
        <ele>245.75</ele>
        <time>2018-05-05T11:49:34Z</time>
      </trkpt>
      <trkpt lat="43.90295" lon="1.77013">
        <ele>246.23</ele>
        <time>2018-05-05T11:49:47Z</time>
      </trkpt>
      <trkpt lat="43.90293" lon="1.77014">
        <ele>246.23</ele>
        <time>2018-05-05T11:49:49Z</time>
      </trkpt>
      <trkpt lat="43.90287" lon="1.77018">
        <ele>246.23</ele>
        <time>2018-05-05T11:49:55Z</time>
      </trkpt>
      <trkpt lat="43.90281" lon="1.77022">
        <ele>246.72</ele>
        <time>2018-05-05T11:50:01Z</time>
      </trkpt>
      <trkpt lat="43.90267" lon="1.77029">
        <ele>246.72</ele>
        <time>2018-05-05T11:50:14Z</time>
      </trkpt>
      <trkpt lat="43.90256" lon="1.77036">
        <ele>246.23</ele>
        <time>2018-05-05T11:50:26Z</time>
      </trkpt>
      <trkpt lat="43.90253" lon="1.77039">
        <ele>246.23</ele>
        <time>2018-05-05T11:50:29Z</time>
      </trkpt>
      <trkpt lat="43.9025" lon="1.7704">
        <ele>246.23</ele>
        <time>2018-05-05T11:50:32Z</time>
      </trkpt>
      <trkpt lat="43.90248" lon="1.77042">
        <ele>246.72</ele>
        <time>2018-05-05T11:50:34Z</time>
      </trkpt>
      <trkpt lat="43.90241" lon="1.77046">
        <ele>246.72</ele>
        <time>2018-05-05T11:50:41Z</time>
      </trkpt>
      <trkpt lat="43.90231" lon="1.77055">
        <ele>246.72</ele>
        <time>2018-05-05T11:50:52Z</time>
      </trkpt>
      <trkpt lat="43.90229" lon="1.7706">
        <ele>246.72</ele>
        <time>2018-05-05T11:50:56Z</time>
      </trkpt>
      <trkpt lat="43.90219" lon="1.77079">
        <ele>247.2</ele>
        <time>2018-05-05T11:51:11Z</time>
      </trkpt>
      <trkpt lat="43.90212" lon="1.77101">
        <ele>246.72</ele>
        <time>2018-05-05T11:51:27Z</time>
      </trkpt>
      <trkpt lat="43.90204" lon="1.77121">
        <ele>246.72</ele>
        <time>2018-05-05T11:51:42Z</time>
      </trkpt>
      <trkpt lat="43.90203" lon="1.77124">
        <ele>246.72</ele>
        <time>2018-05-05T11:51:45Z</time>
      </trkpt>
      <trkpt lat="43.90196" lon="1.77143">
        <ele>246.23</ele>
        <time>2018-05-05T11:51:59Z</time>
      </trkpt>
      <trkpt lat="43.90188" lon="1.77163">
        <ele>246.23</ele>
        <time>2018-05-05T11:52:14Z</time>
      </trkpt>
      <trkpt lat="43.90184" lon="1.77176">
        <ele>246.23</ele>
        <time>2018-05-05T11:52:23Z</time>
      </trkpt>
      <trkpt lat="43.90182" lon="1.7718">
        <ele>246.23</ele>
        <time>2018-05-05T11:52:26Z</time>
      </trkpt>
      <trkpt lat="43.90176" lon="1.77193">
        <ele>246.72</ele>
        <time>2018-05-05T11:52:36Z</time>
      </trkpt>
      <trkpt lat="43.90175" lon="1.77198">
        <ele>246.23</ele>
        <time>2018-05-05T11:52:39Z</time>
      </trkpt>
      <trkpt lat="43.90166" lon="1.77218">
        <ele>246.72</ele>
        <time>2018-05-05T11:52:54Z</time>
      </trkpt>
      <trkpt lat="43.90158" lon="1.7724">
        <ele>247.2</ele>
        <time>2018-05-05T11:53:09Z</time>
      </trkpt>
      <trkpt lat="43.90152" lon="1.77259">
        <ele>247.2</ele>
        <time>2018-05-05T11:53:22Z</time>
      </trkpt>
      <trkpt lat="43.90146" lon="1.77262">
        <ele>248.64</ele>
        <time>2018-05-05T11:55:29Z</time>
      </trkpt>
      <trkpt lat="43.90145" lon="1.77268">
        <ele>248.64</ele>
        <time>2018-05-05T11:55:52Z</time>
      </trkpt>
      <trkpt lat="43.90145" lon="1.77267">
        <ele>249.12</ele>
        <time>2018-05-05T11:56:18Z</time>
      </trkpt>
      <trkpt lat="43.90146" lon="1.77261">
        <ele>249.12</ele>
        <time>2018-05-05T11:56:39Z</time>
      </trkpt>
      <trkpt lat="43.90133" lon="1.77257">
        <ele>249.6</ele>
        <time>2018-05-05T11:56:52Z</time>
      </trkpt>
      <trkpt lat="43.90117" lon="1.77253">
        <ele>250.08</ele>
        <time>2018-05-05T11:57:08Z</time>
      </trkpt>
      <trkpt lat="43.90104" lon="1.77264">
        <ele>251.04</ele>
        <time>2018-05-05T11:57:22Z</time>
      </trkpt>
      <trkpt lat="43.90103" lon="1.77265">
        <ele>251.04</ele>
        <time>2018-05-05T11:57:23Z</time>
      </trkpt>
      <trkpt lat="43.9009" lon="1.77283">
        <ele>251.52</ele>
        <time>2018-05-05T11:57:38Z</time>
      </trkpt>
      <trkpt lat="43.90083" lon="1.7729">
        <ele>251.52</ele>
        <time>2018-05-05T11:57:51Z</time>
      </trkpt>
      <trkpt lat="43.90082" lon="1.77292">
        <ele>252</ele>
        <time>2018-05-05T11:57:53Z</time>
      </trkpt>
      <trkpt lat="43.90072" lon="1.77307">
        <ele>252.48</ele>
        <time>2018-05-05T11:58:06Z</time>
      </trkpt>
      <trkpt lat="43.90065" lon="1.77317">
        <ele>252.48</ele>
        <time>2018-05-05T11:58:15Z</time>
      </trkpt>
      <trkpt lat="43.90053" lon="1.7733">
        <ele>252.96</ele>
        <time>2018-05-05T11:58:28Z</time>
      </trkpt>
      <trkpt lat="43.9004" lon="1.77349">
        <ele>253.93</ele>
        <time>2018-05-05T11:58:43Z</time>
      </trkpt>
      <trkpt lat="43.90036" lon="1.77357">
        <ele>253.93</ele>
        <time>2018-05-05T11:58:49Z</time>
      </trkpt>
      <trkpt lat="43.9003" lon="1.77365">
        <ele>253.93</ele>
        <time>2018-05-05T11:58:57Z</time>
      </trkpt>
      <trkpt lat="43.90029" lon="1.77369">
        <ele>253.93</ele>
        <time>2018-05-05T11:59:00Z</time>
      </trkpt>
      <trkpt lat="43.90021" lon="1.77382">
        <ele>254.41</ele>
        <time>2018-05-05T11:59:11Z</time>
      </trkpt>
      <trkpt lat="43.90019" lon="1.77384">
        <ele>254.41</ele>
        <time>2018-05-05T11:59:13Z</time>
      </trkpt>
      <trkpt lat="43.90017" lon="1.77388">
        <ele>254.41</ele>
        <time>2018-05-05T11:59:16Z</time>
      </trkpt>
      <trkpt lat="43.90013" lon="1.77393">
        <ele>254.41</ele>
        <time>2018-05-05T11:59:20Z</time>
      </trkpt>
      <trkpt lat="43.90005" lon="1.77406">
        <ele>254.41</ele>
        <time>2018-05-05T11:59:30Z</time>
      </trkpt>
      <trkpt lat="43.89996" lon="1.77422">
        <ele>253.93</ele>
        <time>2018-05-05T11:59:44Z</time>
      </trkpt>
      <trkpt lat="43.89987" lon="1.77435">
        <ele>253.44</ele>
        <time>2018-05-05T11:59:55Z</time>
      </trkpt>
      <trkpt lat="43.89986" lon="1.77439">
        <ele>253.44</ele>
        <time>2018-05-05T11:59:58Z</time>
      </trkpt>
      <trkpt lat="43.89983" lon="1.77444">
        <ele>252.48</ele>
        <time>2018-05-05T12:00:03Z</time>
      </trkpt>
      <trkpt lat="43.89969" lon="1.77439">
        <ele>252</ele>
        <time>2018-05-05T12:00:16Z</time>
      </trkpt>
      <trkpt lat="43.89956" lon="1.77431">
        <ele>251.52</ele>
        <time>2018-05-05T12:00:30Z</time>
      </trkpt>
      <trkpt lat="43.89954" lon="1.7743">
        <ele>251.04</ele>
        <time>2018-05-05T12:00:32Z</time>
      </trkpt>
      <trkpt lat="43.8995" lon="1.77429">
        <ele>251.04</ele>
        <time>2018-05-05T12:00:36Z</time>
      </trkpt>
      <trkpt lat="43.89932" lon="1.77424">
        <ele>250.56</ele>
        <time>2018-05-05T12:00:52Z</time>
      </trkpt>
      <trkpt lat="43.89913" lon="1.77418">
        <ele>250.56</ele>
        <time>2018-05-05T12:01:08Z</time>
      </trkpt>
      <trkpt lat="43.89906" lon="1.77419">
        <ele>250.56</ele>
        <time>2018-05-05T12:01:15Z</time>
      </trkpt>
      <trkpt lat="43.89904" lon="1.77424">
        <ele>250.56</ele>
        <time>2018-05-05T12:01:19Z</time>
      </trkpt>
      <trkpt lat="43.89896" lon="1.77444">
        <ele>248.64</ele>
        <time>2018-05-05T12:01:36Z</time>
      </trkpt>
      <trkpt lat="43.8989" lon="1.77454">
        <ele>247.68</ele>
        <time>2018-05-05T12:01:50Z</time>
      </trkpt>
      <trkpt lat="43.89882" lon="1.77468">
        <ele>245.27</ele>
        <time>2018-05-05T12:02:03Z</time>
      </trkpt>
      <trkpt lat="43.89878" lon="1.77481">
        <ele>243.83</ele>
        <time>2018-05-05T12:02:14Z</time>
      </trkpt>
      <trkpt lat="43.89869" lon="1.77497">
        <ele>241.91</ele>
        <time>2018-05-05T12:02:30Z</time>
      </trkpt>
      <trkpt lat="43.89861" lon="1.7751">
        <ele>239.99</ele>
        <time>2018-05-05T12:02:44Z</time>
      </trkpt>
      <trkpt lat="43.89848" lon="1.77523">
        <ele>238.54</ele>
        <time>2018-05-05T12:03:03Z</time>
      </trkpt>
      <trkpt lat="43.89839" lon="1.77535">
        <ele>237.58</ele>
        <time>2018-05-05T12:03:17Z</time>
      </trkpt>
      <trkpt lat="43.89829" lon="1.7755">
        <ele>235.18</ele>
        <time>2018-05-05T12:03:33Z</time>
      </trkpt>
      <trkpt lat="43.89821" lon="1.77565">
        <ele>232.78</ele>
        <time>2018-05-05T12:03:49Z</time>
      </trkpt>
      <trkpt lat="43.89811" lon="1.77578">
        <ele>230.85</ele>
        <time>2018-05-05T12:04:05Z</time>
      </trkpt>
      <trkpt lat="43.89806" lon="1.77593">
        <ele>228.45</ele>
        <time>2018-05-05T12:04:20Z</time>
      </trkpt>
      <trkpt lat="43.89804" lon="1.77597">
        <ele>228.45</ele>
        <time>2018-05-05T12:04:23Z</time>
      </trkpt>
      <trkpt lat="43.89803" lon="1.77601">
        <ele>228.45</ele>
        <time>2018-05-05T12:04:26Z</time>
      </trkpt>
      <trkpt lat="43.89796" lon="1.77619">
        <ele>227.49</ele>
        <time>2018-05-05T12:04:40Z</time>
      </trkpt>
      <trkpt lat="43.8979" lon="1.77634">
        <ele>226.53</ele>
        <time>2018-05-05T12:04:54Z</time>
      </trkpt>
      <trkpt lat="43.89784" lon="1.77652">
        <ele>225.09</ele>
        <time>2018-05-05T12:05:10Z</time>
      </trkpt>
      <trkpt lat="43.89778" lon="1.77668">
        <ele>223.64</ele>
        <time>2018-05-05T12:05:24Z</time>
      </trkpt>
      <trkpt lat="43.8977" lon="1.77684">
        <ele>222.2</ele>
        <time>2018-05-05T12:05:39Z</time>
      </trkpt>
      <trkpt lat="43.89762" lon="1.77697">
        <ele>221.24</ele>
        <time>2018-05-05T12:05:52Z</time>
      </trkpt>
      <trkpt lat="43.8976" lon="1.77703">
        <ele>220.28</ele>
        <time>2018-05-05T12:05:58Z</time>
      </trkpt>
      <trkpt lat="43.89751" lon="1.77718">
        <ele>219.32</ele>
        <time>2018-05-05T12:06:14Z</time>
      </trkpt>
      <trkpt lat="43.89742" lon="1.77733">
        <ele>217.88</ele>
        <time>2018-05-05T12:06:30Z</time>
      </trkpt>
      <trkpt lat="43.89735" lon="1.77746">
        <ele>216.91</ele>
        <time>2018-05-05T12:06:43Z</time>
      </trkpt>
      <trkpt lat="43.89733" lon="1.7775">
        <ele>216.91</ele>
        <time>2018-05-05T12:06:58Z</time>
      </trkpt>
      <trkpt lat="43.8973" lon="1.77756">
        <ele>216.43</ele>
        <time>2018-05-05T12:07:04Z</time>
      </trkpt>
      <trkpt lat="43.89726" lon="1.77765">
        <ele>215.95</ele>
        <time>2018-05-05T12:07:16Z</time>
      </trkpt>
      <trkpt lat="43.89722" lon="1.77766">
        <ele>215.47</ele>
        <time>2018-05-05T12:07:33Z</time>
      </trkpt>
      <trkpt lat="43.89715" lon="1.77766">
        <ele>213.55</ele>
        <time>2018-05-05T12:07:46Z</time>
      </trkpt>
      <trkpt lat="43.89703" lon="1.77765">
        <ele>211.63</ele>
        <time>2018-05-05T12:08:01Z</time>
      </trkpt>
      <trkpt lat="43.89701" lon="1.77763">
        <ele>211.15</ele>
        <time>2018-05-05T12:08:19Z</time>
      </trkpt>
      <trkpt lat="43.897" lon="1.77764">
        <ele>211.15</ele>
        <time>2018-05-05T12:08:46Z</time>
      </trkpt>
      <trkpt lat="43.89701" lon="1.77764">
        <ele>211.15</ele>
        <time>2018-05-05T12:09:16Z</time>
      </trkpt>
      <trkpt lat="43.89698" lon="1.77769">
        <ele>211.15</ele>
        <time>2018-05-05T12:09:49Z</time>
      </trkpt>
      <trkpt lat="43.89697" lon="1.77769">
        <ele>210.67</ele>
        <time>2018-05-05T12:10:25Z</time>
      </trkpt>
      <trkpt lat="43.89693" lon="1.77766">
        <ele>208.74</ele>
        <time>2018-05-05T12:10:41Z</time>
      </trkpt>
      <trkpt lat="43.89687" lon="1.77764">
        <ele>207.78</ele>
        <time>2018-05-05T12:10:55Z</time>
      </trkpt>
      <trkpt lat="43.89679" lon="1.77765">
        <ele>205.86</ele>
        <time>2018-05-05T12:11:12Z</time>
      </trkpt>
      <trkpt lat="43.89674" lon="1.77767">
        <ele>204.9</ele>
        <time>2018-05-05T12:11:24Z</time>
      </trkpt>
      <trkpt lat="43.89664" lon="1.77772">
        <ele>202.98</ele>
        <time>2018-05-05T12:11:37Z</time>
      </trkpt>
      <trkpt lat="43.89655" lon="1.77771">
        <ele>201.05</ele>
        <time>2018-05-05T12:11:50Z</time>
      </trkpt>
      <trkpt lat="43.89644" lon="1.77768">
        <ele>198.65</ele>
        <time>2018-05-05T12:12:03Z</time>
      </trkpt>
      <trkpt lat="43.89634" lon="1.77764">
        <ele>196.25</ele>
        <time>2018-05-05T12:12:15Z</time>
      </trkpt>
      <trkpt lat="43.89621" lon="1.77759">
        <ele>193.36</ele>
        <time>2018-05-05T12:12:30Z</time>
      </trkpt>
      <trkpt lat="43.89609" lon="1.77755">
        <ele>192.4</ele>
        <time>2018-05-05T12:12:44Z</time>
      </trkpt>
      <trkpt lat="43.89596" lon="1.77753">
        <ele>190.96</ele>
        <time>2018-05-05T12:12:57Z</time>
      </trkpt>
      <trkpt lat="43.89589" lon="1.77752">
        <ele>190</ele>
        <time>2018-05-05T12:13:03Z</time>
      </trkpt>
      <trkpt lat="43.89584" lon="1.77751">
        <ele>189.52</ele>
        <time>2018-05-05T12:13:09Z</time>
      </trkpt>
      <trkpt lat="43.8957" lon="1.77756">
        <ele>187.59</ele>
        <time>2018-05-05T12:13:25Z</time>
      </trkpt>
      <trkpt lat="43.89564" lon="1.77758">
        <ele>186.63</ele>
        <time>2018-05-05T12:13:40Z</time>
      </trkpt>
      <trkpt lat="43.89563" lon="1.77759">
        <ele>186.63</ele>
        <time>2018-05-05T12:13:41Z</time>
      </trkpt>
      <trkpt lat="43.89559" lon="1.77762">
        <ele>185.67</ele>
        <time>2018-05-05T12:13:46Z</time>
      </trkpt>
      <trkpt lat="43.89546" lon="1.77769">
        <ele>184.23</ele>
        <time>2018-05-05T12:14:01Z</time>
      </trkpt>
      <trkpt lat="43.89533" lon="1.77778">
        <ele>182.79</ele>
        <time>2018-05-05T12:14:15Z</time>
      </trkpt>
      <trkpt lat="43.89522" lon="1.77791">
        <ele>181.83</ele>
        <time>2018-05-05T12:14:30Z</time>
      </trkpt>
      <trkpt lat="43.89518" lon="1.77799">
        <ele>181.35</ele>
        <time>2018-05-05T12:14:39Z</time>
      </trkpt>
      <trkpt lat="43.89521" lon="1.77819">
        <ele>180.38</ele>
        <time>2018-05-05T12:14:54Z</time>
      </trkpt>
      <trkpt lat="43.89521" lon="1.77839">
        <ele>178.94</ele>
        <time>2018-05-05T12:15:08Z</time>
      </trkpt>
      <trkpt lat="43.89513" lon="1.77856">
        <ele>177.98</ele>
        <time>2018-05-05T12:15:23Z</time>
      </trkpt>
      <trkpt lat="43.89502" lon="1.77871">
        <ele>178.46</ele>
        <time>2018-05-05T12:15:37Z</time>
      </trkpt>
      <trkpt lat="43.89494" lon="1.77889">
        <ele>178.94</ele>
        <time>2018-05-05T12:15:51Z</time>
      </trkpt>
      <trkpt lat="43.89487" lon="1.77903">
        <ele>179.9</ele>
        <time>2018-05-05T12:16:03Z</time>
      </trkpt>
      <trkpt lat="43.89486" lon="1.77906">
        <ele>179.9</ele>
        <time>2018-05-05T12:16:06Z</time>
      </trkpt>
      <trkpt lat="43.89478" lon="1.77922">
        <ele>180.87</ele>
        <time>2018-05-05T12:16:20Z</time>
      </trkpt>
      <trkpt lat="43.8947" lon="1.77935">
        <ele>182.31</ele>
        <time>2018-05-05T12:16:33Z</time>
      </trkpt>
      <trkpt lat="43.89463" lon="1.77948">
        <ele>183.27</ele>
        <time>2018-05-05T12:16:45Z</time>
      </trkpt>
      <trkpt lat="43.89455" lon="1.7796">
        <ele>184.71</ele>
        <time>2018-05-05T12:16:58Z</time>
      </trkpt>
      <trkpt lat="43.89447" lon="1.7797">
        <ele>185.67</ele>
        <time>2018-05-05T12:17:10Z</time>
      </trkpt>
      <trkpt lat="43.89442" lon="1.77983">
        <ele>186.63</ele>
        <time>2018-05-05T12:17:22Z</time>
      </trkpt>
      <trkpt lat="43.89435" lon="1.77993">
        <ele>187.11</ele>
        <time>2018-05-05T12:17:33Z</time>
      </trkpt>
      <trkpt lat="43.89423" lon="1.78004">
        <ele>187.59</ele>
        <time>2018-05-05T12:17:48Z</time>
      </trkpt>
      <trkpt lat="43.89415" lon="1.78017">
        <ele>188.08</ele>
        <time>2018-05-05T12:18:01Z</time>
      </trkpt>
      <trkpt lat="43.89408" lon="1.78032">
        <ele>189.04</ele>
        <time>2018-05-05T12:18:15Z</time>
      </trkpt>
      <trkpt lat="43.89402" lon="1.78046">
        <ele>190</ele>
        <time>2018-05-05T12:18:27Z</time>
      </trkpt>
      <trkpt lat="43.89398" lon="1.78046">
        <ele>190</ele>
        <time>2018-05-05T12:18:42Z</time>
      </trkpt>
      <trkpt lat="43.894" lon="1.78044">
        <ele>190</ele>
        <time>2018-05-05T12:19:15Z</time>
      </trkpt>
      <trkpt lat="43.89397" lon="1.78057">
        <ele>190.48</ele>
        <time>2018-05-05T12:19:27Z</time>
      </trkpt>
      <trkpt lat="43.89397" lon="1.78075">
        <ele>190.96</ele>
        <time>2018-05-05T12:19:40Z</time>
      </trkpt>
      <trkpt lat="43.89393" lon="1.78094">
        <ele>193.36</ele>
        <time>2018-05-05T12:19:54Z</time>
      </trkpt>
      <trkpt lat="43.89395" lon="1.78109">
        <ele>194.8</ele>
        <time>2018-05-05T12:20:05Z</time>
      </trkpt>
      <trkpt lat="43.89391" lon="1.78124">
        <ele>196.25</ele>
        <time>2018-05-05T12:20:17Z</time>
      </trkpt>
      <trkpt lat="43.89385" lon="1.78135">
        <ele>196.73</ele>
        <time>2018-05-05T12:20:28Z</time>
      </trkpt>
      <trkpt lat="43.89378" lon="1.78145">
        <ele>197.69</ele>
        <time>2018-05-05T12:20:40Z</time>
      </trkpt>
      <trkpt lat="43.89376" lon="1.78149">
        <ele>197.69</ele>
        <time>2018-05-05T12:20:43Z</time>
      </trkpt>
      <trkpt lat="43.89369" lon="1.78159">
        <ele>198.17</ele>
        <time>2018-05-05T12:20:50Z</time>
      </trkpt>
      <trkpt lat="43.89363" lon="1.78175">
        <ele>198.65</ele>
        <time>2018-05-05T12:21:01Z</time>
      </trkpt>
      <trkpt lat="43.89359" lon="1.78185">
        <ele>198.65</ele>
        <time>2018-05-05T12:21:07Z</time>
      </trkpt>
      <trkpt lat="43.89356" lon="1.78192">
        <ele>199.13</ele>
        <time>2018-05-05T12:21:13Z</time>
      </trkpt>
      <trkpt lat="43.89354" lon="1.78196">
        <ele>199.61</ele>
        <time>2018-05-05T12:21:17Z</time>
      </trkpt>
      <trkpt lat="43.89353" lon="1.78199">
        <ele>199.61</ele>
        <time>2018-05-05T12:21:19Z</time>
      </trkpt>
      <trkpt lat="43.89347" lon="1.78211">
        <ele>200.57</ele>
        <time>2018-05-05T12:21:29Z</time>
      </trkpt>
      <trkpt lat="43.89341" lon="1.78222">
        <ele>200.57</ele>
        <time>2018-05-05T12:21:36Z</time>
      </trkpt>
      <trkpt lat="43.89333" lon="1.78235">
        <ele>201.53</ele>
        <time>2018-05-05T12:21:48Z</time>
      </trkpt>
      <trkpt lat="43.89329" lon="1.78249">
        <ele>202.49</ele>
        <time>2018-05-05T12:21:59Z</time>
      </trkpt>
      <trkpt lat="43.89328" lon="1.78266">
        <ele>203.94</ele>
        <time>2018-05-05T12:22:12Z</time>
      </trkpt>
      <trkpt lat="43.89325" lon="1.78276">
        <ele>204.42</ele>
        <time>2018-05-05T12:22:22Z</time>
      </trkpt>
      <trkpt lat="43.89321" lon="1.7829">
        <ele>206.82</ele>
        <time>2018-05-05T12:22:37Z</time>
      </trkpt>
      <trkpt lat="43.89316" lon="1.78303">
        <ele>207.78</ele>
        <time>2018-05-05T12:22:48Z</time>
      </trkpt>
      <trkpt lat="43.89308" lon="1.78318">
        <ele>209.22</ele>
        <time>2018-05-05T12:23:01Z</time>
      </trkpt>
      <trkpt lat="43.89299" lon="1.78329">
        <ele>209.22</ele>
        <time>2018-05-05T12:23:12Z</time>
      </trkpt>
      <trkpt lat="43.89293" lon="1.78345">
        <ele>209.7</ele>
        <time>2018-05-05T12:23:25Z</time>
      </trkpt>
      <trkpt lat="43.89285" lon="1.78361">
        <ele>210.67</ele>
        <time>2018-05-05T12:23:38Z</time>
      </trkpt>
      <trkpt lat="43.89278" lon="1.78375">
        <ele>212.11</ele>
        <time>2018-05-05T12:23:52Z</time>
      </trkpt>
      <trkpt lat="43.8928" lon="1.78379">
        <ele>212.11</ele>
        <time>2018-05-05T12:24:08Z</time>
      </trkpt>
      <trkpt lat="43.89276" lon="1.78393">
        <ele>213.55</ele>
        <time>2018-05-05T12:24:25Z</time>
      </trkpt>
      <trkpt lat="43.89267" lon="1.7841">
        <ele>215.47</ele>
        <time>2018-05-05T12:24:38Z</time>
      </trkpt>
      <trkpt lat="43.8926" lon="1.78423">
        <ele>216.91</ele>
        <time>2018-05-05T12:24:49Z</time>
      </trkpt>
      <trkpt lat="43.89256" lon="1.78432">
        <ele>217.88</ele>
        <time>2018-05-05T12:25:00Z</time>
      </trkpt>
      <trkpt lat="43.89254" lon="1.78439">
        <ele>218.84</ele>
        <time>2018-05-05T12:25:13Z</time>
      </trkpt>
      <trkpt lat="43.89251" lon="1.78443">
        <ele>219.32</ele>
        <time>2018-05-05T12:25:18Z</time>
      </trkpt>
      <trkpt lat="43.8925" lon="1.78445">
        <ele>219.8</ele>
        <time>2018-05-05T12:25:20Z</time>
      </trkpt>
      <trkpt lat="43.89248" lon="1.78449">
        <ele>219.8</ele>
        <time>2018-05-05T12:25:23Z</time>
      </trkpt>
      <trkpt lat="43.8924" lon="1.78461">
        <ele>221.24</ele>
        <time>2018-05-05T12:25:37Z</time>
      </trkpt>
      <trkpt lat="43.89239" lon="1.78463">
        <ele>221.72</ele>
        <time>2018-05-05T12:25:39Z</time>
      </trkpt>
      <trkpt lat="43.89231" lon="1.78475">
        <ele>223.16</ele>
        <time>2018-05-05T12:25:52Z</time>
      </trkpt>
      <trkpt lat="43.89227" lon="1.78481">
        <ele>223.64</ele>
        <time>2018-05-05T12:25:59Z</time>
      </trkpt>
      <trkpt lat="43.89216" lon="1.78495">
        <ele>225.09</ele>
        <time>2018-05-05T12:26:13Z</time>
      </trkpt>
      <trkpt lat="43.89213" lon="1.78501">
        <ele>225.09</ele>
        <time>2018-05-05T12:26:18Z</time>
      </trkpt>
      <trkpt lat="43.89203" lon="1.78514">
        <ele>226.53</ele>
        <time>2018-05-05T12:26:31Z</time>
      </trkpt>
      <trkpt lat="43.89201" lon="1.78517">
        <ele>227.01</ele>
        <time>2018-05-05T12:26:34Z</time>
      </trkpt>
      <trkpt lat="43.89196" lon="1.78525">
        <ele>227.97</ele>
        <time>2018-05-05T12:26:44Z</time>
      </trkpt>
      <trkpt lat="43.89192" lon="1.78534">
        <ele>228.93</ele>
        <time>2018-05-05T12:26:58Z</time>
      </trkpt>
      <trkpt lat="43.8919" lon="1.78539">
        <ele>228.93</ele>
        <time>2018-05-05T12:27:22Z</time>
      </trkpt>
      <trkpt lat="43.89189" lon="1.78539">
        <ele>229.41</ele>
        <time>2018-05-05T12:27:42Z</time>
      </trkpt>
      <trkpt lat="43.8919" lon="1.78539">
        <ele>229.41</ele>
        <time>2018-05-05T12:28:09Z</time>
      </trkpt>
      <trkpt lat="43.8919" lon="1.78539">
        <ele>229.41</ele>
        <time>2018-05-05T12:28:37Z</time>
      </trkpt>
      <trkpt lat="43.89191" lon="1.7854">
        <ele>229.41</ele>
        <time>2018-05-05T12:29:04Z</time>
      </trkpt>
      <trkpt lat="43.8919" lon="1.78541">
        <ele>229.41</ele>
        <time>2018-05-05T12:29:18Z</time>
      </trkpt>
      <trkpt lat="43.89193" lon="1.78538">
        <ele>229.41</ele>
        <time>2018-05-05T12:29:49Z</time>
      </trkpt>
      <trkpt lat="43.89196" lon="1.78542">
        <ele>229.89</ele>
        <time>2018-05-05T12:30:10Z</time>
      </trkpt>
      <trkpt lat="43.89196" lon="1.78543">
        <ele>228.93</ele>
        <time>2018-05-05T12:30:27Z</time>
      </trkpt>
      <trkpt lat="43.89209" lon="1.78551">
        <ele>229.89</ele>
        <time>2018-05-05T12:30:41Z</time>
      </trkpt>
      <trkpt lat="43.89212" lon="1.78553">
        <ele>230.37</ele>
        <time>2018-05-05T12:30:44Z</time>
      </trkpt>
      <trkpt lat="43.89215" lon="1.78556">
        <ele>230.37</ele>
        <time>2018-05-05T12:30:47Z</time>
      </trkpt>
      <trkpt lat="43.89225" lon="1.78565">
        <ele>231.33</ele>
        <time>2018-05-05T12:31:00Z</time>
      </trkpt>
      <trkpt lat="43.89232" lon="1.78572">
        <ele>231.81</ele>
        <time>2018-05-05T12:31:10Z</time>
      </trkpt>
      <trkpt lat="43.89234" lon="1.78574">
        <ele>232.3</ele>
        <time>2018-05-05T12:31:13Z</time>
      </trkpt>
      <trkpt lat="43.89246" lon="1.78586">
        <ele>234.22</ele>
        <time>2018-05-05T12:31:28Z</time>
      </trkpt>
      <trkpt lat="43.89253" lon="1.78595">
        <ele>235.18</ele>
        <time>2018-05-05T12:31:39Z</time>
      </trkpt>
      <trkpt lat="43.8926" lon="1.78607">
        <ele>236.62</ele>
        <time>2018-05-05T12:31:51Z</time>
      </trkpt>
      <trkpt lat="43.89266" lon="1.78625">
        <ele>236.14</ele>
        <time>2018-05-05T12:32:05Z</time>
      </trkpt>
      <trkpt lat="43.89272" lon="1.78643">
        <ele>234.7</ele>
        <time>2018-05-05T12:32:20Z</time>
      </trkpt>
      <trkpt lat="43.89273" lon="1.78649">
        <ele>234.7</ele>
        <time>2018-05-05T12:32:24Z</time>
      </trkpt>
      <trkpt lat="43.89282" lon="1.78669">
        <ele>233.74</ele>
        <time>2018-05-05T12:32:41Z</time>
      </trkpt>
      <trkpt lat="43.89285" lon="1.78683">
        <ele>233.74</ele>
        <time>2018-05-05T12:32:54Z</time>
      </trkpt>
      <trkpt lat="43.89292" lon="1.787">
        <ele>234.22</ele>
        <time>2018-05-05T12:33:07Z</time>
      </trkpt>
      <trkpt lat="43.89293" lon="1.78702">
        <ele>234.7</ele>
        <time>2018-05-05T12:33:09Z</time>
      </trkpt>
      <trkpt lat="43.893" lon="1.78714">
        <ele>236.14</ele>
        <time>2018-05-05T12:33:24Z</time>
      </trkpt>
      <trkpt lat="43.89305" lon="1.78726">
        <ele>237.1</ele>
        <time>2018-05-05T12:33:36Z</time>
      </trkpt>
      <trkpt lat="43.89311" lon="1.78734">
        <ele>238.54</ele>
        <time>2018-05-05T12:33:51Z</time>
      </trkpt>
      <trkpt lat="43.89314" lon="1.78743">
        <ele>239.51</ele>
        <time>2018-05-05T12:34:02Z</time>
      </trkpt>
      <trkpt lat="43.89318" lon="1.78747">
        <ele>240.47</ele>
        <time>2018-05-05T12:34:16Z</time>
      </trkpt>
      <trkpt lat="43.89321" lon="1.78755">
        <ele>242.39</ele>
        <time>2018-05-05T12:34:35Z</time>
      </trkpt>
      <trkpt lat="43.89325" lon="1.78771">
        <ele>244.31</ele>
        <time>2018-05-05T12:34:49Z</time>
      </trkpt>
      <trkpt lat="43.89329" lon="1.78787">
        <ele>245.75</ele>
        <time>2018-05-05T12:35:02Z</time>
      </trkpt>
      <trkpt lat="43.89332" lon="1.78799">
        <ele>247.68</ele>
        <time>2018-05-05T12:35:13Z</time>
      </trkpt>
      <trkpt lat="43.89334" lon="1.78814">
        <ele>249.6</ele>
        <time>2018-05-05T12:35:26Z</time>
      </trkpt>
      <trkpt lat="43.89337" lon="1.7883">
        <ele>249.12</ele>
        <time>2018-05-05T12:35:40Z</time>
      </trkpt>
      <trkpt lat="43.89337" lon="1.78849">
        <ele>248.16</ele>
        <time>2018-05-05T12:35:55Z</time>
      </trkpt>
      <trkpt lat="43.89338" lon="1.78872">
        <ele>248.16</ele>
        <time>2018-05-05T12:36:11Z</time>
      </trkpt>
      <trkpt lat="43.89343" lon="1.78887">
        <ele>248.16</ele>
        <time>2018-05-05T12:36:23Z</time>
      </trkpt>
      <trkpt lat="43.89351" lon="1.78905">
        <ele>248.64</ele>
        <time>2018-05-05T12:36:38Z</time>
      </trkpt>
      <trkpt lat="43.89356" lon="1.78921">
        <ele>249.6</ele>
        <time>2018-05-05T12:36:51Z</time>
      </trkpt>
      <trkpt lat="43.89355" lon="1.78935">
        <ele>250.56</ele>
        <time>2018-05-05T12:37:03Z</time>
      </trkpt>
      <trkpt lat="43.89347" lon="1.78946">
        <ele>251.04</ele>
        <time>2018-05-05T12:37:15Z</time>
      </trkpt>
      <trkpt lat="43.89341" lon="1.78962">
        <ele>251.52</ele>
        <time>2018-05-05T12:37:28Z</time>
      </trkpt>
      <trkpt lat="43.89335" lon="1.78975">
        <ele>251.04</ele>
        <time>2018-05-05T12:37:41Z</time>
      </trkpt>
      <trkpt lat="43.89326" lon="1.78991">
        <ele>251.04</ele>
        <time>2018-05-05T12:37:56Z</time>
      </trkpt>
      <trkpt lat="43.89313" lon="1.79008">
        <ele>249.12</ele>
        <time>2018-05-05T12:38:14Z</time>
      </trkpt>
      <trkpt lat="43.89306" lon="1.79025">
        <ele>247.2</ele>
        <time>2018-05-05T12:38:28Z</time>
      </trkpt>
      <trkpt lat="43.89297" lon="1.79041">
        <ele>245.75</ele>
        <time>2018-05-05T12:38:43Z</time>
      </trkpt>
      <trkpt lat="43.89299" lon="1.79059">
        <ele>243.35</ele>
        <time>2018-05-05T12:38:56Z</time>
      </trkpt>
      <trkpt lat="43.89304" lon="1.79071">
        <ele>242.39</ele>
        <time>2018-05-05T12:39:10Z</time>
      </trkpt>
      <trkpt lat="43.89313" lon="1.79086">
        <ele>241.43</ele>
        <time>2018-05-05T12:39:24Z</time>
      </trkpt>
      <trkpt lat="43.8932" lon="1.79104">
        <ele>240.95</ele>
        <time>2018-05-05T12:39:39Z</time>
      </trkpt>
      <trkpt lat="43.89324" lon="1.79107">
        <ele>241.43</ele>
        <time>2018-05-05T12:39:51Z</time>
      </trkpt>
      <trkpt lat="43.89327" lon="1.79105">
        <ele>241.43</ele>
        <time>2018-05-05T12:40:14Z</time>
      </trkpt>
      <trkpt lat="43.89331" lon="1.79106">
        <ele>241.43</ele>
        <time>2018-05-05T12:40:32Z</time>
      </trkpt>
      <trkpt lat="43.89337" lon="1.791">
        <ele>241.43</ele>
        <time>2018-05-05T12:40:44Z</time>
      </trkpt>
      <trkpt lat="43.89341" lon="1.791">
        <ele>240.95</ele>
        <time>2018-05-05T12:41:03Z</time>
      </trkpt>
      <trkpt lat="43.89348" lon="1.79095">
        <ele>239.99</ele>
        <time>2018-05-05T12:41:18Z</time>
      </trkpt>
      <trkpt lat="43.89359" lon="1.79089">
        <ele>238.54</ele>
        <time>2018-05-05T12:41:31Z</time>
      </trkpt>
      <trkpt lat="43.89365" lon="1.79085">
        <ele>237.58</ele>
        <time>2018-05-05T12:41:45Z</time>
      </trkpt>
      <trkpt lat="43.89379" lon="1.79083">
        <ele>236.14</ele>
        <time>2018-05-05T12:41:58Z</time>
      </trkpt>
      <trkpt lat="43.8939" lon="1.79089">
        <ele>234.7</ele>
        <time>2018-05-05T12:42:10Z</time>
      </trkpt>
      <trkpt lat="43.89401" lon="1.79096">
        <ele>234.22</ele>
        <time>2018-05-05T12:42:20Z</time>
      </trkpt>
      <trkpt lat="43.8941" lon="1.79105">
        <ele>233.74</ele>
        <time>2018-05-05T12:42:33Z</time>
      </trkpt>
      <trkpt lat="43.89414" lon="1.79114">
        <ele>232.78</ele>
        <time>2018-05-05T12:43:01Z</time>
      </trkpt>
      <trkpt lat="43.89418" lon="1.79116">
        <ele>232.78</ele>
        <time>2018-05-05T12:43:04Z</time>
      </trkpt>
      <trkpt lat="43.89419" lon="1.79121">
        <ele>232.78</ele>
        <time>2018-05-05T12:43:08Z</time>
      </trkpt>
      <trkpt lat="43.8942" lon="1.79128">
        <ele>232.78</ele>
        <time>2018-05-05T12:43:13Z</time>
      </trkpt>
      <trkpt lat="43.89423" lon="1.79146">
        <ele>232.3</ele>
        <time>2018-05-05T12:43:25Z</time>
      </trkpt>
      <trkpt lat="43.89429" lon="1.79161">
        <ele>232.3</ele>
        <time>2018-05-05T12:43:37Z</time>
      </trkpt>
      <trkpt lat="43.8944" lon="1.79176">
        <ele>232.3</ele>
        <time>2018-05-05T12:43:50Z</time>
      </trkpt>
      <trkpt lat="43.8945" lon="1.7918">
        <ele>231.81</ele>
        <time>2018-05-05T12:43:58Z</time>
      </trkpt>
      <trkpt lat="43.89461" lon="1.79181">
        <ele>231.33</ele>
        <time>2018-05-05T12:44:08Z</time>
      </trkpt>
      <trkpt lat="43.89468" lon="1.79178">
        <ele>231.33</ele>
        <time>2018-05-05T12:44:25Z</time>
      </trkpt>
      <trkpt lat="43.89476" lon="1.79175">
        <ele>231.81</ele>
        <time>2018-05-05T12:44:40Z</time>
      </trkpt>
      <trkpt lat="43.89485" lon="1.7917">
        <ele>232.78</ele>
        <time>2018-05-05T12:44:53Z</time>
      </trkpt>
      <trkpt lat="43.89494" lon="1.79169">
        <ele>233.26</ele>
        <time>2018-05-05T12:45:13Z</time>
      </trkpt>
      <trkpt lat="43.89499" lon="1.79167">
        <ele>233.74</ele>
        <time>2018-05-05T12:45:18Z</time>
      </trkpt>
      <trkpt lat="43.89503" lon="1.79168">
        <ele>234.22</ele>
        <time>2018-05-05T12:45:22Z</time>
      </trkpt>
      <trkpt lat="43.89518" lon="1.79165">
        <ele>234.7</ele>
        <time>2018-05-05T12:45:37Z</time>
      </trkpt>
      <trkpt lat="43.8953" lon="1.79165">
        <ele>235.18</ele>
        <time>2018-05-05T12:45:49Z</time>
      </trkpt>
      <trkpt lat="43.89541" lon="1.79164">
        <ele>235.66</ele>
        <time>2018-05-05T12:45:59Z</time>
      </trkpt>
      <trkpt lat="43.8955" lon="1.79164">
        <ele>235.66</ele>
        <time>2018-05-05T12:46:07Z</time>
      </trkpt>
      <trkpt lat="43.89564" lon="1.79162">
        <ele>235.66</ele>
        <time>2018-05-05T12:46:19Z</time>
      </trkpt>
      <trkpt lat="43.89565" lon="1.79162">
        <ele>235.66</ele>
        <time>2018-05-05T12:46:20Z</time>
      </trkpt>
      <trkpt lat="43.89574" lon="1.79163">
        <ele>235.66</ele>
        <time>2018-05-05T12:46:28Z</time>
      </trkpt>
      <trkpt lat="43.89587" lon="1.79161">
        <ele>236.14</ele>
        <time>2018-05-05T12:46:41Z</time>
      </trkpt>
      <trkpt lat="43.89598" lon="1.79157">
        <ele>236.62</ele>
        <time>2018-05-05T12:46:54Z</time>
      </trkpt>
      <trkpt lat="43.8961" lon="1.79153">
        <ele>237.1</ele>
        <time>2018-05-05T12:47:06Z</time>
      </trkpt>
      <trkpt lat="43.89612" lon="1.79153">
        <ele>237.1</ele>
        <time>2018-05-05T12:47:08Z</time>
      </trkpt>
      <trkpt lat="43.89626" lon="1.79146">
        <ele>238.54</ele>
        <time>2018-05-05T12:47:22Z</time>
      </trkpt>
      <trkpt lat="43.89632" lon="1.79145">
        <ele>238.54</ele>
        <time>2018-05-05T12:47:28Z</time>
      </trkpt>
      <trkpt lat="43.89649" lon="1.79145">
        <ele>240.47</ele>
        <time>2018-05-05T12:47:43Z</time>
      </trkpt>
      <trkpt lat="43.89664" lon="1.79143">
        <ele>240.95</ele>
        <time>2018-05-05T12:47:58Z</time>
      </trkpt>
      <trkpt lat="43.89681" lon="1.79135">
        <ele>241.43</ele>
        <time>2018-05-05T12:48:13Z</time>
      </trkpt>
      <trkpt lat="43.8969" lon="1.79131">
        <ele>241.43</ele>
        <time>2018-05-05T12:48:29Z</time>
      </trkpt>
      <trkpt lat="43.89697" lon="1.79128">
        <ele>241.91</ele>
        <time>2018-05-05T12:48:43Z</time>
      </trkpt>
      <trkpt lat="43.89703" lon="1.7913">
        <ele>241.91</ele>
        <time>2018-05-05T12:49:07Z</time>
      </trkpt>
      <trkpt lat="43.89718" lon="1.79141">
        <ele>241.43</ele>
        <time>2018-05-05T12:49:21Z</time>
      </trkpt>
      <trkpt lat="43.89731" lon="1.79144">
        <ele>240.95</ele>
        <time>2018-05-05T12:49:34Z</time>
      </trkpt>
      <trkpt lat="43.89746" lon="1.79141">
        <ele>240.47</ele>
        <time>2018-05-05T12:49:48Z</time>
      </trkpt>
      <trkpt lat="43.89758" lon="1.79139">
        <ele>239.99</ele>
        <time>2018-05-05T12:50:01Z</time>
      </trkpt>
      <trkpt lat="43.89768" lon="1.79136">
        <ele>239.99</ele>
        <time>2018-05-05T12:50:13Z</time>
      </trkpt>
      <trkpt lat="43.89785" lon="1.79131">
        <ele>239.51</ele>
        <time>2018-05-05T12:50:29Z</time>
      </trkpt>
      <trkpt lat="43.89793" lon="1.7913">
        <ele>239.51</ele>
        <time>2018-05-05T12:50:39Z</time>
      </trkpt>
      <trkpt lat="43.89809" lon="1.79126">
        <ele>239.99</ele>
        <time>2018-05-05T12:50:52Z</time>
      </trkpt>
      <trkpt lat="43.89823" lon="1.79124">
        <ele>239.99</ele>
        <time>2018-05-05T12:51:05Z</time>
      </trkpt>
      <trkpt lat="43.89835" lon="1.79125">
        <ele>240.47</ele>
        <time>2018-05-05T12:51:18Z</time>
      </trkpt>
      <trkpt lat="43.89846" lon="1.79125">
        <ele>240.95</ele>
        <time>2018-05-05T12:51:27Z</time>
      </trkpt>
      <trkpt lat="43.89855" lon="1.79123">
        <ele>241.43</ele>
        <time>2018-05-05T12:51:39Z</time>
      </trkpt>
      <trkpt lat="43.89854" lon="1.79119">
        <ele>241.43</ele>
        <time>2018-05-05T12:51:58Z</time>
      </trkpt>
      <trkpt lat="43.89859" lon="1.79121">
        <ele>241.43</ele>
        <time>2018-05-05T12:52:15Z</time>
      </trkpt>
      <trkpt lat="43.89855" lon="1.79119">
        <ele>241.43</ele>
        <time>2018-05-05T12:52:33Z</time>
      </trkpt>
      <trkpt lat="43.89861" lon="1.79109">
        <ele>239.51</ele>
        <time>2018-05-05T12:52:50Z</time>
      </trkpt>
      <trkpt lat="43.89867" lon="1.79098">
        <ele>237.58</ele>
        <time>2018-05-05T12:53:01Z</time>
      </trkpt>
      <trkpt lat="43.89878" lon="1.79084">
        <ele>236.62</ele>
        <time>2018-05-05T12:53:16Z</time>
      </trkpt>
      <trkpt lat="43.89886" lon="1.79072">
        <ele>235.18</ele>
        <time>2018-05-05T12:53:31Z</time>
      </trkpt>
      <trkpt lat="43.89896" lon="1.79059">
        <ele>233.26</ele>
        <time>2018-05-05T12:53:46Z</time>
      </trkpt>
      <trkpt lat="43.89906" lon="1.79046">
        <ele>230.85</ele>
        <time>2018-05-05T12:54:00Z</time>
      </trkpt>
      <trkpt lat="43.89916" lon="1.79031">
        <ele>229.89</ele>
        <time>2018-05-05T12:54:14Z</time>
      </trkpt>
      <trkpt lat="43.89928" lon="1.7902">
        <ele>228.45</ele>
        <time>2018-05-05T12:54:28Z</time>
      </trkpt>
      <trkpt lat="43.8993" lon="1.79018">
        <ele>227.97</ele>
        <time>2018-05-05T12:54:30Z</time>
      </trkpt>
      <trkpt lat="43.89939" lon="1.79012">
        <ele>227.01</ele>
        <time>2018-05-05T12:54:40Z</time>
      </trkpt>
      <trkpt lat="43.89949" lon="1.79003">
        <ele>226.05</ele>
        <time>2018-05-05T12:54:52Z</time>
      </trkpt>
      <trkpt lat="43.89956" lon="1.78993">
        <ele>223.64</ele>
        <time>2018-05-05T12:55:04Z</time>
      </trkpt>
      <trkpt lat="43.89962" lon="1.78977">
        <ele>220.76</ele>
        <time>2018-05-05T12:55:18Z</time>
      </trkpt>
      <trkpt lat="43.89968" lon="1.78961">
        <ele>219.32</ele>
        <time>2018-05-05T12:55:32Z</time>
      </trkpt>
      <trkpt lat="43.89973" lon="1.78956">
        <ele>219.32</ele>
        <time>2018-05-05T12:55:46Z</time>
      </trkpt>
      <trkpt lat="43.89973" lon="1.78955">
        <ele>219.32</ele>
        <time>2018-05-05T12:55:49Z</time>
      </trkpt>
      <trkpt lat="43.89976" lon="1.78951">
        <ele>218.84</ele>
        <time>2018-05-05T12:55:53Z</time>
      </trkpt>
      <trkpt lat="43.8998" lon="1.78947">
        <ele>218.84</ele>
        <time>2018-05-05T12:55:59Z</time>
      </trkpt>
      <trkpt lat="43.8999" lon="1.78948">
        <ele>219.32</ele>
        <time>2018-05-05T12:56:12Z</time>
      </trkpt>
      <trkpt lat="43.9" lon="1.7895">
        <ele>219.8</ele>
        <time>2018-05-05T12:56:24Z</time>
      </trkpt>
      <trkpt lat="43.90008" lon="1.78953">
        <ele>219.8</ele>
        <time>2018-05-05T12:56:37Z</time>
      </trkpt>
      <trkpt lat="43.90022" lon="1.78946">
        <ele>218.36</ele>
        <time>2018-05-05T12:56:52Z</time>
      </trkpt>
      <trkpt lat="43.90026" lon="1.78943">
        <ele>217.4</ele>
        <time>2018-05-05T12:56:56Z</time>
      </trkpt>
      <trkpt lat="43.90037" lon="1.78929">
        <ele>214.51</ele>
        <time>2018-05-05T12:57:11Z</time>
      </trkpt>
      <trkpt lat="43.90044" lon="1.78919">
        <ele>213.07</ele>
        <time>2018-05-05T12:57:21Z</time>
      </trkpt>
      <trkpt lat="43.90049" lon="1.78915">
        <ele>212.59</ele>
        <time>2018-05-05T12:57:32Z</time>
      </trkpt>
      <trkpt lat="43.90055" lon="1.78902">
        <ele>212.11</ele>
        <time>2018-05-05T12:57:46Z</time>
      </trkpt>
      <trkpt lat="43.90058" lon="1.78895">
        <ele>211.63</ele>
        <time>2018-05-05T12:57:52Z</time>
      </trkpt>
      <trkpt lat="43.90059" lon="1.78879">
        <ele>211.15</ele>
        <time>2018-05-05T12:58:06Z</time>
      </trkpt>
      <trkpt lat="43.90061" lon="1.78862">
        <ele>210.67</ele>
        <time>2018-05-05T12:58:19Z</time>
      </trkpt>
      <trkpt lat="43.90065" lon="1.78844">
        <ele>210.67</ele>
        <time>2018-05-05T12:58:31Z</time>
      </trkpt>
      <trkpt lat="43.90066" lon="1.78826">
        <ele>209.7</ele>
        <time>2018-05-05T12:58:46Z</time>
      </trkpt>
      <trkpt lat="43.90069" lon="1.78808">
        <ele>209.22</ele>
        <time>2018-05-05T12:59:00Z</time>
      </trkpt>
      <trkpt lat="43.90074" lon="1.78795">
        <ele>209.22</ele>
        <time>2018-05-05T12:59:09Z</time>
      </trkpt>
      <trkpt lat="43.90078" lon="1.78783">
        <ele>209.22</ele>
        <time>2018-05-05T12:59:17Z</time>
      </trkpt>
      <trkpt lat="43.9008" lon="1.78775">
        <ele>209.22</ele>
        <time>2018-05-05T12:59:23Z</time>
      </trkpt>
      <trkpt lat="43.90083" lon="1.78754">
        <ele>209.22</ele>
        <time>2018-05-05T12:59:36Z</time>
      </trkpt>
      <trkpt lat="43.90086" lon="1.78734">
        <ele>208.74</ele>
        <time>2018-05-05T12:59:50Z</time>
      </trkpt>
      <trkpt lat="43.90087" lon="1.7871">
        <ele>207.78</ele>
        <time>2018-05-05T13:00:05Z</time>
      </trkpt>
      <trkpt lat="43.90084" lon="1.78694">
        <ele>206.82</ele>
        <time>2018-05-05T13:00:17Z</time>
      </trkpt>
      <trkpt lat="43.90084" lon="1.78687">
        <ele>205.86</ele>
        <time>2018-05-05T13:00:28Z</time>
      </trkpt>
      <trkpt lat="43.90082" lon="1.78674">
        <ele>204.42</ele>
        <time>2018-05-05T13:00:47Z</time>
      </trkpt>
      <trkpt lat="43.90081" lon="1.78663">
        <ele>203.94</ele>
        <time>2018-05-05T13:01:04Z</time>
      </trkpt>
      <trkpt lat="43.9008" lon="1.78648">
        <ele>202.01</ele>
        <time>2018-05-05T13:01:17Z</time>
      </trkpt>
      <trkpt lat="43.90083" lon="1.78638">
        <ele>201.05</ele>
        <time>2018-05-05T13:01:27Z</time>
      </trkpt>
      <trkpt lat="43.90087" lon="1.7863">
        <ele>200.57</ele>
        <time>2018-05-05T13:01:42Z</time>
      </trkpt>
      <trkpt lat="43.90096" lon="1.78613">
        <ele>198.17</ele>
        <time>2018-05-05T13:01:57Z</time>
      </trkpt>
      <trkpt lat="43.90103" lon="1.78604">
        <ele>196.73</ele>
        <time>2018-05-05T13:02:10Z</time>
      </trkpt>
      <trkpt lat="43.9011" lon="1.78597">
        <ele>195.77</ele>
        <time>2018-05-05T13:02:22Z</time>
      </trkpt>
      <trkpt lat="43.90118" lon="1.78588">
        <ele>194.8</ele>
        <time>2018-05-05T13:02:36Z</time>
      </trkpt>
      <trkpt lat="43.9012" lon="1.78579">
        <ele>193.84</ele>
        <time>2018-05-05T13:02:49Z</time>
      </trkpt>
      <trkpt lat="43.90125" lon="1.78566">
        <ele>192.4</ele>
        <time>2018-05-05T13:03:01Z</time>
      </trkpt>
      <trkpt lat="43.90127" lon="1.78554">
        <ele>191.92</ele>
        <time>2018-05-05T13:03:13Z</time>
      </trkpt>
      <trkpt lat="43.90126" lon="1.78549">
        <ele>192.4</ele>
        <time>2018-05-05T13:03:25Z</time>
      </trkpt>
      <trkpt lat="43.90128" lon="1.78543">
        <ele>191.92</ele>
        <time>2018-05-05T13:03:36Z</time>
      </trkpt>
      <trkpt lat="43.90127" lon="1.78529">
        <ele>191.92</ele>
        <time>2018-05-05T13:03:47Z</time>
      </trkpt>
      <trkpt lat="43.90125" lon="1.78526">
        <ele>191.92</ele>
        <time>2018-05-05T13:03:50Z</time>
      </trkpt>
      <trkpt lat="43.90117" lon="1.78526">
        <ele>191.92</ele>
        <time>2018-05-05T13:04:02Z</time>
      </trkpt>
      <trkpt lat="43.90108" lon="1.78526">
        <ele>191.92</ele>
        <time>2018-05-05T13:04:14Z</time>
      </trkpt>
      <trkpt lat="43.90099" lon="1.78523">
        <ele>191.44</ele>
        <time>2018-05-05T13:04:26Z</time>
      </trkpt>
      <trkpt lat="43.90089" lon="1.78519">
        <ele>191.44</ele>
        <time>2018-05-05T13:04:39Z</time>
      </trkpt>
      <trkpt lat="43.90081" lon="1.78512">
        <ele>192.4</ele>
        <time>2018-05-05T13:04:52Z</time>
      </trkpt>
      <trkpt lat="43.90082" lon="1.785">
        <ele>193.36</ele>
        <time>2018-05-05T13:05:04Z</time>
      </trkpt>
      <trkpt lat="43.90084" lon="1.78485">
        <ele>194.32</ele>
        <time>2018-05-05T13:05:16Z</time>
      </trkpt>
      <trkpt lat="43.90086" lon="1.78471">
        <ele>195.28</ele>
        <time>2018-05-05T13:05:27Z</time>
      </trkpt>
      <trkpt lat="43.90084" lon="1.78458">
        <ele>196.73</ele>
        <time>2018-05-05T13:05:39Z</time>
      </trkpt>
      <trkpt lat="43.90084" lon="1.78446">
        <ele>198.17</ele>
        <time>2018-05-05T13:05:52Z</time>
      </trkpt>
      <trkpt lat="43.90086" lon="1.78429">
        <ele>199.61</ele>
        <time>2018-05-05T13:06:05Z</time>
      </trkpt>
      <trkpt lat="43.90088" lon="1.7842">
        <ele>200.57</ele>
        <time>2018-05-05T13:06:14Z</time>
      </trkpt>
      <trkpt lat="43.90093" lon="1.78411">
        <ele>200.57</ele>
        <time>2018-05-05T13:06:28Z</time>
      </trkpt>
      <trkpt lat="43.90097" lon="1.784">
        <ele>201.05</ele>
        <time>2018-05-05T13:06:40Z</time>
      </trkpt>
      <trkpt lat="43.90103" lon="1.78388">
        <ele>201.53</ele>
        <time>2018-05-05T13:06:53Z</time>
      </trkpt>
      <trkpt lat="43.90106" lon="1.78373">
        <ele>202.01</ele>
        <time>2018-05-05T13:07:07Z</time>
      </trkpt>
      <trkpt lat="43.9011" lon="1.7836">
        <ele>202.49</ele>
        <time>2018-05-05T13:07:17Z</time>
      </trkpt>
      <trkpt lat="43.90116" lon="1.78347">
        <ele>202.98</ele>
        <time>2018-05-05T13:07:30Z</time>
      </trkpt>
      <trkpt lat="43.90118" lon="1.78345">
        <ele>203.46</ele>
        <time>2018-05-05T13:07:32Z</time>
      </trkpt>
      <trkpt lat="43.90126" lon="1.78333">
        <ele>203.94</ele>
        <time>2018-05-05T13:07:46Z</time>
      </trkpt>
      <trkpt lat="43.90134" lon="1.78322">
        <ele>204.42</ele>
        <time>2018-05-05T13:07:59Z</time>
      </trkpt>
      <trkpt lat="43.90135" lon="1.78321">
        <ele>204.42</ele>
        <time>2018-05-05T13:08:00Z</time>
      </trkpt>
      <trkpt lat="43.90139" lon="1.78316">
        <ele>204.9</ele>
        <time>2018-05-05T13:08:06Z</time>
      </trkpt>
      <trkpt lat="43.90142" lon="1.78312">
        <ele>204.9</ele>
        <time>2018-05-05T13:08:11Z</time>
      </trkpt>
      <trkpt lat="43.9015" lon="1.78302">
        <ele>205.38</ele>
        <time>2018-05-05T13:08:23Z</time>
      </trkpt>
      <trkpt lat="43.90156" lon="1.78291">
        <ele>205.86</ele>
        <time>2018-05-05T13:08:35Z</time>
      </trkpt>
      <trkpt lat="43.90165" lon="1.78279">
        <ele>206.34</ele>
        <time>2018-05-05T13:08:49Z</time>
      </trkpt>
      <trkpt lat="43.90167" lon="1.78277">
        <ele>206.82</ele>
        <time>2018-05-05T13:08:52Z</time>
      </trkpt>
      <trkpt lat="43.90172" lon="1.78269">
        <ele>207.3</ele>
        <time>2018-05-05T13:09:00Z</time>
      </trkpt>
      <trkpt lat="43.90177" lon="1.78259">
        <ele>208.26</ele>
        <time>2018-05-05T13:09:12Z</time>
      </trkpt>
      <trkpt lat="43.90178" lon="1.78256">
        <ele>208.74</ele>
        <time>2018-05-05T13:09:16Z</time>
      </trkpt>
      <trkpt lat="43.90185" lon="1.78245">
        <ele>209.22</ele>
        <time>2018-05-05T13:09:28Z</time>
      </trkpt>
      <trkpt lat="43.90195" lon="1.78231">
        <ele>210.19</ele>
        <time>2018-05-05T13:09:43Z</time>
      </trkpt>
      <trkpt lat="43.90196" lon="1.78229">
        <ele>210.67</ele>
        <time>2018-05-05T13:09:45Z</time>
      </trkpt>
      <trkpt lat="43.90202" lon="1.78219">
        <ele>211.63</ele>
        <time>2018-05-05T13:09:58Z</time>
      </trkpt>
      <trkpt lat="43.90208" lon="1.7821">
        <ele>212.59</ele>
        <time>2018-05-05T13:10:09Z</time>
      </trkpt>
      <trkpt lat="43.90209" lon="1.7821">
        <ele>212.59</ele>
        <time>2018-05-05T13:10:10Z</time>
      </trkpt>
      <trkpt lat="43.90213" lon="1.78204">
        <ele>213.07</ele>
        <time>2018-05-05T13:10:17Z</time>
      </trkpt>
      <trkpt lat="43.90218" lon="1.78196">
        <ele>214.03</ele>
        <time>2018-05-05T13:10:31Z</time>
      </trkpt>
      <trkpt lat="43.90222" lon="1.78188">
        <ele>215.47</ele>
        <time>2018-05-05T13:10:40Z</time>
      </trkpt>
      <trkpt lat="43.90224" lon="1.78186">
        <ele>215.95</ele>
        <time>2018-05-05T13:10:43Z</time>
      </trkpt>
      <trkpt lat="43.90229" lon="1.78178">
        <ele>217.4</ele>
        <time>2018-05-05T13:10:54Z</time>
      </trkpt>
      <trkpt lat="43.90235" lon="1.7817">
        <ele>218.84</ele>
        <time>2018-05-05T13:11:05Z</time>
      </trkpt>
      <trkpt lat="43.9024" lon="1.78163">
        <ele>219.8</ele>
        <time>2018-05-05T13:11:16Z</time>
      </trkpt>
      <trkpt lat="43.90246" lon="1.78156">
        <ele>221.24</ele>
        <time>2018-05-05T13:11:23Z</time>
      </trkpt>
      <trkpt lat="43.90252" lon="1.78145">
        <ele>223.16</ele>
        <time>2018-05-05T13:11:36Z</time>
      </trkpt>
      <trkpt lat="43.90253" lon="1.78142">
        <ele>223.64</ele>
        <time>2018-05-05T13:11:39Z</time>
      </trkpt>
      <trkpt lat="43.90255" lon="1.78136">
        <ele>224.61</ele>
        <time>2018-05-05T13:11:47Z</time>
      </trkpt>
      <trkpt lat="43.90261" lon="1.78126">
        <ele>226.05</ele>
        <time>2018-05-05T13:11:59Z</time>
      </trkpt>
      <trkpt lat="43.90266" lon="1.78116">
        <ele>227.49</ele>
        <time>2018-05-05T13:12:09Z</time>
      </trkpt>
      <trkpt lat="43.90267" lon="1.78116">
        <ele>227.49</ele>
        <time>2018-05-05T13:12:10Z</time>
      </trkpt>
      <trkpt lat="43.90268" lon="1.78114">
        <ele>227.49</ele>
        <time>2018-05-05T13:12:12Z</time>
      </trkpt>
      <trkpt lat="43.90269" lon="1.78112">
        <ele>227.97</ele>
        <time>2018-05-05T13:12:14Z</time>
      </trkpt>
      <trkpt lat="43.90272" lon="1.78104">
        <ele>228.93</ele>
        <time>2018-05-05T13:12:23Z</time>
      </trkpt>
      <trkpt lat="43.90274" lon="1.78103">
        <ele>229.41</ele>
        <time>2018-05-05T13:12:25Z</time>
      </trkpt>
      <trkpt lat="43.90278" lon="1.78094">
        <ele>231.33</ele>
        <time>2018-05-05T13:12:37Z</time>
      </trkpt>
      <trkpt lat="43.90283" lon="1.78086">
        <ele>232.78</ele>
        <time>2018-05-05T13:12:47Z</time>
      </trkpt>
      <trkpt lat="43.90285" lon="1.7808">
        <ele>233.74</ele>
        <time>2018-05-05T13:12:54Z</time>
      </trkpt>
      <trkpt lat="43.90288" lon="1.78076">
        <ele>234.7</ele>
        <time>2018-05-05T13:12:58Z</time>
      </trkpt>
      <trkpt lat="43.9029" lon="1.78073">
        <ele>234.7</ele>
        <time>2018-05-05T13:13:02Z</time>
      </trkpt>
      <trkpt lat="43.90299" lon="1.78063">
        <ele>237.1</ele>
        <time>2018-05-05T13:18:53Z</time>
      </trkpt>
      <trkpt lat="43.90308" lon="1.78064">
        <ele>237.58</ele>
        <time>2018-05-05T13:19:04Z</time>
      </trkpt>
      <trkpt lat="43.90311" lon="1.7806">
        <ele>237.58</ele>
        <time>2018-05-05T13:19:17Z</time>
      </trkpt>
      <trkpt lat="43.90314" lon="1.78064">
        <ele>238.06</ele>
        <time>2018-05-05T13:19:32Z</time>
      </trkpt>
      <trkpt lat="43.90323" lon="1.78067">
        <ele>238.54</ele>
        <time>2018-05-05T13:19:45Z</time>
      </trkpt>
      <trkpt lat="43.90333" lon="1.78067">
        <ele>239.02</ele>
        <time>2018-05-05T13:19:58Z</time>
      </trkpt>
      <trkpt lat="43.90343" lon="1.78066">
        <ele>239.51</ele>
        <time>2018-05-05T13:20:12Z</time>
      </trkpt>
      <trkpt lat="43.9034" lon="1.78069">
        <ele>239.02</ele>
        <time>2018-05-05T13:20:25Z</time>
      </trkpt>
      <trkpt lat="43.90341" lon="1.78068">
        <ele>239.51</ele>
        <time>2018-05-05T13:20:27Z</time>
      </trkpt>
      <trkpt lat="43.90352" lon="1.78057">
        <ele>239.99</ele>
        <time>2018-05-05T13:20:40Z</time>
      </trkpt>
      <trkpt lat="43.90354" lon="1.78051">
        <ele>239.51</ele>
        <time>2018-05-05T13:20:45Z</time>
      </trkpt>
      <trkpt lat="43.90354" lon="1.78032">
        <ele>239.02</ele>
        <time>2018-05-05T13:21:00Z</time>
      </trkpt>
      <trkpt lat="43.90355" lon="1.78022">
        <ele>238.06</ele>
        <time>2018-05-05T13:21:10Z</time>
      </trkpt>
      <trkpt lat="43.90357" lon="1.78013">
        <ele>237.58</ele>
        <time>2018-05-05T13:22:43Z</time>
      </trkpt>
      <trkpt lat="43.90358" lon="1.78005">
        <ele>237.1</ele>
        <time>2018-05-05T13:22:48Z</time>
      </trkpt>
      <trkpt lat="43.90362" lon="1.78001">
        <ele>236.62</ele>
        <time>2018-05-05T13:22:52Z</time>
      </trkpt>
      <trkpt lat="43.90369" lon="1.78004">
        <ele>237.1</ele>
        <time>2018-05-05T13:22:58Z</time>
      </trkpt>
      <trkpt lat="43.90377" lon="1.78008">
        <ele>237.58</ele>
        <time>2018-05-05T13:23:06Z</time>
      </trkpt>
      <trkpt lat="43.90389" lon="1.78015">
        <ele>238.06</ele>
        <time>2018-05-05T13:23:18Z</time>
      </trkpt>
      <trkpt lat="43.904" lon="1.78023">
        <ele>238.54</ele>
        <time>2018-05-05T13:23:30Z</time>
      </trkpt>
      <trkpt lat="43.90405" lon="1.78028">
        <ele>239.02</ele>
        <time>2018-05-05T13:23:36Z</time>
      </trkpt>
      <trkpt lat="43.9041" lon="1.78033">
        <ele>239.02</ele>
        <time>2018-05-05T13:23:41Z</time>
      </trkpt>
      <trkpt lat="43.90422" lon="1.78054">
        <ele>239.51</ele>
        <time>2018-05-05T13:23:56Z</time>
      </trkpt>
      <trkpt lat="43.90429" lon="1.78065">
        <ele>239.51</ele>
        <time>2018-05-05T13:24:05Z</time>
      </trkpt>
      <trkpt lat="43.90431" lon="1.7807">
        <ele>239.51</ele>
        <time>2018-05-05T13:24:09Z</time>
      </trkpt>
      <trkpt lat="43.90435" lon="1.78075">
        <ele>239.51</ele>
        <time>2018-05-05T13:24:14Z</time>
      </trkpt>
      <trkpt lat="43.90437" lon="1.78078">
        <ele>239.51</ele>
        <time>2018-05-05T13:24:17Z</time>
      </trkpt>
      <trkpt lat="43.90439" lon="1.78082">
        <ele>239.51</ele>
        <time>2018-05-05T13:24:30Z</time>
      </trkpt>
      <trkpt lat="43.90442" lon="1.78086">
        <ele>239.51</ele>
        <time>2018-05-05T13:24:47Z</time>
      </trkpt>
      <trkpt lat="43.90443" lon="1.78089">
        <ele>239.51</ele>
        <time>2018-05-05T13:24:55Z</time>
      </trkpt>
      <trkpt lat="43.90446" lon="1.78092">
        <ele>239.99</ele>
        <time>2018-05-05T13:25:00Z</time>
      </trkpt>
      <trkpt lat="43.9045" lon="1.78095">
        <ele>239.99</ele>
        <time>2018-05-05T13:25:05Z</time>
      </trkpt>
      <trkpt lat="43.90456" lon="1.78102">
        <ele>239.51</ele>
        <time>2018-05-05T13:25:12Z</time>
      </trkpt>
      <trkpt lat="43.90463" lon="1.78109">
        <ele>239.99</ele>
        <time>2018-05-05T13:25:19Z</time>
      </trkpt>
      <trkpt lat="43.90473" lon="1.78118">
        <ele>239.99</ele>
        <time>2018-05-05T13:25:31Z</time>
      </trkpt>
      <trkpt lat="43.90487" lon="1.78129">
        <ele>239.99</ele>
        <time>2018-05-05T13:25:45Z</time>
      </trkpt>
      <trkpt lat="43.90503" lon="1.78143">
        <ele>240.95</ele>
        <time>2018-05-05T13:25:59Z</time>
      </trkpt>
      <trkpt lat="43.90507" lon="1.78146">
        <ele>240.47</ele>
        <time>2018-05-05T13:26:03Z</time>
      </trkpt>
      <trkpt lat="43.90518" lon="1.78152">
        <ele>240.95</ele>
        <time>2018-05-05T13:26:16Z</time>
      </trkpt>
      <trkpt lat="43.9053" lon="1.78163">
        <ele>241.43</ele>
        <time>2018-05-05T13:26:29Z</time>
      </trkpt>
      <trkpt lat="43.90531" lon="1.78164">
        <ele>241.43</ele>
        <time>2018-05-05T13:26:30Z</time>
      </trkpt>
      <trkpt lat="43.90547" lon="1.78174">
        <ele>241.91</ele>
        <time>2018-05-05T13:26:46Z</time>
      </trkpt>
      <trkpt lat="43.90555" lon="1.78181">
        <ele>241.91</ele>
        <time>2018-05-05T13:26:55Z</time>
      </trkpt>
      <trkpt lat="43.9056" lon="1.78184">
        <ele>241.91</ele>
        <time>2018-05-05T13:27:00Z</time>
      </trkpt>
      <trkpt lat="43.90564" lon="1.78187">
        <ele>241.91</ele>
        <time>2018-05-05T13:27:04Z</time>
      </trkpt>
      <trkpt lat="43.90574" lon="1.78193">
        <ele>242.39</ele>
        <time>2018-05-05T13:27:14Z</time>
      </trkpt>
      <trkpt lat="43.9058" lon="1.78197">
        <ele>242.39</ele>
        <time>2018-05-05T13:27:20Z</time>
      </trkpt>
      <trkpt lat="43.90582" lon="1.78199">
        <ele>242.39</ele>
        <time>2018-05-05T13:27:22Z</time>
      </trkpt>
      <trkpt lat="43.90592" lon="1.78205">
        <ele>243.83</ele>
        <time>2018-05-05T13:27:33Z</time>
      </trkpt>
      <trkpt lat="43.90606" lon="1.78211">
        <ele>244.79</ele>
        <time>2018-05-05T13:27:47Z</time>
      </trkpt>
      <trkpt lat="43.90617" lon="1.78215">
        <ele>245.27</ele>
        <time>2018-05-05T13:27:59Z</time>
      </trkpt>
      <trkpt lat="43.90619" lon="1.78215">
        <ele>245.27</ele>
        <time>2018-05-05T13:28:01Z</time>
      </trkpt>
      <trkpt lat="43.90628" lon="1.78217">
        <ele>245.75</ele>
        <time>2018-05-05T13:28:09Z</time>
      </trkpt>
      <trkpt lat="43.90632" lon="1.78218">
        <ele>245.75</ele>
        <time>2018-05-05T13:28:13Z</time>
      </trkpt>
      <trkpt lat="43.90639" lon="1.7822">
        <ele>245.75</ele>
        <time>2018-05-05T13:28:19Z</time>
      </trkpt>
      <trkpt lat="43.90653" lon="1.78218">
        <ele>245.75</ele>
        <time>2018-05-05T13:28:34Z</time>
      </trkpt>
      <trkpt lat="43.90663" lon="1.78217">
        <ele>245.75</ele>
        <time>2018-05-05T13:28:48Z</time>
      </trkpt>
      <trkpt lat="43.90678" lon="1.78214">
        <ele>245.27</ele>
        <time>2018-05-05T13:29:01Z</time>
      </trkpt>
      <trkpt lat="43.9068" lon="1.78214">
        <ele>245.27</ele>
        <time>2018-05-05T13:29:03Z</time>
      </trkpt>
      <trkpt lat="43.90684" lon="1.78213">
        <ele>245.27</ele>
        <time>2018-05-05T13:29:07Z</time>
      </trkpt>
      <trkpt lat="43.90701" lon="1.78212">
        <ele>244.79</ele>
        <time>2018-05-05T13:29:22Z</time>
      </trkpt>
      <trkpt lat="43.90703" lon="1.78211">
        <ele>244.79</ele>
        <time>2018-05-05T13:29:24Z</time>
      </trkpt>
      <trkpt lat="43.90707" lon="1.78211">
        <ele>244.79</ele>
        <time>2018-05-05T13:29:28Z</time>
      </trkpt>
      <trkpt lat="43.9071" lon="1.78212">
        <ele>244.79</ele>
        <time>2018-05-05T13:29:31Z</time>
      </trkpt>
      <trkpt lat="43.90724" lon="1.78216">
        <ele>244.79</ele>
        <time>2018-05-05T13:29:44Z</time>
      </trkpt>
      <trkpt lat="43.90735" lon="1.78225">
        <ele>244.31</ele>
        <time>2018-05-05T13:29:55Z</time>
      </trkpt>
      <trkpt lat="43.90744" lon="1.78232">
        <ele>244.79</ele>
        <time>2018-05-05T13:30:04Z</time>
      </trkpt>
      <trkpt lat="43.90749" lon="1.78234">
        <ele>244.31</ele>
        <time>2018-05-05T13:30:09Z</time>
      </trkpt>
      <trkpt lat="43.90752" lon="1.78237">
        <ele>244.79</ele>
        <time>2018-05-05T13:30:12Z</time>
      </trkpt>
      <trkpt lat="43.90765" lon="1.78243">
        <ele>244.79</ele>
        <time>2018-05-05T13:30:26Z</time>
      </trkpt>
      <trkpt lat="43.90767" lon="1.78244">
        <ele>245.27</ele>
        <time>2018-05-05T13:30:28Z</time>
      </trkpt>
      <trkpt lat="43.90775" lon="1.78245">
        <ele>244.79</ele>
        <time>2018-05-05T13:30:36Z</time>
      </trkpt>
      <trkpt lat="43.90776" lon="1.78246">
        <ele>244.79</ele>
        <time>2018-05-05T13:30:38Z</time>
      </trkpt>
      <trkpt lat="43.90789" lon="1.78248">
        <ele>245.75</ele>
        <time>2018-05-05T13:30:53Z</time>
      </trkpt>
      <trkpt lat="43.90789" lon="1.78247">
        <ele>245.75</ele>
        <time>2018-05-05T13:31:07Z</time>
      </trkpt>
      <trkpt lat="43.90793" lon="1.78247">
        <ele>245.75</ele>
        <time>2018-05-05T13:31:21Z</time>
      </trkpt>
      <trkpt lat="43.90806" lon="1.78249">
        <ele>245.75</ele>
        <time>2018-05-05T13:31:34Z</time>
      </trkpt>
      <trkpt lat="43.90813" lon="1.78249">
        <ele>246.23</ele>
        <time>2018-05-05T13:31:41Z</time>
      </trkpt>
      <trkpt lat="43.90826" lon="1.7825">
        <ele>246.72</ele>
        <time>2018-05-05T13:31:54Z</time>
      </trkpt>
      <trkpt lat="43.9084" lon="1.78255">
        <ele>247.2</ele>
        <time>2018-05-05T13:32:07Z</time>
      </trkpt>
      <trkpt lat="43.90852" lon="1.78262">
        <ele>247.68</ele>
        <time>2018-05-05T13:32:19Z</time>
      </trkpt>
      <trkpt lat="43.90868" lon="1.7827">
        <ele>247.2</ele>
        <time>2018-05-05T13:32:34Z</time>
      </trkpt>
      <trkpt lat="43.90882" lon="1.78276">
        <ele>246.23</ele>
        <time>2018-05-05T13:32:49Z</time>
      </trkpt>
      <trkpt lat="43.9089" lon="1.78276">
        <ele>246.23</ele>
        <time>2018-05-05T13:32:59Z</time>
      </trkpt>
      <trkpt lat="43.90892" lon="1.78275">
        <ele>246.23</ele>
        <time>2018-05-05T13:33:01Z</time>
      </trkpt>
      <trkpt lat="43.90895" lon="1.78274">
        <ele>246.23</ele>
        <time>2018-05-05T13:33:04Z</time>
      </trkpt>
      <trkpt lat="43.90902" lon="1.78256">
        <ele>245.27</ele>
        <time>2018-05-05T13:33:16Z</time>
      </trkpt>
      <trkpt lat="43.90907" lon="1.78242">
        <ele>245.27</ele>
        <time>2018-05-05T13:33:27Z</time>
      </trkpt>
      <trkpt lat="43.90918" lon="1.78223">
        <ele>244.31</ele>
        <time>2018-05-05T13:33:42Z</time>
      </trkpt>
      <trkpt lat="43.90921" lon="1.78214">
        <ele>243.83</ele>
        <time>2018-05-05T13:33:49Z</time>
      </trkpt>
      <trkpt lat="43.90924" lon="1.78208">
        <ele>243.83</ele>
        <time>2018-05-05T13:33:54Z</time>
      </trkpt>
      <trkpt lat="43.90927" lon="1.78202">
        <ele>243.83</ele>
        <time>2018-05-05T13:33:58Z</time>
      </trkpt>
      <trkpt lat="43.90929" lon="1.78196">
        <ele>243.35</ele>
        <time>2018-05-05T13:34:03Z</time>
      </trkpt>
      <trkpt lat="43.90933" lon="1.78189">
        <ele>242.87</ele>
        <time>2018-05-05T13:34:09Z</time>
      </trkpt>
      <trkpt lat="43.90943" lon="1.78171">
        <ele>241.91</ele>
        <time>2018-05-05T13:34:24Z</time>
      </trkpt>
      <trkpt lat="43.90946" lon="1.78167">
        <ele>241.43</ele>
        <time>2018-05-05T13:34:28Z</time>
      </trkpt>
      <trkpt lat="43.90959" lon="1.78157">
        <ele>240.47</ele>
        <time>2018-05-05T13:34:43Z</time>
      </trkpt>
      <trkpt lat="43.9096" lon="1.78157">
        <ele>240.47</ele>
        <time>2018-05-05T13:34:44Z</time>
      </trkpt>
      <trkpt lat="43.90967" lon="1.78152">
        <ele>240.47</ele>
        <time>2018-05-05T13:34:53Z</time>
      </trkpt>
      <trkpt lat="43.90983" lon="1.78142">
        <ele>239.51</ele>
        <time>2018-05-05T13:35:07Z</time>
      </trkpt>
      <trkpt lat="43.90996" lon="1.78133">
        <ele>239.02</ele>
        <time>2018-05-05T13:35:19Z</time>
      </trkpt>
      <trkpt lat="43.91002" lon="1.7813">
        <ele>238.54</ele>
        <time>2018-05-05T13:35:35Z</time>
      </trkpt>
      <trkpt lat="43.91005" lon="1.78125">
        <ele>238.06</ele>
        <time>2018-05-05T13:35:53Z</time>
      </trkpt>
      <trkpt lat="43.91006" lon="1.78118">
        <ele>238.06</ele>
        <time>2018-05-05T13:36:03Z</time>
      </trkpt>
      <trkpt lat="43.91014" lon="1.78107">
        <ele>238.06</ele>
        <time>2018-05-05T13:36:16Z</time>
      </trkpt>
      <trkpt lat="43.91019" lon="1.78103">
        <ele>238.06</ele>
        <time>2018-05-05T13:36:29Z</time>
      </trkpt>
      <trkpt lat="43.9102" lon="1.781">
        <ele>238.06</ele>
        <time>2018-05-05T13:36:47Z</time>
      </trkpt>
      <trkpt lat="43.91022" lon="1.78098">
        <ele>237.58</ele>
        <time>2018-05-05T13:36:56Z</time>
      </trkpt>
      <trkpt lat="43.91024" lon="1.78096">
        <ele>237.58</ele>
        <time>2018-05-05T13:36:59Z</time>
      </trkpt>
      <trkpt lat="43.91034" lon="1.78084">
        <ele>237.1</ele>
        <time>2018-05-05T13:37:14Z</time>
      </trkpt>
      <trkpt lat="43.91037" lon="1.78079">
        <ele>236.62</ele>
        <time>2018-05-05T13:37:29Z</time>
      </trkpt>
      <trkpt lat="43.91041" lon="1.78078">
        <ele>237.1</ele>
        <time>2018-05-05T13:37:49Z</time>
      </trkpt>
      <trkpt lat="43.91047" lon="1.78072">
        <ele>236.62</ele>
        <time>2018-05-05T13:38:06Z</time>
      </trkpt>
      <trkpt lat="43.91051" lon="1.78068">
        <ele>236.14</ele>
        <time>2018-05-05T13:38:12Z</time>
      </trkpt>
      <trkpt lat="43.91061" lon="1.7805">
        <ele>235.18</ele>
        <time>2018-05-05T13:38:27Z</time>
      </trkpt>
      <trkpt lat="43.91067" lon="1.78033">
        <ele>234.7</ele>
        <time>2018-05-05T13:38:41Z</time>
      </trkpt>
      <trkpt lat="43.91074" lon="1.78022">
        <ele>235.18</ele>
        <time>2018-05-05T13:38:52Z</time>
      </trkpt>
      <trkpt lat="43.91082" lon="1.7801">
        <ele>235.66</ele>
        <time>2018-05-05T13:39:06Z</time>
      </trkpt>
      <trkpt lat="43.91087" lon="1.77998">
        <ele>236.14</ele>
        <time>2018-05-05T13:39:17Z</time>
      </trkpt>
      <trkpt lat="43.9109" lon="1.77994">
        <ele>236.14</ele>
        <time>2018-05-05T13:39:21Z</time>
      </trkpt>
      <trkpt lat="43.91092" lon="1.77989">
        <ele>236.14</ele>
        <time>2018-05-05T13:39:26Z</time>
      </trkpt>
      <trkpt lat="43.91095" lon="1.77986">
        <ele>236.14</ele>
        <time>2018-05-05T13:39:29Z</time>
      </trkpt>
      <trkpt lat="43.91096" lon="1.77983">
        <ele>236.14</ele>
        <time>2018-05-05T13:39:31Z</time>
      </trkpt>
      <trkpt lat="43.91101" lon="1.77972">
        <ele>236.14</ele>
        <time>2018-05-05T13:39:41Z</time>
      </trkpt>
      <trkpt lat="43.91103" lon="1.77959">
        <ele>237.1</ele>
        <time>2018-05-05T13:39:53Z</time>
      </trkpt>
      <trkpt lat="43.91104" lon="1.7795">
        <ele>237.58</ele>
        <time>2018-05-05T13:40:00Z</time>
      </trkpt>
      <trkpt lat="43.91111" lon="1.77937">
        <ele>238.06</ele>
        <time>2018-05-05T13:40:13Z</time>
      </trkpt>
      <trkpt lat="43.91112" lon="1.77932">
        <ele>237.58</ele>
        <time>2018-05-05T13:40:30Z</time>
      </trkpt>
      <trkpt lat="43.9111" lon="1.77932">
        <ele>237.58</ele>
        <time>2018-05-05T13:40:55Z</time>
      </trkpt>
      <trkpt lat="43.91112" lon="1.77928">
        <ele>238.06</ele>
        <time>2018-05-05T13:41:21Z</time>
      </trkpt>
      <trkpt lat="43.91114" lon="1.77925">
        <ele>238.06</ele>
        <time>2018-05-05T13:41:28Z</time>
      </trkpt>
      <trkpt lat="43.91113" lon="1.7792">
        <ele>238.06</ele>
        <time>2018-05-05T13:41:32Z</time>
      </trkpt>
      <trkpt lat="43.91115" lon="1.77914">
        <ele>238.54</ele>
        <time>2018-05-05T13:41:37Z</time>
      </trkpt>
      <trkpt lat="43.91116" lon="1.77909">
        <ele>238.54</ele>
        <time>2018-05-05T13:41:40Z</time>
      </trkpt>
      <trkpt lat="43.91119" lon="1.77902">
        <ele>238.06</ele>
        <time>2018-05-05T13:41:47Z</time>
      </trkpt>
      <trkpt lat="43.91123" lon="1.77889">
        <ele>239.02</ele>
        <time>2018-05-05T13:41:57Z</time>
      </trkpt>
      <trkpt lat="43.91126" lon="1.7788">
        <ele>239.51</ele>
        <time>2018-05-05T13:42:03Z</time>
      </trkpt>
      <trkpt lat="43.9113" lon="1.77867">
        <ele>239.51</ele>
        <time>2018-05-05T13:42:13Z</time>
      </trkpt>
      <trkpt lat="43.91136" lon="1.77852">
        <ele>239.51</ele>
        <time>2018-05-05T13:42:26Z</time>
      </trkpt>
      <trkpt lat="43.91142" lon="1.77835">
        <ele>239.51</ele>
        <time>2018-05-05T13:42:39Z</time>
      </trkpt>
      <trkpt lat="43.9115" lon="1.77818">
        <ele>239.02</ele>
        <time>2018-05-05T13:42:52Z</time>
      </trkpt>
      <trkpt lat="43.91157" lon="1.77804">
        <ele>238.54</ele>
        <time>2018-05-05T13:43:04Z</time>
      </trkpt>
      <trkpt lat="43.91161" lon="1.77797">
        <ele>238.54</ele>
        <time>2018-05-05T13:43:09Z</time>
      </trkpt>
      <trkpt lat="43.91162" lon="1.77794">
        <ele>238.54</ele>
        <time>2018-05-05T13:43:11Z</time>
      </trkpt>
      <trkpt lat="43.91168" lon="1.77782">
        <ele>238.06</ele>
        <time>2018-05-05T13:43:21Z</time>
      </trkpt>
      <trkpt lat="43.91172" lon="1.77776">
        <ele>238.06</ele>
        <time>2018-05-05T13:43:27Z</time>
      </trkpt>
      <trkpt lat="43.91177" lon="1.77769">
        <ele>237.58</ele>
        <time>2018-05-05T13:43:34Z</time>
      </trkpt>
      <trkpt lat="43.91182" lon="1.77762">
        <ele>238.06</ele>
        <time>2018-05-05T13:43:41Z</time>
      </trkpt>
      <trkpt lat="43.91187" lon="1.77748">
        <ele>237.58</ele>
        <time>2018-05-05T13:43:52Z</time>
      </trkpt>
      <trkpt lat="43.91193" lon="1.77736">
        <ele>238.06</ele>
        <time>2018-05-05T13:44:02Z</time>
      </trkpt>
      <trkpt lat="43.91195" lon="1.77733">
        <ele>238.06</ele>
        <time>2018-05-05T13:44:05Z</time>
      </trkpt>
      <trkpt lat="43.91203" lon="1.7772">
        <ele>237.58</ele>
        <time>2018-05-05T13:44:19Z</time>
      </trkpt>
      <trkpt lat="43.91209" lon="1.77708">
        <ele>238.06</ele>
        <time>2018-05-05T13:44:30Z</time>
      </trkpt>
      <trkpt lat="43.91217" lon="1.77694">
        <ele>238.06</ele>
        <time>2018-05-05T13:44:43Z</time>
      </trkpt>
      <trkpt lat="43.9122" lon="1.77694">
        <ele>238.06</ele>
        <time>2018-05-05T13:45:00Z</time>
      </trkpt>
      <trkpt lat="43.91225" lon="1.777">
        <ele>238.06</ele>
        <time>2018-05-05T13:45:16Z</time>
      </trkpt>
      <trkpt lat="43.91235" lon="1.7771">
        <ele>237.58</ele>
        <time>2018-05-05T13:45:30Z</time>
      </trkpt>
      <trkpt lat="43.91246" lon="1.77719">
        <ele>236.62</ele>
        <time>2018-05-05T13:45:46Z</time>
      </trkpt>
      <trkpt lat="43.91249" lon="1.77725">
        <ele>235.66</ele>
        <time>2018-05-05T13:46:00Z</time>
      </trkpt>
      <trkpt lat="43.91256" lon="1.7773">
        <ele>234.22</ele>
        <time>2018-05-05T13:46:14Z</time>
      </trkpt>
      <trkpt lat="43.91263" lon="1.77724">
        <ele>232.3</ele>
        <time>2018-05-05T13:46:27Z</time>
      </trkpt>
      <trkpt lat="43.91268" lon="1.77717">
        <ele>231.81</ele>
        <time>2018-05-05T13:46:37Z</time>
      </trkpt>
      <trkpt lat="43.91268" lon="1.77708">
        <ele>232.3</ele>
        <time>2018-05-05T13:46:49Z</time>
      </trkpt>
      <trkpt lat="43.91275" lon="1.77711">
        <ele>230.37</ele>
        <time>2018-05-05T13:47:02Z</time>
      </trkpt>
      <trkpt lat="43.91281" lon="1.77714">
        <ele>227.49</ele>
        <time>2018-05-05T13:47:15Z</time>
      </trkpt>
      <trkpt lat="43.9128" lon="1.77718">
        <ele>227.49</ele>
        <time>2018-05-05T13:47:34Z</time>
      </trkpt>
      <trkpt lat="43.91305" lon="1.77712">
        <ele>220.28</ele>
        <time>2018-05-05T13:51:49Z</time>
      </trkpt>
      <trkpt lat="43.91316" lon="1.77717">
        <ele>217.88</ele>
        <time>2018-05-05T13:52:01Z</time>
      </trkpt>
      <trkpt lat="43.9132" lon="1.7772">
        <ele>215.95</ele>
        <time>2018-05-05T13:52:14Z</time>
      </trkpt>
      <trkpt lat="43.91326" lon="1.77714">
        <ele>214.99</ele>
        <time>2018-05-05T13:52:29Z</time>
      </trkpt>
      <trkpt lat="43.91329" lon="1.77706">
        <ele>214.51</ele>
        <time>2018-05-05T13:52:41Z</time>
      </trkpt>
      <trkpt lat="43.91331" lon="1.77701">
        <ele>214.03</ele>
        <time>2018-05-05T13:52:58Z</time>
      </trkpt>
      <trkpt lat="43.91329" lon="1.77704">
        <ele>214.03</ele>
        <time>2018-05-05T13:53:15Z</time>
      </trkpt>
      <trkpt lat="43.91329" lon="1.77703">
        <ele>212.59</ele>
        <time>2018-05-05T13:53:31Z</time>
      </trkpt>
      <trkpt lat="43.91347" lon="1.77682">
        <ele>210.19</ele>
        <time>2018-05-05T13:54:40Z</time>
      </trkpt>
      <trkpt lat="43.91353" lon="1.77667">
        <ele>210.19</ele>
        <time>2018-05-05T13:54:53Z</time>
      </trkpt>
      <trkpt lat="43.91355" lon="1.77661">
        <ele>209.7</ele>
        <time>2018-05-05T13:55:06Z</time>
      </trkpt>
      <trkpt lat="43.91356" lon="1.77655">
        <ele>209.7</ele>
        <time>2018-05-05T13:55:11Z</time>
      </trkpt>
      <trkpt lat="43.91356" lon="1.77652">
        <ele>210.19</ele>
        <time>2018-05-05T13:55:13Z</time>
      </trkpt>
      <trkpt lat="43.91359" lon="1.7764">
        <ele>209.7</ele>
        <time>2018-05-05T13:55:25Z</time>
      </trkpt>
      <trkpt lat="43.91359" lon="1.77639">
        <ele>209.7</ele>
        <time>2018-05-05T13:55:26Z</time>
      </trkpt>
      <trkpt lat="43.9136" lon="1.77637">
        <ele>209.7</ele>
        <time>2018-05-05T13:55:28Z</time>
      </trkpt>
      <trkpt lat="43.91365" lon="1.77631">
        <ele>209.22</ele>
        <time>2018-05-05T13:55:39Z</time>
      </trkpt>
      <trkpt lat="43.91368" lon="1.77623">
        <ele>209.22</ele>
        <time>2018-05-05T13:55:55Z</time>
      </trkpt>
      <trkpt lat="43.91376" lon="1.77612">
        <ele>208.74</ele>
        <time>2018-05-05T13:56:08Z</time>
      </trkpt>
      <trkpt lat="43.91382" lon="1.776">
        <ele>208.74</ele>
        <time>2018-05-05T13:56:19Z</time>
      </trkpt>
      <trkpt lat="43.91387" lon="1.77593">
        <ele>208.74</ele>
        <time>2018-05-05T13:56:36Z</time>
      </trkpt>
      <trkpt lat="43.91388" lon="1.77592">
        <ele>208.74</ele>
        <time>2018-05-05T13:56:58Z</time>
      </trkpt>
      <trkpt lat="43.9139" lon="1.77591">
        <ele>208.74</ele>
        <time>2018-05-05T13:57:23Z</time>
      </trkpt>
      <trkpt lat="43.9139" lon="1.77592">
        <ele>208.74</ele>
        <time>2018-05-05T13:57:44Z</time>
      </trkpt>
      <trkpt lat="43.91392" lon="1.77587">
        <ele>208.74</ele>
        <time>2018-05-05T13:58:01Z</time>
      </trkpt>
      <trkpt lat="43.91397" lon="1.77576">
        <ele>208.26</ele>
        <time>2018-05-05T13:58:13Z</time>
      </trkpt>
      <trkpt lat="43.91408" lon="1.77566">
        <ele>208.26</ele>
        <time>2018-05-05T13:58:22Z</time>
      </trkpt>
      <trkpt lat="43.91415" lon="1.77553">
        <ele>207.78</ele>
        <time>2018-05-05T13:58:35Z</time>
      </trkpt>
      <trkpt lat="43.91419" lon="1.7754">
        <ele>207.78</ele>
        <time>2018-05-05T13:58:47Z</time>
      </trkpt>
      <trkpt lat="43.91428" lon="1.77532">
        <ele>207.78</ele>
        <time>2018-05-05T13:58:59Z</time>
      </trkpt>
      <trkpt lat="43.91437" lon="1.77526">
        <ele>207.3</ele>
        <time>2018-05-05T13:59:11Z</time>
      </trkpt>
      <trkpt lat="43.91443" lon="1.77519">
        <ele>206.34</ele>
        <time>2018-05-05T13:59:22Z</time>
      </trkpt>
      <trkpt lat="43.91444" lon="1.77518">
        <ele>205.86</ele>
        <time>2018-05-05T13:59:25Z</time>
      </trkpt>
      <trkpt lat="43.91453" lon="1.77509">
        <ele>205.38</ele>
        <time>2018-05-05T13:59:38Z</time>
      </trkpt>
      <trkpt lat="43.91465" lon="1.775">
        <ele>203.94</ele>
        <time>2018-05-05T13:59:53Z</time>
      </trkpt>
      <trkpt lat="43.9148" lon="1.77495">
        <ele>202.49</ele>
        <time>2018-05-05T14:00:04Z</time>
      </trkpt>
      <trkpt lat="43.9149" lon="1.77492">
        <ele>202.01</ele>
        <time>2018-05-05T14:00:15Z</time>
      </trkpt>
      <trkpt lat="43.91499" lon="1.77488">
        <ele>200.57</ele>
        <time>2018-05-05T14:00:28Z</time>
      </trkpt>
      <trkpt lat="43.91511" lon="1.77478">
        <ele>199.61</ele>
        <time>2018-05-05T14:00:42Z</time>
      </trkpt>
      <trkpt lat="43.91519" lon="1.77471">
        <ele>198.65</ele>
        <time>2018-05-05T14:00:53Z</time>
      </trkpt>
      <trkpt lat="43.9152" lon="1.77469">
        <ele>198.65</ele>
        <time>2018-05-05T14:00:55Z</time>
      </trkpt>
      <trkpt lat="43.91527" lon="1.77462">
        <ele>198.65</ele>
        <time>2018-05-05T14:01:06Z</time>
      </trkpt>
      <trkpt lat="43.9154" lon="1.77447">
        <ele>198.17</ele>
        <time>2018-05-05T14:01:20Z</time>
      </trkpt>
      <trkpt lat="43.91549" lon="1.77432">
        <ele>198.17</ele>
        <time>2018-05-05T14:01:33Z</time>
      </trkpt>
      <trkpt lat="43.9156" lon="1.77418">
        <ele>197.69</ele>
        <time>2018-05-05T14:01:45Z</time>
      </trkpt>
      <trkpt lat="43.91571" lon="1.77408">
        <ele>196.73</ele>
        <time>2018-05-05T14:01:58Z</time>
      </trkpt>
      <trkpt lat="43.91573" lon="1.77405">
        <ele>196.73</ele>
        <time>2018-05-05T14:02:02Z</time>
      </trkpt>
      <trkpt lat="43.91582" lon="1.77394">
        <ele>195.28</ele>
        <time>2018-05-05T14:02:17Z</time>
      </trkpt>
      <trkpt lat="43.91582" lon="1.77388">
        <ele>194.8</ele>
        <time>2018-05-05T14:02:29Z</time>
      </trkpt>
      <trkpt lat="43.91587" lon="1.77383">
        <ele>194.32</ele>
        <time>2018-05-05T14:02:41Z</time>
      </trkpt>
      <trkpt lat="43.91589" lon="1.77392">
        <ele>193.84</ele>
        <time>2018-05-05T14:02:54Z</time>
      </trkpt>
      <trkpt lat="43.91592" lon="1.77399">
        <ele>193.36</ele>
        <time>2018-05-05T14:03:07Z</time>
      </trkpt>
      <trkpt lat="43.91593" lon="1.77402">
        <ele>192.88</ele>
        <time>2018-05-05T14:03:24Z</time>
      </trkpt>
      <trkpt lat="43.91593" lon="1.77405">
        <ele>192.88</ele>
        <time>2018-05-05T14:03:32Z</time>
      </trkpt>
      <trkpt lat="43.91595" lon="1.77408">
        <ele>193.36</ele>
        <time>2018-05-05T14:03:41Z</time>
      </trkpt>
      <trkpt lat="43.91602" lon="1.77414">
        <ele>193.84</ele>
        <time>2018-05-05T14:03:53Z</time>
      </trkpt>
      <trkpt lat="43.91606" lon="1.77421">
        <ele>193.84</ele>
        <time>2018-05-05T14:04:08Z</time>
      </trkpt>
      <trkpt lat="43.91615" lon="1.77415">
        <ele>193.36</ele>
        <time>2018-05-05T14:05:10Z</time>
      </trkpt>
      <trkpt lat="43.91624" lon="1.77418">
        <ele>194.8</ele>
        <time>2018-05-05T14:05:23Z</time>
      </trkpt>
      <trkpt lat="43.91632" lon="1.77416">
        <ele>195.28</ele>
        <time>2018-05-05T14:05:33Z</time>
      </trkpt>
      <trkpt lat="43.9164" lon="1.77415">
        <ele>196.25</ele>
        <time>2018-05-05T14:05:45Z</time>
      </trkpt>
      <trkpt lat="43.91641" lon="1.77413">
        <ele>195.77</ele>
        <time>2018-05-05T14:05:55Z</time>
      </trkpt>
      <trkpt lat="43.91643" lon="1.7741">
        <ele>195.77</ele>
        <time>2018-05-05T14:05:58Z</time>
      </trkpt>
      <trkpt lat="43.91645" lon="1.77407">
        <ele>195.77</ele>
        <time>2018-05-05T14:06:01Z</time>
      </trkpt>
      <trkpt lat="43.91652" lon="1.774">
        <ele>196.25</ele>
        <time>2018-05-05T14:06:12Z</time>
      </trkpt>
      <trkpt lat="43.91653" lon="1.77399">
        <ele>196.25</ele>
        <time>2018-05-05T14:06:14Z</time>
      </trkpt>
      <trkpt lat="43.91656" lon="1.77391">
        <ele>195.77</ele>
        <time>2018-05-05T14:06:21Z</time>
      </trkpt>
      <trkpt lat="43.91659" lon="1.7739">
        <ele>196.73</ele>
        <time>2018-05-05T14:06:24Z</time>
      </trkpt>
      <trkpt lat="43.9167" lon="1.77382">
        <ele>194.8</ele>
        <time>2018-05-05T14:06:36Z</time>
      </trkpt>
      <trkpt lat="43.91675" lon="1.77378">
        <ele>194.32</ele>
        <time>2018-05-05T14:06:48Z</time>
      </trkpt>
      <trkpt lat="43.91681" lon="1.77373">
        <ele>193.36</ele>
        <time>2018-05-05T14:06:58Z</time>
      </trkpt>
      <trkpt lat="43.91689" lon="1.77367">
        <ele>192.4</ele>
        <time>2018-05-05T14:07:09Z</time>
      </trkpt>
      <trkpt lat="43.91692" lon="1.77364">
        <ele>191.92</ele>
        <time>2018-05-05T14:07:20Z</time>
      </trkpt>
      <trkpt lat="43.917" lon="1.77361">
        <ele>190.96</ele>
        <time>2018-05-05T14:07:34Z</time>
      </trkpt>
      <trkpt lat="43.917" lon="1.7736">
        <ele>190.96</ele>
        <time>2018-05-05T14:07:35Z</time>
      </trkpt>
      <trkpt lat="43.91706" lon="1.77357">
        <ele>190.48</ele>
        <time>2018-05-05T14:07:41Z</time>
      </trkpt>
      <trkpt lat="43.9171" lon="1.77355">
        <ele>190</ele>
        <time>2018-05-05T14:07:45Z</time>
      </trkpt>
      <trkpt lat="43.91717" lon="1.77352">
        <ele>189.04</ele>
        <time>2018-05-05T14:07:54Z</time>
      </trkpt>
      <trkpt lat="43.9172" lon="1.77347">
        <ele>188.56</ele>
        <time>2018-05-05T14:08:09Z</time>
      </trkpt>
      <trkpt lat="43.91722" lon="1.77339">
        <ele>188.08</ele>
        <time>2018-05-05T14:08:22Z</time>
      </trkpt>
      <trkpt lat="43.91723" lon="1.77336">
        <ele>188.08</ele>
        <time>2018-05-05T14:08:25Z</time>
      </trkpt>
      <trkpt lat="43.91721" lon="1.77327">
        <ele>188.08</ele>
        <time>2018-05-05T14:08:33Z</time>
      </trkpt>
      <trkpt lat="43.91721" lon="1.77317">
        <ele>188.08</ele>
        <time>2018-05-05T14:08:41Z</time>
      </trkpt>
      <trkpt lat="43.91717" lon="1.77309">
        <ele>188.08</ele>
        <time>2018-05-05T14:08:47Z</time>
      </trkpt>
      <trkpt lat="43.91716" lon="1.773">
        <ele>188.56</ele>
        <time>2018-05-05T14:08:59Z</time>
      </trkpt>
      <trkpt lat="43.91715" lon="1.77298">
        <ele>188.56</ele>
        <time>2018-05-05T14:09:02Z</time>
      </trkpt>
      <trkpt lat="43.91713" lon="1.7729">
        <ele>188.56</ele>
        <time>2018-05-05T14:09:07Z</time>
      </trkpt>
      <trkpt lat="43.91711" lon="1.77273">
        <ele>188.08</ele>
        <time>2018-05-05T14:09:19Z</time>
      </trkpt>
      <trkpt lat="43.91706" lon="1.77263">
        <ele>188.56</ele>
        <time>2018-05-05T14:09:31Z</time>
      </trkpt>
      <trkpt lat="43.917" lon="1.77249">
        <ele>188.56</ele>
        <time>2018-05-05T14:09:41Z</time>
      </trkpt>
      <trkpt lat="43.91696" lon="1.77246">
        <ele>188.08</ele>
        <time>2018-05-05T14:09:45Z</time>
      </trkpt>
      <trkpt lat="43.91696" lon="1.77243">
        <ele>188.56</ele>
        <time>2018-05-05T14:09:47Z</time>
      </trkpt>
      <trkpt lat="43.91688" lon="1.77226">
        <ele>188.08</ele>
        <time>2018-05-05T14:10:01Z</time>
      </trkpt>
      <trkpt lat="43.91687" lon="1.77224">
        <ele>188.08</ele>
        <time>2018-05-05T14:10:03Z</time>
      </trkpt>
      <trkpt lat="43.91686" lon="1.77221">
        <ele>188.08</ele>
        <time>2018-05-05T14:10:05Z</time>
      </trkpt>
      <trkpt lat="43.91682" lon="1.77212">
        <ele>187.59</ele>
        <time>2018-05-05T14:10:12Z</time>
      </trkpt>
      <trkpt lat="43.91681" lon="1.77207">
        <ele>187.59</ele>
        <time>2018-05-05T14:10:16Z</time>
      </trkpt>
      <trkpt lat="43.91681" lon="1.77201">
        <ele>187.59</ele>
        <time>2018-05-05T14:10:21Z</time>
      </trkpt>
      <trkpt lat="43.9168" lon="1.77193">
        <ele>187.59</ele>
        <time>2018-05-05T14:10:26Z</time>
      </trkpt>
      <trkpt lat="43.91677" lon="1.77177">
        <ele>186.63</ele>
        <time>2018-05-05T14:10:37Z</time>
      </trkpt>
      <trkpt lat="43.91677" lon="1.77163">
        <ele>186.63</ele>
        <time>2018-05-05T14:10:48Z</time>
      </trkpt>
      <trkpt lat="43.91677" lon="1.77158">
        <ele>186.63</ele>
        <time>2018-05-05T14:11:02Z</time>
      </trkpt>
      <trkpt lat="43.91676" lon="1.77149">
        <ele>186.15</ele>
        <time>2018-05-05T14:11:14Z</time>
      </trkpt>
      <trkpt lat="43.91676" lon="1.77141">
        <ele>186.15</ele>
        <time>2018-05-05T14:11:20Z</time>
      </trkpt>
      <trkpt lat="43.91674" lon="1.77139">
        <ele>186.15</ele>
        <time>2018-05-05T14:11:22Z</time>
      </trkpt>
      <trkpt lat="43.91672" lon="1.77139">
        <ele>185.67</ele>
        <time>2018-05-05T14:11:24Z</time>
      </trkpt>
      <trkpt lat="43.91668" lon="1.77133">
        <ele>186.15</ele>
        <time>2018-05-05T14:11:40Z</time>
      </trkpt>
      <trkpt lat="43.91666" lon="1.77133">
        <ele>186.15</ele>
        <time>2018-05-05T14:12:16Z</time>
      </trkpt>
      <trkpt lat="43.91666" lon="1.77135">
        <ele>186.63</ele>
        <time>2018-05-05T14:12:47Z</time>
      </trkpt>
      <trkpt lat="43.91663" lon="1.77129">
        <ele>186.15</ele>
        <time>2018-05-05T14:13:05Z</time>
      </trkpt>
      <trkpt lat="43.91663" lon="1.77129">
        <ele>186.15</ele>
        <time>2018-05-05T14:13:06Z</time>
      </trkpt>
      <trkpt lat="43.9166" lon="1.77127">
        <ele>186.15</ele>
        <time>2018-05-05T14:13:09Z</time>
      </trkpt>
      <trkpt lat="43.91653" lon="1.77123">
        <ele>186.15</ele>
        <time>2018-05-05T14:13:16Z</time>
      </trkpt>
      <trkpt lat="43.91647" lon="1.77118">
        <ele>186.63</ele>
        <time>2018-05-05T14:13:26Z</time>
      </trkpt>
      <trkpt lat="43.91646" lon="1.77117">
        <ele>186.63</ele>
        <time>2018-05-05T14:13:28Z</time>
      </trkpt>
      <trkpt lat="43.91642" lon="1.77113">
        <ele>186.63</ele>
        <time>2018-05-05T14:13:33Z</time>
      </trkpt>
      <trkpt lat="43.91635" lon="1.77109">
        <ele>187.11</ele>
        <time>2018-05-05T14:13:40Z</time>
      </trkpt>
      <trkpt lat="43.91634" lon="1.77107">
        <ele>186.63</ele>
        <time>2018-05-05T14:13:42Z</time>
      </trkpt>
      <trkpt lat="43.91633" lon="1.77105">
        <ele>186.63</ele>
        <time>2018-05-05T14:13:44Z</time>
      </trkpt>
      <trkpt lat="43.91631" lon="1.77103">
        <ele>186.63</ele>
        <time>2018-05-05T14:13:46Z</time>
      </trkpt>
      <trkpt lat="43.91627" lon="1.77097">
        <ele>186.63</ele>
        <time>2018-05-05T14:13:51Z</time>
      </trkpt>
      <trkpt lat="43.91624" lon="1.77094">
        <ele>186.15</ele>
        <time>2018-05-05T14:13:55Z</time>
      </trkpt>
      <trkpt lat="43.91622" lon="1.77092">
        <ele>186.63</ele>
        <time>2018-05-05T14:13:57Z</time>
      </trkpt>
      <trkpt lat="43.9162" lon="1.77087">
        <ele>186.15</ele>
        <time>2018-05-05T14:14:06Z</time>
      </trkpt>
      <trkpt lat="43.91615" lon="1.77078">
        <ele>186.63</ele>
        <time>2018-05-05T14:14:14Z</time>
      </trkpt>
      <trkpt lat="43.91613" lon="1.77077">
        <ele>186.63</ele>
        <time>2018-05-05T14:14:16Z</time>
      </trkpt>
      <trkpt lat="43.91612" lon="1.77072">
        <ele>186.63</ele>
        <time>2018-05-05T14:14:20Z</time>
      </trkpt>
      <trkpt lat="43.91607" lon="1.77064">
        <ele>186.63</ele>
        <time>2018-05-05T14:14:32Z</time>
      </trkpt>
      <trkpt lat="43.91607" lon="1.77062">
        <ele>186.63</ele>
        <time>2018-05-05T14:15:03Z</time>
      </trkpt>
      <trkpt lat="43.91604" lon="1.77058">
        <ele>186.63</ele>
        <time>2018-05-05T14:15:14Z</time>
      </trkpt>
      <trkpt lat="43.91602" lon="1.77055">
        <ele>186.63</ele>
        <time>2018-05-05T14:15:17Z</time>
      </trkpt>
      <trkpt lat="43.91597" lon="1.77043">
        <ele>186.15</ele>
        <time>2018-05-05T14:15:25Z</time>
      </trkpt>
      <trkpt lat="43.91589" lon="1.77028">
        <ele>186.63</ele>
        <time>2018-05-05T14:15:38Z</time>
      </trkpt>
      <trkpt lat="43.91587" lon="1.77022">
        <ele>186.15</ele>
        <time>2018-05-05T14:15:42Z</time>
      </trkpt>
      <trkpt lat="43.91585" lon="1.7702">
        <ele>186.15</ele>
        <time>2018-05-05T14:15:45Z</time>
      </trkpt>
      <trkpt lat="43.91582" lon="1.77014">
        <ele>186.15</ele>
        <time>2018-05-05T14:15:49Z</time>
      </trkpt>
      <trkpt lat="43.91579" lon="1.7701">
        <ele>186.15</ele>
        <time>2018-05-05T14:15:53Z</time>
      </trkpt>
      <trkpt lat="43.91576" lon="1.77006">
        <ele>186.15</ele>
        <time>2018-05-05T14:15:57Z</time>
      </trkpt>
      <trkpt lat="43.91573" lon="1.77">
        <ele>186.15</ele>
        <time>2018-05-05T14:16:02Z</time>
      </trkpt>
      <trkpt lat="43.91567" lon="1.76993">
        <ele>186.63</ele>
        <time>2018-05-05T14:16:09Z</time>
      </trkpt>
      <trkpt lat="43.91566" lon="1.76991">
        <ele>186.63</ele>
        <time>2018-05-05T14:16:11Z</time>
      </trkpt>
      <trkpt lat="43.9156" lon="1.76984">
        <ele>186.15</ele>
        <time>2018-05-05T14:16:18Z</time>
      </trkpt>
      <trkpt lat="43.91556" lon="1.76977">
        <ele>186.15</ele>
        <time>2018-05-05T14:16:24Z</time>
      </trkpt>
      <trkpt lat="43.9155" lon="1.76967">
        <ele>185.67</ele>
        <time>2018-05-05T14:16:32Z</time>
      </trkpt>
      <trkpt lat="43.9154" lon="1.76951">
        <ele>186.15</ele>
        <time>2018-05-05T14:16:49Z</time>
      </trkpt>
      <trkpt lat="43.91538" lon="1.7695">
        <ele>185.67</ele>
        <time>2018-05-05T14:16:51Z</time>
      </trkpt>
      <trkpt lat="43.91536" lon="1.76949">
        <ele>186.15</ele>
        <time>2018-05-05T14:16:53Z</time>
      </trkpt>
      <trkpt lat="43.91535" lon="1.76946">
        <ele>185.67</ele>
        <time>2018-05-05T14:16:56Z</time>
      </trkpt>
      <trkpt lat="43.91529" lon="1.76939">
        <ele>186.15</ele>
        <time>2018-05-05T14:17:05Z</time>
      </trkpt>
      <trkpt lat="43.91528" lon="1.76936">
        <ele>186.15</ele>
        <time>2018-05-05T14:17:07Z</time>
      </trkpt>
      <trkpt lat="43.9152" lon="1.76924">
        <ele>185.67</ele>
        <time>2018-05-05T14:17:18Z</time>
      </trkpt>
      <trkpt lat="43.91518" lon="1.76917">
        <ele>185.67</ele>
        <time>2018-05-05T14:17:27Z</time>
      </trkpt>
      <trkpt lat="43.91516" lon="1.76914">
        <ele>185.67</ele>
        <time>2018-05-05T14:17:46Z</time>
      </trkpt>
      <trkpt lat="43.91516" lon="1.76913">
        <ele>185.67</ele>
        <time>2018-05-05T14:17:48Z</time>
      </trkpt>
      <trkpt lat="43.91518" lon="1.76908">
        <ele>185.19</ele>
        <time>2018-05-05T14:17:57Z</time>
      </trkpt>
      <trkpt lat="43.91515" lon="1.76904">
        <ele>185.19</ele>
        <time>2018-05-05T14:18:02Z</time>
      </trkpt>
      <trkpt lat="43.9151" lon="1.76901">
        <ele>185.67</ele>
        <time>2018-05-05T14:18:10Z</time>
      </trkpt>
      <trkpt lat="43.91503" lon="1.7689">
        <ele>185.19</ele>
        <time>2018-05-05T14:18:20Z</time>
      </trkpt>
      <trkpt lat="43.91496" lon="1.76877">
        <ele>185.19</ele>
        <time>2018-05-05T14:18:32Z</time>
      </trkpt>
      <trkpt lat="43.91489" lon="1.76864">
        <ele>185.67</ele>
        <time>2018-05-05T14:18:46Z</time>
      </trkpt>
      <trkpt lat="43.91485" lon="1.76858">
        <ele>185.67</ele>
        <time>2018-05-05T14:18:55Z</time>
      </trkpt>
      <trkpt lat="43.91485" lon="1.76848">
        <ele>185.67</ele>
        <time>2018-05-05T14:19:04Z</time>
      </trkpt>
      <trkpt lat="43.91486" lon="1.76831">
        <ele>185.19</ele>
        <time>2018-05-05T14:19:16Z</time>
      </trkpt>
      <trkpt lat="43.91489" lon="1.76818">
        <ele>185.19</ele>
        <time>2018-05-05T14:19:28Z</time>
      </trkpt>
      <trkpt lat="43.91497" lon="1.76808">
        <ele>184.71</ele>
        <time>2018-05-05T14:19:38Z</time>
      </trkpt>
      <trkpt lat="43.91496" lon="1.768">
        <ele>184.71</ele>
        <time>2018-05-05T14:19:48Z</time>
      </trkpt>
      <trkpt lat="43.91494" lon="1.76799">
        <ele>184.71</ele>
        <time>2018-05-05T14:19:50Z</time>
      </trkpt>
      <trkpt lat="43.91491" lon="1.76795">
        <ele>184.71</ele>
        <time>2018-05-05T14:19:54Z</time>
      </trkpt>
      <trkpt lat="43.91489" lon="1.76791">
        <ele>184.71</ele>
        <time>2018-05-05T14:19:59Z</time>
      </trkpt>
      <trkpt lat="43.91486" lon="1.76788">
        <ele>184.71</ele>
        <time>2018-05-05T14:20:02Z</time>
      </trkpt>
      <trkpt lat="43.91484" lon="1.76782">
        <ele>184.71</ele>
        <time>2018-05-05T14:20:06Z</time>
      </trkpt>
      <trkpt lat="43.91476" lon="1.76772">
        <ele>184.71</ele>
        <time>2018-05-05T14:20:19Z</time>
      </trkpt>
      <trkpt lat="43.91472" lon="1.76772">
        <ele>184.71</ele>
        <time>2018-05-05T14:20:44Z</time>
      </trkpt>
      <trkpt lat="43.91472" lon="1.7677">
        <ele>184.71</ele>
        <time>2018-05-05T14:20:45Z</time>
      </trkpt>
      <trkpt lat="43.91471" lon="1.76767">
        <ele>184.23</ele>
        <time>2018-05-05T14:20:47Z</time>
      </trkpt>
      <trkpt lat="43.91468" lon="1.76764">
        <ele>184.71</ele>
        <time>2018-05-05T14:20:50Z</time>
      </trkpt>
      <trkpt lat="43.91466" lon="1.76758">
        <ele>184.71</ele>
        <time>2018-05-05T14:20:57Z</time>
      </trkpt>
      <trkpt lat="43.91461" lon="1.7675">
        <ele>185.19</ele>
        <time>2018-05-05T14:21:07Z</time>
      </trkpt>
      <trkpt lat="43.91452" lon="1.76745">
        <ele>184.71</ele>
        <time>2018-05-05T14:21:19Z</time>
      </trkpt>
      <trkpt lat="43.91442" lon="1.76739">
        <ele>184.71</ele>
        <time>2018-05-05T14:21:30Z</time>
      </trkpt>
      <trkpt lat="43.91432" lon="1.76732">
        <ele>184.23</ele>
        <time>2018-05-05T14:21:42Z</time>
      </trkpt>
      <trkpt lat="43.91423" lon="1.76725">
        <ele>184.71</ele>
        <time>2018-05-05T14:21:53Z</time>
      </trkpt>
      <trkpt lat="43.91409" lon="1.76719">
        <ele>184.71</ele>
        <time>2018-05-05T14:22:07Z</time>
      </trkpt>
      <trkpt lat="43.91397" lon="1.76707">
        <ele>184.71</ele>
        <time>2018-05-05T14:22:20Z</time>
      </trkpt>
      <trkpt lat="43.91391" lon="1.76699">
        <ele>184.23</ele>
        <time>2018-05-05T14:22:29Z</time>
      </trkpt>
      <trkpt lat="43.91386" lon="1.76692">
        <ele>184.71</ele>
        <time>2018-05-05T14:22:36Z</time>
      </trkpt>
      <trkpt lat="43.91378" lon="1.76676">
        <ele>184.23</ele>
        <time>2018-05-05T14:22:48Z</time>
      </trkpt>
      <trkpt lat="43.91377" lon="1.76672">
        <ele>184.23</ele>
        <time>2018-05-05T14:22:52Z</time>
      </trkpt>
      <trkpt lat="43.91377" lon="1.76659">
        <ele>185.19</ele>
        <time>2018-05-05T14:23:02Z</time>
      </trkpt>
      <trkpt lat="43.91381" lon="1.76658">
        <ele>184.71</ele>
        <time>2018-05-05T14:23:18Z</time>
      </trkpt>
      <trkpt lat="43.91393" lon="1.76655">
        <ele>184.71</ele>
        <time>2018-05-05T14:23:30Z</time>
      </trkpt>
      <trkpt lat="43.91396" lon="1.76654">
        <ele>185.19</ele>
        <time>2018-05-05T14:23:34Z</time>
      </trkpt>
      <trkpt lat="43.914" lon="1.76653">
        <ele>185.19</ele>
        <time>2018-05-05T14:23:38Z</time>
      </trkpt>
      <trkpt lat="43.91415" lon="1.76646">
        <ele>185.19</ele>
        <time>2018-05-05T14:23:53Z</time>
      </trkpt>
      <trkpt lat="43.91416" lon="1.76645">
        <ele>185.19</ele>
        <time>2018-05-05T14:23:54Z</time>
      </trkpt>
      <trkpt lat="43.91428" lon="1.76637">
        <ele>185.67</ele>
        <time>2018-05-05T14:24:07Z</time>
      </trkpt>
      <trkpt lat="43.91435" lon="1.76633">
        <ele>185.67</ele>
        <time>2018-05-05T14:24:16Z</time>
      </trkpt>
      <trkpt lat="43.91439" lon="1.76629">
        <ele>185.67</ele>
        <time>2018-05-05T14:24:19Z</time>
      </trkpt>
      <trkpt lat="43.91447" lon="1.76624">
        <ele>186.15</ele>
        <time>2018-05-05T14:24:29Z</time>
      </trkpt>
      <trkpt lat="43.91453" lon="1.76621">
        <ele>186.15</ele>
        <time>2018-05-05T14:24:38Z</time>
      </trkpt>
      <trkpt lat="43.91457" lon="1.76619">
        <ele>186.15</ele>
        <time>2018-05-05T14:24:53Z</time>
      </trkpt>
      <trkpt lat="43.91463" lon="1.76615">
        <ele>186.15</ele>
        <time>2018-05-05T14:25:12Z</time>
      </trkpt>
      <trkpt lat="43.91463" lon="1.76614">
        <ele>186.15</ele>
        <time>2018-05-05T14:25:30Z</time>
      </trkpt>
      <trkpt lat="43.91476" lon="1.7661">
        <ele>186.63</ele>
        <time>2018-05-05T14:25:43Z</time>
      </trkpt>
      <trkpt lat="43.91478" lon="1.76609">
        <ele>186.63</ele>
        <time>2018-05-05T14:25:44Z</time>
      </trkpt>
      <trkpt lat="43.91481" lon="1.76609">
        <ele>186.63</ele>
        <time>2018-05-05T14:25:47Z</time>
      </trkpt>
      <trkpt lat="43.91485" lon="1.76609">
        <ele>187.11</ele>
        <time>2018-05-05T14:25:51Z</time>
      </trkpt>
      <trkpt lat="43.91488" lon="1.76609">
        <ele>187.11</ele>
        <time>2018-05-05T14:25:53Z</time>
      </trkpt>
      <trkpt lat="43.91498" lon="1.76613">
        <ele>187.11</ele>
        <time>2018-05-05T14:26:03Z</time>
      </trkpt>
      <trkpt lat="43.91507" lon="1.76622">
        <ele>187.59</ele>
        <time>2018-05-05T14:26:12Z</time>
      </trkpt>
      <trkpt lat="43.9152" lon="1.76634">
        <ele>187.59</ele>
        <time>2018-05-05T14:26:27Z</time>
      </trkpt>
      <trkpt lat="43.91529" lon="1.76649">
        <ele>187.59</ele>
        <time>2018-05-05T14:26:40Z</time>
      </trkpt>
      <trkpt lat="43.91533" lon="1.76654">
        <ele>187.59</ele>
        <time>2018-05-05T14:26:45Z</time>
      </trkpt>
      <trkpt lat="43.91536" lon="1.76659">
        <ele>187.59</ele>
        <time>2018-05-05T14:26:49Z</time>
      </trkpt>
      <trkpt lat="43.91543" lon="1.76669">
        <ele>188.08</ele>
        <time>2018-05-05T14:26:58Z</time>
      </trkpt>
      <trkpt lat="43.91547" lon="1.76676">
        <ele>187.59</ele>
        <time>2018-05-05T14:27:03Z</time>
      </trkpt>
      <trkpt lat="43.9155" lon="1.76681">
        <ele>188.08</ele>
        <time>2018-05-05T14:27:08Z</time>
      </trkpt>
      <trkpt lat="43.91554" lon="1.76688">
        <ele>188.08</ele>
        <time>2018-05-05T14:27:14Z</time>
      </trkpt>
      <trkpt lat="43.91557" lon="1.76691">
        <ele>188.08</ele>
        <time>2018-05-05T14:27:17Z</time>
      </trkpt>
      <trkpt lat="43.91567" lon="1.76708">
        <ele>188.08</ele>
        <time>2018-05-05T14:27:30Z</time>
      </trkpt>
      <trkpt lat="43.91572" lon="1.76714">
        <ele>188.08</ele>
        <time>2018-05-05T14:27:36Z</time>
      </trkpt>
      <trkpt lat="43.91575" lon="1.7672">
        <ele>187.59</ele>
        <time>2018-05-05T14:27:41Z</time>
      </trkpt>
      <trkpt lat="43.91583" lon="1.76732">
        <ele>187.59</ele>
        <time>2018-05-05T14:27:52Z</time>
      </trkpt>
      <trkpt lat="43.9159" lon="1.76743">
        <ele>188.08</ele>
        <time>2018-05-05T14:28:01Z</time>
      </trkpt>
      <trkpt lat="43.91592" lon="1.76746">
        <ele>188.08</ele>
        <time>2018-05-05T14:28:04Z</time>
      </trkpt>
      <trkpt lat="43.91601" lon="1.7676">
        <ele>188.08</ele>
        <time>2018-05-05T14:28:16Z</time>
      </trkpt>
      <trkpt lat="43.91613" lon="1.7677">
        <ele>188.08</ele>
        <time>2018-05-05T14:28:29Z</time>
      </trkpt>
      <trkpt lat="43.9162" lon="1.76768">
        <ele>188.08</ele>
        <time>2018-05-05T14:28:35Z</time>
      </trkpt>
      <trkpt lat="43.91621" lon="1.76766">
        <ele>188.56</ele>
        <time>2018-05-05T14:28:37Z</time>
      </trkpt>
      <trkpt lat="43.91624" lon="1.76766">
        <ele>188.56</ele>
        <time>2018-05-05T14:28:39Z</time>
      </trkpt>
      <trkpt lat="43.91626" lon="1.76763">
        <ele>188.56</ele>
        <time>2018-05-05T14:28:42Z</time>
      </trkpt>
      <trkpt lat="43.91632" lon="1.7676">
        <ele>189.04</ele>
        <time>2018-05-05T14:28:47Z</time>
      </trkpt>
      <trkpt lat="43.91635" lon="1.76759">
        <ele>189.04</ele>
        <time>2018-05-05T14:28:50Z</time>
      </trkpt>
      <trkpt lat="43.91639" lon="1.76755">
        <ele>189.04</ele>
        <time>2018-05-05T14:28:54Z</time>
      </trkpt>
      <trkpt lat="43.91647" lon="1.76749">
        <ele>189.52</ele>
        <time>2018-05-05T14:29:03Z</time>
      </trkpt>
      <trkpt lat="43.91651" lon="1.76742">
        <ele>190</ele>
        <time>2018-05-05T14:29:10Z</time>
      </trkpt>
      <trkpt lat="43.91654" lon="1.76738">
        <ele>190</ele>
        <time>2018-05-05T14:29:14Z</time>
      </trkpt>
      <trkpt lat="43.91656" lon="1.76737">
        <ele>190.48</ele>
        <time>2018-05-05T14:29:16Z</time>
      </trkpt>
      <trkpt lat="43.91657" lon="1.76735">
        <ele>190.48</ele>
        <time>2018-05-05T14:29:18Z</time>
      </trkpt>
      <trkpt lat="43.91661" lon="1.76732">
        <ele>190.96</ele>
        <time>2018-05-05T14:29:23Z</time>
      </trkpt>
      <trkpt lat="43.91664" lon="1.76729">
        <ele>190.96</ele>
        <time>2018-05-05T14:29:26Z</time>
      </trkpt>
      <trkpt lat="43.91668" lon="1.76726">
        <ele>191.44</ele>
        <time>2018-05-05T14:29:30Z</time>
      </trkpt>
      <trkpt lat="43.9167" lon="1.76726">
        <ele>191.44</ele>
        <time>2018-05-05T14:29:32Z</time>
      </trkpt>
      <trkpt lat="43.91681" lon="1.76717">
        <ele>192.4</ele>
        <time>2018-05-05T14:29:45Z</time>
      </trkpt>
      <trkpt lat="43.91694" lon="1.76713">
        <ele>193.36</ele>
        <time>2018-05-05T14:29:58Z</time>
      </trkpt>
      <trkpt lat="43.91704" lon="1.76709">
        <ele>194.32</ele>
        <time>2018-05-05T14:30:11Z</time>
      </trkpt>
      <trkpt lat="43.91719" lon="1.76706">
        <ele>194.8</ele>
        <time>2018-05-05T14:30:25Z</time>
      </trkpt>
      <trkpt lat="43.91723" lon="1.76705">
        <ele>195.28</ele>
        <time>2018-05-05T14:30:29Z</time>
      </trkpt>
      <trkpt lat="43.91732" lon="1.76701">
        <ele>195.77</ele>
        <time>2018-05-05T14:30:38Z</time>
      </trkpt>
      <trkpt lat="43.91734" lon="1.767">
        <ele>196.25</ele>
        <time>2018-05-05T14:30:40Z</time>
      </trkpt>
      <trkpt lat="43.91741" lon="1.76698">
        <ele>196.73</ele>
        <time>2018-05-05T14:30:48Z</time>
      </trkpt>
      <trkpt lat="43.91751" lon="1.7669">
        <ele>197.69</ele>
        <time>2018-05-05T14:31:00Z</time>
      </trkpt>
      <trkpt lat="43.91754" lon="1.7669">
        <ele>197.69</ele>
        <time>2018-05-05T14:31:02Z</time>
      </trkpt>
      <trkpt lat="43.91759" lon="1.76687">
        <ele>198.17</ele>
        <time>2018-05-05T14:31:09Z</time>
      </trkpt>
      <trkpt lat="43.91763" lon="1.76686">
        <ele>198.65</ele>
        <time>2018-05-05T14:31:13Z</time>
      </trkpt>
      <trkpt lat="43.9177" lon="1.76681">
        <ele>198.65</ele>
        <time>2018-05-05T14:31:20Z</time>
      </trkpt>
      <trkpt lat="43.91778" lon="1.76676">
        <ele>199.13</ele>
        <time>2018-05-05T14:31:30Z</time>
      </trkpt>
      <trkpt lat="43.91779" lon="1.76676">
        <ele>199.61</ele>
        <time>2018-05-05T14:31:31Z</time>
      </trkpt>
      <trkpt lat="43.9178" lon="1.76674">
        <ele>199.61</ele>
        <time>2018-05-05T14:31:33Z</time>
      </trkpt>
      <trkpt lat="43.91789" lon="1.76667">
        <ele>200.09</ele>
        <time>2018-05-05T14:31:46Z</time>
      </trkpt>
      <trkpt lat="43.91789" lon="1.76666">
        <ele>200.09</ele>
        <time>2018-05-05T14:31:47Z</time>
      </trkpt>
      <trkpt lat="43.91793" lon="1.76664">
        <ele>200.09</ele>
        <time>2018-05-05T14:31:50Z</time>
      </trkpt>
      <trkpt lat="43.91797" lon="1.76662">
        <ele>200.57</ele>
        <time>2018-05-05T14:31:54Z</time>
      </trkpt>
      <trkpt lat="43.91811" lon="1.76649">
        <ele>201.05</ele>
        <time>2018-05-05T14:32:09Z</time>
      </trkpt>
      <trkpt lat="43.91819" lon="1.76641">
        <ele>202.01</ele>
        <time>2018-05-05T14:32:19Z</time>
      </trkpt>
      <trkpt lat="43.91826" lon="1.76631">
        <ele>202.98</ele>
        <time>2018-05-05T14:32:30Z</time>
      </trkpt>
      <trkpt lat="43.91827" lon="1.76631">
        <ele>202.98</ele>
        <time>2018-05-05T14:32:31Z</time>
      </trkpt>
      <trkpt lat="43.91831" lon="1.76627">
        <ele>202.98</ele>
        <time>2018-05-05T14:32:35Z</time>
      </trkpt>
      <trkpt lat="43.91836" lon="1.76624">
        <ele>203.94</ele>
        <time>2018-05-05T14:32:40Z</time>
      </trkpt>
      <trkpt lat="43.91839" lon="1.76624">
        <ele>203.94</ele>
        <time>2018-05-05T14:32:42Z</time>
      </trkpt>
      <trkpt lat="43.91845" lon="1.76624">
        <ele>204.42</ele>
        <time>2018-05-05T14:32:49Z</time>
      </trkpt>
      <trkpt lat="43.91848" lon="1.76624">
        <ele>204.42</ele>
        <time>2018-05-05T14:32:52Z</time>
      </trkpt>
      <trkpt lat="43.91853" lon="1.76625">
        <ele>204.9</ele>
        <time>2018-05-05T14:32:58Z</time>
      </trkpt>
      <trkpt lat="43.91862" lon="1.76629">
        <ele>205.38</ele>
        <time>2018-05-05T14:33:05Z</time>
      </trkpt>
      <trkpt lat="43.91872" lon="1.76633">
        <ele>205.38</ele>
        <time>2018-05-05T14:33:16Z</time>
      </trkpt>
      <trkpt lat="43.91885" lon="1.76634">
        <ele>206.34</ele>
        <time>2018-05-05T14:33:29Z</time>
      </trkpt>
      <trkpt lat="43.91886" lon="1.76634">
        <ele>206.82</ele>
        <time>2018-05-05T14:33:30Z</time>
      </trkpt>
      <trkpt lat="43.91891" lon="1.76636">
        <ele>207.3</ele>
        <time>2018-05-05T14:33:35Z</time>
      </trkpt>
      <trkpt lat="43.91899" lon="1.7664">
        <ele>208.26</ele>
        <time>2018-05-05T14:33:46Z</time>
      </trkpt>
      <trkpt lat="43.91909" lon="1.76641">
        <ele>209.22</ele>
        <time>2018-05-05T14:33:56Z</time>
      </trkpt>
      <trkpt lat="43.91916" lon="1.76644">
        <ele>209.7</ele>
        <time>2018-05-05T14:34:01Z</time>
      </trkpt>
      <trkpt lat="43.91927" lon="1.76646">
        <ele>210.67</ele>
        <time>2018-05-05T14:34:10Z</time>
      </trkpt>
      <trkpt lat="43.91936" lon="1.76649">
        <ele>211.63</ele>
        <time>2018-05-05T14:34:20Z</time>
      </trkpt>
      <trkpt lat="43.9194" lon="1.76651">
        <ele>212.11</ele>
        <time>2018-05-05T14:34:24Z</time>
      </trkpt>
      <trkpt lat="43.91943" lon="1.76653">
        <ele>212.11</ele>
        <time>2018-05-05T14:34:28Z</time>
      </trkpt>
      <trkpt lat="43.91953" lon="1.76656">
        <ele>213.55</ele>
        <time>2018-05-05T14:34:39Z</time>
      </trkpt>
      <trkpt lat="43.91961" lon="1.76658">
        <ele>214.51</ele>
        <time>2018-05-05T14:34:49Z</time>
      </trkpt>
      <trkpt lat="43.91966" lon="1.7666">
        <ele>214.51</ele>
        <time>2018-05-05T14:34:55Z</time>
      </trkpt>
      <trkpt lat="43.91969" lon="1.76662">
        <ele>214.99</ele>
        <time>2018-05-05T14:34:58Z</time>
      </trkpt>
      <trkpt lat="43.91978" lon="1.76665">
        <ele>215.47</ele>
        <time>2018-05-05T14:35:07Z</time>
      </trkpt>
      <trkpt lat="43.91988" lon="1.76668">
        <ele>216.43</ele>
        <time>2018-05-05T14:35:18Z</time>
      </trkpt>
      <trkpt lat="43.91995" lon="1.76669">
        <ele>216.91</ele>
        <time>2018-05-05T14:35:24Z</time>
      </trkpt>
      <trkpt lat="43.92" lon="1.76672">
        <ele>217.4</ele>
        <time>2018-05-05T14:35:30Z</time>
      </trkpt>
      <trkpt lat="43.92005" lon="1.76674">
        <ele>217.88</ele>
        <time>2018-05-05T14:35:35Z</time>
      </trkpt>
      <trkpt lat="43.92011" lon="1.76675">
        <ele>218.36</ele>
        <time>2018-05-05T14:35:40Z</time>
      </trkpt>
      <trkpt lat="43.92021" lon="1.76682">
        <ele>219.32</ele>
        <time>2018-05-05T14:35:50Z</time>
      </trkpt>
      <trkpt lat="43.92028" lon="1.76684">
        <ele>220.28</ele>
        <time>2018-05-05T14:35:58Z</time>
      </trkpt>
      <trkpt lat="43.9203" lon="1.76685">
        <ele>220.76</ele>
        <time>2018-05-05T14:36:00Z</time>
      </trkpt>
      <trkpt lat="43.92041" lon="1.7669">
        <ele>222.2</ele>
        <time>2018-05-05T14:36:13Z</time>
      </trkpt>
      <trkpt lat="43.92049" lon="1.76693">
        <ele>223.16</ele>
        <time>2018-05-05T14:36:23Z</time>
      </trkpt>
      <trkpt lat="43.92051" lon="1.76694">
        <ele>223.64</ele>
        <time>2018-05-05T14:36:26Z</time>
      </trkpt>
      <trkpt lat="43.92064" lon="1.76698">
        <ele>224.61</ele>
        <time>2018-05-05T14:36:37Z</time>
      </trkpt>
      <trkpt lat="43.92072" lon="1.76702">
        <ele>225.57</ele>
        <time>2018-05-05T14:36:49Z</time>
      </trkpt>
      <trkpt lat="43.92081" lon="1.76701">
        <ele>226.53</ele>
        <time>2018-05-05T14:37:01Z</time>
      </trkpt>
      <trkpt lat="43.92091" lon="1.76701">
        <ele>227.97</ele>
        <time>2018-05-05T14:37:12Z</time>
      </trkpt>
      <trkpt lat="43.92094" lon="1.76703">
        <ele>227.97</ele>
        <time>2018-05-05T14:37:24Z</time>
      </trkpt>
      <trkpt lat="43.92095" lon="1.76702">
        <ele>227.97</ele>
        <time>2018-05-05T14:37:35Z</time>
      </trkpt>
      <trkpt lat="43.92102" lon="1.76702">
        <ele>228.93</ele>
        <time>2018-05-05T14:37:43Z</time>
      </trkpt>
      <trkpt lat="43.92111" lon="1.76699">
        <ele>229.89</ele>
        <time>2018-05-05T14:37:54Z</time>
      </trkpt>
      <trkpt lat="43.9212" lon="1.76697">
        <ele>231.33</ele>
        <time>2018-05-05T14:38:05Z</time>
      </trkpt>
      <trkpt lat="43.92127" lon="1.76697">
        <ele>232.3</ele>
        <time>2018-05-05T14:38:15Z</time>
      </trkpt>
      <trkpt lat="43.92136" lon="1.76698">
        <ele>233.74</ele>
        <time>2018-05-05T14:38:33Z</time>
      </trkpt>
      <trkpt lat="43.92147" lon="1.76697">
        <ele>235.18</ele>
        <time>2018-05-05T14:38:47Z</time>
      </trkpt>
      <trkpt lat="43.92153" lon="1.76696">
        <ele>236.14</ele>
        <time>2018-05-05T14:38:58Z</time>
      </trkpt>
      <trkpt lat="43.92162" lon="1.76696">
        <ele>237.58</ele>
        <time>2018-05-05T14:39:10Z</time>
      </trkpt>
      <trkpt lat="43.92162" lon="1.76698">
        <ele>238.06</ele>
        <time>2018-05-05T14:39:27Z</time>
      </trkpt>
      <trkpt lat="43.92174" lon="1.76696">
        <ele>239.51</ele>
        <time>2018-05-05T14:39:41Z</time>
      </trkpt>
      <trkpt lat="43.92181" lon="1.76697">
        <ele>240.95</ele>
        <time>2018-05-05T14:39:52Z</time>
      </trkpt>
      <trkpt lat="43.92189" lon="1.76697">
        <ele>241.91</ele>
        <time>2018-05-05T14:40:04Z</time>
      </trkpt>
      <trkpt lat="43.92194" lon="1.76696">
        <ele>242.87</ele>
        <time>2018-05-05T14:40:18Z</time>
      </trkpt>
      <trkpt lat="43.922" lon="1.76699">
        <ele>243.83</ele>
        <time>2018-05-05T14:40:29Z</time>
      </trkpt>
      <trkpt lat="43.92201" lon="1.767">
        <ele>243.83</ele>
        <time>2018-05-05T14:40:31Z</time>
      </trkpt>
      <trkpt lat="43.92207" lon="1.76704">
        <ele>245.27</ele>
        <time>2018-05-05T14:40:39Z</time>
      </trkpt>
      <trkpt lat="43.92216" lon="1.76709">
        <ele>246.23</ele>
        <time>2018-05-05T14:40:49Z</time>
      </trkpt>
      <trkpt lat="43.92223" lon="1.76715">
        <ele>247.2</ele>
        <time>2018-05-05T14:41:00Z</time>
      </trkpt>
      <trkpt lat="43.92227" lon="1.76722">
        <ele>248.16</ele>
        <time>2018-05-05T14:41:13Z</time>
      </trkpt>
      <trkpt lat="43.92231" lon="1.76729">
        <ele>249.12</ele>
        <time>2018-05-05T14:41:24Z</time>
      </trkpt>
      <trkpt lat="43.92236" lon="1.76733">
        <ele>250.56</ele>
        <time>2018-05-05T14:41:34Z</time>
      </trkpt>
      <trkpt lat="43.9224" lon="1.76738">
        <ele>251.04</ele>
        <time>2018-05-05T14:41:42Z</time>
      </trkpt>
      <trkpt lat="43.92248" lon="1.76744">
        <ele>252</ele>
        <time>2018-05-05T14:41:53Z</time>
      </trkpt>
      <trkpt lat="43.92253" lon="1.76748">
        <ele>252.48</ele>
        <time>2018-05-05T14:42:03Z</time>
      </trkpt>
      <trkpt lat="43.92256" lon="1.76745">
        <ele>252.48</ele>
        <time>2018-05-05T14:42:21Z</time>
      </trkpt>
      <trkpt lat="43.92261" lon="1.76754">
        <ele>252.96</ele>
        <time>2018-05-05T14:42:38Z</time>
      </trkpt>
      <trkpt lat="43.92263" lon="1.76754">
        <ele>253.44</ele>
        <time>2018-05-05T14:42:40Z</time>
      </trkpt>
      <trkpt lat="43.92266" lon="1.76755">
        <ele>253.44</ele>
        <time>2018-05-05T14:42:44Z</time>
      </trkpt>
      <trkpt lat="43.92278" lon="1.76758">
        <ele>252.96</ele>
        <time>2018-05-05T14:42:57Z</time>
      </trkpt>
      <trkpt lat="43.92293" lon="1.76768">
        <ele>252.96</ele>
        <time>2018-05-05T14:43:12Z</time>
      </trkpt>
      <trkpt lat="43.92302" lon="1.76778">
        <ele>252.96</ele>
        <time>2018-05-05T14:43:23Z</time>
      </trkpt>
      <trkpt lat="43.92303" lon="1.76781">
        <ele>252.96</ele>
        <time>2018-05-05T14:43:25Z</time>
      </trkpt>
      <trkpt lat="43.92306" lon="1.76785">
        <ele>252.96</ele>
        <time>2018-05-05T14:43:29Z</time>
      </trkpt>
      <trkpt lat="43.92307" lon="1.76791">
        <ele>253.44</ele>
        <time>2018-05-05T14:43:32Z</time>
      </trkpt>
      <trkpt lat="43.92309" lon="1.76793">
        <ele>253.44</ele>
        <time>2018-05-05T14:43:34Z</time>
      </trkpt>
      <trkpt lat="43.92311" lon="1.76799">
        <ele>253.44</ele>
        <time>2018-05-05T14:43:38Z</time>
      </trkpt>
      <trkpt lat="43.92314" lon="1.76803">
        <ele>253.44</ele>
        <time>2018-05-05T14:43:42Z</time>
      </trkpt>
      <trkpt lat="43.92315" lon="1.76808">
        <ele>253.44</ele>
        <time>2018-05-05T14:43:45Z</time>
      </trkpt>
      <trkpt lat="43.92317" lon="1.76811">
        <ele>253.93</ele>
        <time>2018-05-05T14:43:48Z</time>
      </trkpt>
      <trkpt lat="43.92322" lon="1.76819">
        <ele>253.93</ele>
        <time>2018-05-05T14:43:54Z</time>
      </trkpt>
      <trkpt lat="43.92328" lon="1.76833">
        <ele>253.93</ele>
        <time>2018-05-05T14:44:05Z</time>
      </trkpt>
      <trkpt lat="43.9233" lon="1.76835">
        <ele>254.41</ele>
        <time>2018-05-05T14:44:07Z</time>
      </trkpt>
      <trkpt lat="43.92332" lon="1.76839">
        <ele>254.41</ele>
        <time>2018-05-05T14:44:10Z</time>
      </trkpt>
      <trkpt lat="43.92342" lon="1.76852">
        <ele>254.41</ele>
        <time>2018-05-05T14:44:22Z</time>
      </trkpt>
      <trkpt lat="43.92347" lon="1.76859">
        <ele>254.89</ele>
        <time>2018-05-05T14:44:29Z</time>
      </trkpt>
      <trkpt lat="43.92354" lon="1.76869">
        <ele>255.85</ele>
        <time>2018-05-05T14:44:40Z</time>
      </trkpt>
      <trkpt lat="43.92356" lon="1.7687">
        <ele>255.85</ele>
        <time>2018-05-05T14:44:42Z</time>
      </trkpt>
      <trkpt lat="43.92358" lon="1.76873">
        <ele>256.33</ele>
        <time>2018-05-05T14:44:44Z</time>
      </trkpt>
      <trkpt lat="43.9236" lon="1.76876">
        <ele>256.33</ele>
        <time>2018-05-05T14:44:47Z</time>
      </trkpt>
      <trkpt lat="43.92364" lon="1.76879">
        <ele>256.81</ele>
        <time>2018-05-05T14:44:51Z</time>
      </trkpt>
      <trkpt lat="43.92372" lon="1.76889">
        <ele>257.77</ele>
        <time>2018-05-05T14:45:02Z</time>
      </trkpt>
      <trkpt lat="43.92381" lon="1.76902">
        <ele>258.25</ele>
        <time>2018-05-05T14:45:15Z</time>
      </trkpt>
      <trkpt lat="43.9239" lon="1.76911">
        <ele>257.77</ele>
        <time>2018-05-05T14:45:29Z</time>
      </trkpt>
      <trkpt lat="43.92393" lon="1.76916">
        <ele>257.77</ele>
        <time>2018-05-05T14:45:35Z</time>
      </trkpt>
      <trkpt lat="43.92404" lon="1.76929">
        <ele>257.77</ele>
        <time>2018-05-05T14:45:49Z</time>
      </trkpt>
      <trkpt lat="43.92405" lon="1.7693">
        <ele>257.77</ele>
        <time>2018-05-05T14:45:50Z</time>
      </trkpt>
      <trkpt lat="43.9241" lon="1.76936">
        <ele>257.77</ele>
        <time>2018-05-05T14:45:56Z</time>
      </trkpt>
      <trkpt lat="43.92416" lon="1.76945">
        <ele>257.77</ele>
        <time>2018-05-05T14:46:04Z</time>
      </trkpt>
      <trkpt lat="43.92422" lon="1.76951">
        <ele>257.77</ele>
        <time>2018-05-05T14:46:11Z</time>
      </trkpt>
      <trkpt lat="43.92425" lon="1.76954">
        <ele>258.25</ele>
        <time>2018-05-05T14:46:14Z</time>
      </trkpt>
      <trkpt lat="43.92427" lon="1.76959">
        <ele>258.25</ele>
        <time>2018-05-05T14:46:18Z</time>
      </trkpt>
      <trkpt lat="43.92429" lon="1.7696">
        <ele>258.25</ele>
        <time>2018-05-05T14:46:20Z</time>
      </trkpt>
      <trkpt lat="43.92441" lon="1.76968">
        <ele>258.73</ele>
        <time>2018-05-05T14:46:33Z</time>
      </trkpt>
      <trkpt lat="43.92443" lon="1.76969">
        <ele>258.73</ele>
        <time>2018-05-05T14:46:35Z</time>
      </trkpt>
      <trkpt lat="43.92451" lon="1.76969">
        <ele>259.21</ele>
        <time>2018-05-05T14:46:42Z</time>
      </trkpt>
      <trkpt lat="43.92453" lon="1.76967">
        <ele>259.21</ele>
        <time>2018-05-05T14:46:44Z</time>
      </trkpt>
      <trkpt lat="43.92456" lon="1.76966">
        <ele>259.21</ele>
        <time>2018-05-05T14:46:47Z</time>
      </trkpt>
      <trkpt lat="43.92468" lon="1.76955">
        <ele>259.21</ele>
        <time>2018-05-05T14:47:02Z</time>
      </trkpt>
      <trkpt lat="43.92475" lon="1.76946">
        <ele>259.21</ele>
        <time>2018-05-05T14:47:12Z</time>
      </trkpt>
      <trkpt lat="43.9248" lon="1.76943">
        <ele>259.69</ele>
        <time>2018-05-05T14:47:17Z</time>
      </trkpt>
      <trkpt lat="43.92482" lon="1.76941">
        <ele>259.69</ele>
        <time>2018-05-05T14:47:19Z</time>
      </trkpt>
      <trkpt lat="43.92484" lon="1.76941">
        <ele>259.69</ele>
        <time>2018-05-05T14:47:21Z</time>
      </trkpt>
      <trkpt lat="43.92486" lon="1.7694">
        <ele>259.21</ele>
        <time>2018-05-05T14:47:23Z</time>
      </trkpt>
      <trkpt lat="43.92493" lon="1.76939">
        <ele>259.69</ele>
        <time>2018-05-05T14:47:30Z</time>
      </trkpt>
      <trkpt lat="43.92507" lon="1.76941">
        <ele>259.69</ele>
        <time>2018-05-05T14:47:44Z</time>
      </trkpt>
      <trkpt lat="43.9251" lon="1.76942">
        <ele>260.17</ele>
        <time>2018-05-05T14:47:48Z</time>
      </trkpt>
      <trkpt lat="43.92512" lon="1.76942">
        <ele>259.69</ele>
        <time>2018-05-05T14:47:52Z</time>
      </trkpt>
      <trkpt lat="43.92526" lon="1.76944">
        <ele>260.17</ele>
        <time>2018-05-05T14:48:05Z</time>
      </trkpt>
      <trkpt lat="43.92537" lon="1.76952">
        <ele>260.65</ele>
        <time>2018-05-05T14:48:19Z</time>
      </trkpt>
      <trkpt lat="43.92548" lon="1.76955">
        <ele>261.14</ele>
        <time>2018-05-05T14:48:31Z</time>
      </trkpt>
      <trkpt lat="43.9256" lon="1.76958">
        <ele>261.62</ele>
        <time>2018-05-05T14:48:45Z</time>
      </trkpt>
      <trkpt lat="43.92571" lon="1.76961">
        <ele>261.62</ele>
        <time>2018-05-05T14:48:57Z</time>
      </trkpt>
      <trkpt lat="43.92575" lon="1.76963">
        <ele>262.1</ele>
        <time>2018-05-05T14:49:02Z</time>
      </trkpt>
    </trkseg>
  </trk>
</gpx>